[[{"header":{"parameterUnit":"m.s-1","parameterCategory":1,"la1":30.6,"la2":28.766,"lo1":-90.7593,"lo2":-88.6598,"dy":0.0162,"dx":0.0183,"nx":116,"ny":114,"refTime":"2024-03-13T06:00:00:Z","depth":0,"parameterNumber":2,"parameterNumberName":"U-component_of_WINDS"},"data":[0.0,0.0,0.0,0.0,0.0,0.0,0.0,0.0,0.0,0.0,0.0,0.0,0.0,0.0,0.0,0.0,0.0,0.0,0.0,0.0,0.0,0.0,0.0,0.0,0.0,0.0,0.0,0.0,0.0,0.0,0.0,0.0,0.0,0.0,0.0,0.0,0.0,0.0,0.0,0.0,0.0,0.0,0.0,0.0,0.0,0.0,0.0,0.0,0.0,0.0,0.0,0.0,0.0,0.0,0.0,0.0,0.0,0.0,0.0,0.0,0.0,0.0,0.0,0.0,0.0,0.0,0.0,0.0,0.0,0.0,0.0,0.0,0.0,0.0,0.0,0.0,0.0,0.0,0.0,0.0,0.0,0.0,0.0,0.0,0.0,0.0,0.0,0.0,0.0,0.0,0.0,0.0,0.0,0.0,0.0,0.0,0.0,0.0,0.0,0.0,0.0,0.0,0.0,0.0,0.0,0.0,0.0,0.0,0.0,0.0,0.0,0.0,0.0,0.0,0.0,0.0,0.0,0.0,0.0,0.0,0.0,0.0,0.0,0.0,0.0,0.0,0.0,0.0,0.0,0.0,0.0,0.0,0.0,0.0,0.0,0.0,0.0,0.0,0.0,0.0,0.0,0.0,0.0,0.0,0.0,0.0,0.0,0.0,0.0,0.0,0.0,0.0,0.0,0.0,0.0,0.0,0.0,0.0,0.0,0.0,0.0,0.0,0.0,0.0,0.0,0.0,0.0,0.0,0.0,0.0,0.0,0.0,0.0,0.0,0.0,0.0,0.0,0.0,0.0,0.0,0.0,0.0,0.0,0.0,0.0,0.0,0.0,0.0,0.0,0.0,0.0,0.0,0.0,0.0,0.0,0.0,0.0,0.0,0.0,0.0,0.0,0.0,0.0,0.0,0.0,0.0,0.0,0.0,0.0,0.0,0.0,0.0,0.0,0.0,0.0,0.0,0.0,0.0,0.0,0.0,0.0,0.0,0.0,0.0,0.0,0.0,0.0,0.0,0.0,0.0,0.0,0.0,0.0,0.0,0.0,0.0,0.0,0.0,0.0,0.0,0.0,0.0,0.0,0.0,0.0,0.0,0.0,0.0,0.0,0.0,0.0,0.0,0.0,0.0,0.0,0.0,0.0,0.0,0.0,0.0,0.0,0.0,0.0,0.0,0.0,0.0,0.0,0.0,0.0,0.0,0.0,0.0,0.0,0.0,0.0,0.0,0.0,0.0,0.0,0.0,0.0,0.0,0.0,0.0,0.0,0.0,0.0,0.0,0.0,0.0,0.0,0.0,0.0,0.0,0.0,0.0,0.0,0.0,0.0,0.0,0.0,0.0,0.0,0.0,0.0,0.0,0.0,0.0,0.0,0.0,0.0,0.0,0.0,0.0,0.0,0.0,0.0,0.0,0.0,0.0,0.0,0.0,0.0,0.0,0.0,0.0,0.0,0.0,0.0,0.0,0.0,0.0,0.0,0.0,0.0,0.0,0.0,0.0,0.0,0.0,0.0,0.0,0.0,0.0,0.0,0.0,0.0,0.0,0.0,0.0,0.0,0.0,0.0,0.0,0.0,0.0,0.0,0.0,0.0,0.0,0.0,0.0,0.0,0.0,0.0,0.0,0.0,0.0,0.0,0.0,0.0,0.0,0.0,0.0,0.0,0.0,0.0,0.0,0.0,0.0,0.0,0.0,0.0,0.0,0.0,0.0,0.0,0.0,0.0,0.0,0.0,0.0,0.0,0.0,0.0,0.0,0.0,0.0,0.0,0.0,0.0,0.0,0.0,0.0,0.0,0.0,0.0,0.0,0.0,0.0,0.0,0.0,0.0,0.0,0.0,0.0,0.0,0.0,0.0,0.0,0.0,0.0,0.0,0.0,0.0,0.0,0.0,0.0,0.0,0.0,0.0,0.0,0.0,0.0,0.0,0.0,0.0,0.0,0.0,0.0,0.0,0.0,0.0,0.0,0.0,0.0,0.0,0.0,0.0,0.0,0.0,0.0,0.0,0.0,0.0,0.0,0.0,0.0,0.0,0.0,0.0,0.0,0.0,0.0,0.0,0.0,0.0,0.0,0.0,0.0,0.0,0.0,0.0,0.0,0.0,0.0,0.0,0.0,0.0,0.0,0.0,0.0,0.0,0.0,0.0,0.0,0.0,0.0,0.0,0.0,0.0,0.0,0.0,0.0,0.0,0.0,0.0,0.0,0.0,0.0,0.0,0.0,0.0,0.0,0.0,0.0,0.0,0.0,0.0,0.0,0.0,0.0,0.0,0.0,0.0,0.0,0.0,0.0,0.0,0.0,0.0,0.0,0.0,0.0,0.0,0.0,0.0,0.0,0.0,0.0,0.0,0.0,0.0,0.0,0.0,0.0,0.0,0.0,0.0,0.0,0.0,0.0,0.0,0.0,0.0,0.0,0.0,0.0,0.0,0.0,0.0,0.0,0.0,0.0,0.0,0.0,0.0,0.0,0.0,0.0,0.0,0.0,0.0,0.0,0.0,0.0,0.0,0.0,0.0,0.0,0.0,0.0,0.0,0.0,0.0,0.0,0.0,0.0,0.0,0.0,0.0,0.0,0.0,0.0,0.0,0.0,0.0,0.0,0.0,0.0,0.0,0.0,0.0,0.0,0.0,0.0,0.0,0.0,0.0,0.0,0.0,0.0,0.0,0.0,0.0,0.0,0.0,0.0,0.0,0.0,0.0,0.0,0.0,0.0,0.0,0.0,0.0,0.0,0.0,0.0,0.0,0.0,0.0,0.0,0.0,0.0,0.0,0.0,0.0,0.0,0.0,0.0,0.0,0.0,0.0,0.0,0.0,0.0,0.0,0.0,0.0,0.0,0.0,0.0,0.0,0.0,0.0,0.0,0.0,0.0,0.0,0.0,0.0,0.0,0.0,0.0,0.0,0.0,0.0,0.0,0.0,0.0,0.0,0.0,0.0,0.0,0.0,0.0,0.0,0.0,0.0,0.0,0.0,0.0,0.0,0.0,0.0,0.0,0.0,0.0,0.0,0.0,0.0,0.0,0.0,0.0,0.0,0.0,0.0,0.0,0.0,0.0,0.0,0.0,0.0,0.0,0.0,0.0,0.0,0.0,0.0,0.0,0.0,0.0,0.0,0.0,0.0,0.0,0.0,0.0,0.0,0.0,0.0,0.0,0.0,0.0,0.0,0.0,0.0,0.0,0.0,0.0,0.0,0.0,0.0,0.0,0.0,0.0,0.0,0.0,0.0,0.0,0.0,0.0,0.0,0.0,0.0,0.0,0.0,0.0,0.0,0.0,0.0,0.0,0.0,0.0,0.0,0.0,0.0,0.0,0.0,0.0,0.0,0.0,0.0,0.0,0.0,0.0,0.0,0.0,0.0,0.0,0.0,0.0,0.0,0.0,0.0,0.0,0.0,0.0,0.0,0.0,0.0,0.0,0.0,0.0,0.0,0.0,0.0,0.0,0.0,0.0,0.0,0.0,0.0,0.0,0.0,0.0,0.0,0.0,0.0,0.0,0.0,0.0,0.0,0.0,0.0,0.0,0.0,0.0,0.0,0.0,0.0,0.0,0.0,0.0,0.0,0.0,0.0,0.0,0.0,0.0,0.0,0.0,0.0,0.0,0.0,0.0,0.0,0.0,0.0,0.0,0.0,0.0,0.0,0.0,0.0,0.0,0.0,0.0,0.0,0.0,0.0,0.0,0.0,0.0,0.0,0.0,0.0,0.0,0.0,0.0,0.0,0.0,0.0,0.0,0.0,0.0,0.0,0.0,0.0,0.0,0.0,0.0,0.0,0.0,0.0,0.0,0.0,0.0,0.0,0.0,0.0,0.0,0.0,0.0,0.0,0.0,0.0,0.0,0.0,0.0,0.0,0.0,0.0,0.0,0.0,0.0,0.0,0.0,0.0,0.0,0.0,0.0,0.0,0.0,0.0,0.0,0.0,0.0,0.0,0.0,0.0,0.0,0.0,0.0,0.0,0.0,0.0,0.0,0.0,0.0,0.0,0.0,0.0,0.0,0.0,0.0,0.0,0.0,0.0,0.0,0.0,0.0,0.0,0.0,0.0,0.0,0.0,0.0,0.0,0.0,0.0,0.0,0.0,0.0,0.0,0.0,0.0,0.0,0.0,0.0,0.0,0.0,0.0,0.0,0.0,0.0,0.0,0.0,0.0,0.0,0.0,0.0,0.0,0.0,0.0,0.0,0.0,0.0,0.0,0.0,0.0,0.0,0.0,0.0,0.0,0.0,0.0,0.0,0.0,0.0,0.0,0.0,0.0,0.0,0.0,0.0,0.0,0.0,0.0,0.0,0.0,0.0,0.0,0.0,0.0,0.0,0.0,0.0,0.0,0.0,0.0,0.0,0.0,0.0,0.0,0.0,0.0,0.0,0.0,0.0,0.0,0.0,0.0,0.0,0.0,0.0,0.0,0.0,0.0,0.0,0.0,0.0,0.0,0.0,0.0,0.0,0.0,0.0,0.0,0.0,0.0,0.0,0.0,0.0,0.0,0.0,0.0,0.0,0.0,0.0,0.0,0.0,0.0,0.0,0.0,0.0,0.0,0.0,0.0,0.0,0.0,0.0,0.0,0.0,0.0,0.0,0.0,0.0,0.0,0.0,0.0,0.0,0.0,0.0,0.0,0.0,0.0,0.0,0.0,0.0,0.0,0.0,0.0,0.0,0.0,0.0,0.0,0.0,0.0,0.0,0.0,0.0,0.0,0.0,0.0,0.0,0.0,0.0,0.0,0.0,0.0,0.0,0.0,0.0,0.0,0.0,0.0,0.0,0.0,0.0,0.0,0.0,0.0,0.0,0.0,0.0,0.0,0.0,0.0,0.0,0.0,0.0,0.0,0.0,0.0,0.0,0.0,0.0,0.0,0.0,0.0,0.0,0.0,0.0,0.0,0.0,0.0,0.0,0.0,0.0,0.0,0.0,0.0,0.0,0.0,0.0,0.0,0.0,0.0,0.0,0.0,0.0,0.0,0.0,0.0,0.0,0.0,0.0,0.0,0.0,0.0,0.0,0.0,0.0,0.0,0.0,0.0,0.0,0.0,0.0,0.0,0.0,0.0,0.0,0.0,0.0,0.0,0.0,0.0,0.0,0.0,0.0,0.0,0.0,0.0,0.0,0.0,0.0,0.0,0.0,0.0,0.0,0.0,0.0,0.0,0.0,0.0,0.0,0.0,0.0,0.0,0.0,0.0,0.0,0.0,0.0,0.0,0.0,0.0,0.0,0.0,0.0,0.0,0.0,0.0,0.0,0.0,0.0,0.0,0.0,0.0,0.0,0.0,0.0,0.0,0.0,0.0,0.0,0.0,0.0,0.0,0.0,0.0,0.0,0.0,0.0,0.0,0.0,0.0,0.0,0.0,0.0,0.0,0.0,0.0,0.0,0.0,0.0,0.0,0.0,0.0,0.0,0.0,0.0,0.0,0.0,0.0,0.0,0.0,0.0,0.0,0.0,0.0,0.0,0.0,0.0,0.0,0.0,0.0,0.0,0.0,0.0,0.0,0.0,0.0,0.0,0.0,0.0,0.0,0.0,0.0,0.0,0.0,0.0,0.0,0.0,0.0,0.0,0.0,0.0,0.0,0.0,0.0,0.0,0.0,0.0,0.0,0.0,0.0,0.0,0.0,0.0,0.0,0.0,0.0,0.0,0.0,0.0,0.0,0.0,0.0,0.0,0.0,0.0,0.0,0.0,0.0,0.0,0.0,0.0,0.0,0.0,0.0,0.0,0.0,0.0,0.0,0.0,0.0,0.0,0.0,0.0,0.0,0.0,0.0,0.0,0.0,0.0,0.0,0.0,0.0,0.0,0.0,0.0,0.0,0.0,0.0,0.0,0.0,0.0,0.0,0.0,0.0,0.0,0.0,0.0,0.0,0.0,0.0,0.0,0.0,0.0,0.0,0.0,0.0,0.0,0.0,0.0,0.0,0.0,0.0,0.0,0.0,0.0,0.0,0.0,0.0,0.0,0.0,0.0,0.0,0.0,0.0,0.0,0.0,0.0,0.0,0.0,0.0,0.0,0.0,0.0,0.0,0.0,0.0,0.0,0.0,0.0,0.0,0.0,0.0,0.0,0.0,0.0,0.0,0.0,0.0,0.0,-2.9998,-3.0388,0.0,0.0,0.0,0.0,0.0,0.0,0.0,0.0,0.0,0.0,0.0,0.0,0.0,0.0,0.0,0.0,0.0,0.0,0.0,0.0,0.0,0.0,0.0,0.0,0.0,0.0,0.0,0.0,0.0,0.0,0.0,0.0,0.0,0.0,-2.9235,-2.9235,-2.9246,-2.9241,-2.9056,-2.8769,-2.8415,-2.9,-2.9373,-2.9584,0.0,0.0,0.0,0.0,0.0,0.0,0.0,0.0,0.0,0.0,0.0,0.0,0.0,0.0,0.0,0.0,0.0,0.0,0.0,0.0,0.0,0.0,0.0,0.0,0.0,0.0,0.0,0.0,0.0,0.0,0.0,0.0,0.0,0.0,0.0,0.0,0.0,0.0,0.0,0.0,0.0,0.0,0.0,0.0,0.0,0.0,0.0,0.0,0.0,0.0,0.0,0.0,0.0,0.0,0.0,0.0,0.0,0.0,0.0,0.0,0.0,0.0,0.0,0.0,0.0,0.0,0.0,0.0,0.0,0.0,-2.9605,-2.9957,0.0,0.0,0.0,0.0,0.0,0.0,0.0,0.0,0.0,0.0,0.0,0.0,0.0,0.0,0.0,0.0,0.0,0.0,0.0,0.0,0.0,0.0,0.0,-3.0294,-3.0122,-2.9902,-2.9847,-2.9662,-2.9334,-2.9373,-2.9343,-2.9198,-2.9241,-2.9293,-2.9382,-2.9372,-2.9301,-2.9158,-2.8699,-2.8283,-2.7933,-2.825,-2.8549,-2.8835,-2.9545,0.0,0.0,0.0,0.0,0.0,0.0,0.0,0.0,0.0,0.0,0.0,0.0,0.0,0.0,0.0,0.0,0.0,0.0,0.0,0.0,0.0,0.0,0.0,0.0,0.0,0.0,0.0,0.0,0.0,0.0,0.0,0.0,0.0,0.0,0.0,0.0,0.0,0.0,0.0,0.0,0.0,0.0,0.0,0.0,0.0,0.0,0.0,0.0,0.0,0.0,0.0,0.0,0.0,0.0,0.0,0.0,0.0,0.0,0.0,0.0,0.0,0.0,0.0,-2.8941,-2.8918,-2.8929,-2.8929,-2.8883,-2.8802,-2.9169,-2.9411,-2.9535,-2.9904,0.0,0.0,0.0,0.0,0.0,0.0,0.0,0.0,0.0,0.0,0.0,0.0,0.0,0.0,0.0,0.0,0.0,0.0,0.0,0.0,0.0,-3.0126,-2.9858,-2.9818,-2.9607,-2.9434,-2.9402,-2.9453,-2.9373,-2.9126,-2.9126,-2.9056,-2.8905,-2.8839,-2.8633,-2.8272,-2.7519,-2.7173,-2.7241,-2.7525,-2.7791,-2.8085,-2.8923,-2.952,-2.9886,0.0,0.0,0.0,0.0,0.0,0.0,0.0,0.0,0.0,0.0,0.0,0.0,0.0,0.0,0.0,0.0,0.0,0.0,0.0,0.0,0.0,0.0,0.0,0.0,0.0,0.0,0.0,0.0,0.0,0.0,0.0,0.0,0.0,0.0,0.0,0.0,0.0,0.0,0.0,0.0,0.0,-2.8152,-2.8139,0.0,0.0,0.0,0.0,0.0,0.0,0.0,0.0,0.0,0.0,0.0,0.0,0.0,-2.8366,-2.8657,-2.826,-2.827,-2.8652,-2.8313,-2.8201,-2.8313,-2.8313,-2.8313,-2.83,-2.8538,0.0,-2.9175,-2.942,0.0,0.0,0.0,0.0,0.0,0.0,0.0,0.0,0.0,0.0,0.0,0.0,0.0,0.0,0.0,0.0,0.0,0.0,0.0,0.0,0.0,-2.9747,-2.9448,-2.9247,-2.8964,-2.8734,-2.8621,-2.89,-2.8952,-2.8712,-2.892,-2.9003,-2.8905,-2.8663,-2.8224,-2.7587,-2.721,-2.6702,-2.6099,-2.6399,-2.6387,-2.6147,-2.7338,-2.8574,-2.9818,-2.9964,0.0,0.0,0.0,0.0,0.0,0.0,0.0,0.0,0.0,0.0,0.0,0.0,0.0,0.0,0.0,0.0,0.0,0.0,0.0,0.0,0.0,0.0,0.0,0.0,0.0,0.0,0.0,0.0,0.0,0.0,0.0,0.0,0.0,0.0,0.0,0.0,0.0,0.0,0.0,-2.7991,-2.7857,-2.7328,-2.7543,-2.7755,0.0,0.0,0.0,0.0,0.0,0.0,0.0,0.0,0.0,-2.7659,-2.7601,-2.763,-2.7699,-2.7502,-2.7475,-2.7637,-2.747,-2.7411,-2.7472,-2.7472,-2.7592,-2.7797,-2.7894,-2.8179,-2.8615,-2.896,-2.9221,-2.9382,0.0,0.0,0.0,0.0,-2.9973,-3.0027,0.0,0.0,0.0,0.0,0.0,0.0,0.0,0.0,0.0,0.0,0.0,0.0,-2.9742,-2.9345,-2.8966,-2.8638,-2.824,-2.8009,-2.7976,-2.8296,-2.8455,-2.8446,-2.8737,-2.8893,-2.8893,-2.8298,-2.7607,-2.6888,-2.6571,-2.6,-2.523,-2.5387,-2.5259,-2.4925,-2.6063,-2.756,-2.925,-2.966,-3.0041,-3.0374,0.0,0.0,0.0,0.0,0.0,0.0,0.0,0.0,0.0,0.0,0.0,0.0,0.0,0.0,0.0,0.0,0.0,0.0,0.0,0.0,0.0,0.0,0.0,0.0,0.0,0.0,0.0,0.0,0.0,0.0,0.0,0.0,0.0,0.0,0.0,0.0,0.0,-2.7435,-2.7299,-2.6624,-2.6937,-2.7161,0.0,0.0,0.0,0.0,0.0,0.0,-2.6966,-2.7017,-2.7035,-2.6937,-2.689,-2.6873,-2.6856,-2.6856,-2.6855,-2.6888,-2.6888,-2.6888,-2.6888,-2.6888,-2.708,-2.7374,-2.7374,-2.7651,-2.8109,-2.8602,-2.8854,-2.8964,-2.9101,-2.9279,-2.9478,-2.9497,-2.9601,-2.9693,0.0,0.0,0.0,0.0,0.0,0.0,0.0,0.0,0.0,0.0,0.0,-2.9794,-2.9456,-2.8899,-2.8445,-2.8151,-2.7613,-2.7442,-2.7865,-2.7871,-2.8076,-2.8576,-2.8601,-2.8614,-2.8614,-2.7412,-2.6539,-2.6057,-2.5054,-2.471,-2.501,-2.4702,-2.4864,-2.5374,-2.5704,-2.6543,-2.7797,-2.8939,-2.9775,-3.0323,-3.0512,0.0,0.0,0.0,0.0,0.0,0.0,0.0,0.0,0.0,0.0,0.0,0.0,0.0,0.0,0.0,0.0,0.0,0.0,0.0,0.0,0.0,0.0,0.0,0.0,0.0,0.0,0.0,0.0,0.0,0.0,0.0,0.0,0.0,0.0,0.0,0.0,0.0,0.0,-2.6314,-2.6556,0.0,0.0,0.0,0.0,-2.5729,-2.6045,-2.6113,-2.5809,-2.6194,-2.6296,-2.599,-2.5972,-2.6118,-2.6435,-2.6435,-2.659,-2.6888,-2.6888,-2.6888,-2.6888,-2.6888,-2.6936,-2.7033,-2.7033,-2.7286,-2.7774,-2.8304,-2.8531,-2.8551,-2.8872,-2.8948,-2.8862,-2.8986,-2.9001,-2.8972,0.0,0.0,0.0,0.0,0.0,0.0,0.0,0.0,-3.0392,-3.0263,-2.9848,-2.9428,-2.9055,-2.8402,-2.783,-2.7445,-2.7191,-2.7068,-2.7052,-2.7437,-2.7759,-2.7946,-2.817,-2.8029,-2.7442,-2.6655,-2.6057,-2.5674,-2.4863,-2.4416,-2.4265,-2.3729,-2.3534,-2.3701,-2.4483,-2.5237,-2.6042,-2.7814,-2.9108,-2.9995,-3.0293,-3.0513,0.0,0.0,0.0,0.0,0.0,0.0,0.0,0.0,0.0,0.0,0.0,0.0,0.0,0.0,0.0,0.0,0.0,0.0,0.0,0.0,0.0,0.0,0.0,0.0,0.0,0.0,0.0,0.0,0.0,0.0,0.0,0.0,0.0,0.0,0.0,0.0,0.0,-2.5481,-2.5484,0.0,-2.515,-2.5249,-2.5214,-2.4964,-2.5096,-2.5246,-2.5373,-2.554,-2.5719,-2.5881,-2.5897,-2.5917,-2.5957,-2.5957,-2.5834,-2.5619,-2.5924,-2.5906,-2.5619,-2.5924,-2.6262,-2.6607,-2.6607,-2.6889,-2.74,-2.758,-2.7918,-2.8313,-2.844,-2.8543,-2.8619,-2.8663,-2.8761,-2.885,0.0,0.0,0.0,0.0,0.0,0.0,0.0,0.0,-3.0177,-2.9923,-2.9501,-2.8973,-2.8393,-2.7805,-2.7265,-2.6774,-2.6607,-2.6538,-2.6521,-2.6922,-2.7238,-2.7389,-2.7395,-2.691,-2.5869,-2.5519,-2.5138,-2.4772,-2.3866,-2.3392,-2.3349,-2.2557,-2.2315,-2.2579,-2.3424,-2.421,-2.501,-2.6497,-2.8007,-2.9433,-2.9979,-3.0177,-3.0179,0.0,0.0,0.0,0.0,0.0,0.0,0.0,0.0,0.0,0.0,0.0,0.0,0.0,0.0,0.0,0.0,0.0,0.0,0.0,0.0,0.0,0.0,0.0,0.0,0.0,0.0,0.0,0.0,0.0,0.0,0.0,0.0,0.0,0.0,-2.588,-2.5584,-2.5005,-2.4922,-2.4788,-2.4527,-2.4507,-2.4405,-2.4173,-2.4313,-2.4517,-2.4779,-2.4918,-2.5114,-2.5397,-2.54,-2.5362,-2.5269,-2.525,-2.5056,-2.4724,-2.5029,-2.4989,-2.4699,-2.5048,-2.5495,-2.6013,-2.6031,-2.6436,-2.7037,-2.7037,-2.7353,-2.7864,-2.7996,-2.8105,-2.8237,-2.8349,-2.8479,-2.8594,0.0,0.0,0.0,0.0,0.0,0.0,0.0,-3.0085,-2.9885,-2.9538,-2.9076,-2.8427,-2.7496,-2.7156,-2.6774,-2.6225,-2.5846,-2.5848,-2.6366,-2.6351,-2.6506,-2.6936,-2.6303,-2.5332,-2.4039,-2.3992,-2.3749,-2.3297,-2.1969,-2.1644,-2.2284,-2.1261,-2.1289,-2.2206,-2.2598,-2.3449,-2.4649,-2.5016,-2.6442,-2.8578,-2.9568,-2.9652,-2.9298,0.0,0.0,0.0,0.0,0.0,0.0,0.0,0.0,0.0,0.0,0.0,0.0,0.0,0.0,0.0,0.0,0.0,0.0,0.0,0.0,0.0,0.0,0.0,0.0,0.0,0.0,0.0,0.0,0.0,0.0,0.0,0.0,0.0,-2.5163,-2.5067,-2.4969,-2.495,-2.4906,-2.4643,-2.4141,-2.4063,-2.3867,-2.3341,-2.3711,-2.3982,-2.4003,-2.4364,-2.4528,-2.4415,-2.4415,-2.4415,-2.4415,-2.4328,-2.4328,-2.4374,-2.4343,-2.4302,-2.4281,-2.4369,-2.4699,-2.5192,-2.5323,-2.5885,-2.6657,-2.6657,-2.6874,-2.7197,-2.7552,-2.7669,-2.773,-2.8053,-2.8186,-2.82,0.0,0.0,0.0,0.0,0.0,0.0,0.0,-3.0166,-2.9904,-2.9411,-2.8861,-2.8221,-2.742,-2.7002,-2.659,-2.61,-2.6119,-2.619,-2.6242,-2.6332,-2.6247,-2.6003,-2.5054,-2.4382,-2.4013,-2.3679,-2.3421,-2.3297,-2.1969,-2.1644,-2.2266,-2.1035,-2.0943,-2.1842,-2.196,-2.2474,-2.33,-2.4026,-2.5032,-2.6312,-2.8327,-2.8957,-2.8809,0.0,0.0,0.0,0.0,0.0,0.0,0.0,0.0,0.0,0.0,0.0,0.0,0.0,0.0,0.0,0.0,0.0,0.0,0.0,0.0,0.0,0.0,0.0,0.0,0.0,0.0,0.0,0.0,0.0,0.0,0.0,-2.4851,-2.4688,-2.4632,-2.4542,-2.4374,-2.4027,-2.3964,-2.3873,-2.3689,-2.3668,-2.356,-2.3319,-2.3429,-2.3646,-2.3982,-2.4109,-2.4281,-2.4549,-2.4549,-2.4549,-2.4549,-2.4528,-2.4343,-2.3973,-2.4328,-2.4307,-2.3946,-2.4349,-2.4675,-2.4899,-2.4954,-2.5291,-2.5835,-2.5835,-2.6085,-2.6521,-2.7117,-2.7338,-2.7353,-2.743,-2.7627,-2.7879,0.0,0.0,0.0,0.0,0.0,0.0,0.0,-3.0085,-2.9727,-2.9172,-2.8644,-2.7962,-2.7018,-2.6708,-2.6366,-2.5881,-2.5974,-2.6046,-2.5992,-2.585,-2.5414,-2.4634,-2.3971,-2.3513,-2.3238,-2.2724,-2.2364,-2.2171,-2.089,-2.0506,-2.0981,-2.01,-2.0135,-2.0959,-2.1241,-2.1639,-2.2172,-2.3022,-2.3691,-2.4365,-2.6367,-2.7253,-2.7536,-2.8587,-2.8663,-2.831,-2.9076,-2.9291,-2.9268,-2.9649,0.0,0.0,0.0,0.0,0.0,0.0,0.0,0.0,0.0,0.0,0.0,0.0,0.0,0.0,0.0,0.0,0.0,0.0,0.0,0.0,0.0,0.0,0.0,0.0,-2.4441,-2.4214,-2.4074,-2.4042,-2.3909,-2.3638,-2.3595,-2.3573,-2.356,-2.3538,-2.3516,-2.3436,-2.3436,-2.3545,-2.3818,-2.3839,-2.3925,-2.4135,-2.4135,-2.4135,-2.4135,-2.4078,-2.3946,-2.3689,-2.3931,-2.3888,-2.3603,-2.3967,-2.4266,-2.4513,-2.4574,-2.4839,-2.5256,-2.5427,-2.5666,-2.5992,0.0,0.0,0.0,0.0,-2.7322,-2.7522,0.0,0.0,0.0,0.0,0.0,0.0,0.0,-2.9981,-2.9513,-2.8934,-2.8476,-2.7773,-2.6641,-2.647,-2.6226,-2.5694,-2.5675,-2.5677,-2.5663,-2.5118,-2.4287,-2.3135,-2.2979,-2.2589,-2.1955,-2.1401,-2.0863,-2.0355,-1.9192,-1.8779,-1.9038,-1.8722,-1.9012,-1.9796,-2.0386,-2.0845,-2.1199,-2.1922,-2.2388,-2.2793,-2.4046,-2.5022,-2.5862,-2.6805,-2.6645,-2.6114,-2.7711,-2.8225,-2.8221,-2.8865,0.0,0.0,0.0,0.0,0.0,0.0,0.0,0.0,0.0,0.0,0.0,0.0,0.0,0.0,0.0,0.0,0.0,0.0,0.0,0.0,0.0,0.0,0.0,0.0,-2.4105,-2.3739,-2.3616,-2.3595,-2.3595,-2.3595,-2.3595,-2.3595,-2.3595,-2.3595,-2.3595,-2.3595,-2.3595,-2.3595,-2.3595,-2.3595,0.0,0.0,0.0,-2.3509,-2.3509,-2.3385,-2.3385,-2.3509,-2.3385,-2.3341,-2.3319,-2.3451,-2.3711,-2.4057,-2.4177,-2.4451,-2.4863,-2.5218,-2.5379,-2.5464,-2.6316,-2.6641,-2.6674,-2.7021,-2.7149,-2.7149,0.0,0.0,0.0,0.0,0.0,0.0,0.0,-3.0122,-2.9693,-2.9268,-2.865,-2.7984,-2.7208,-2.6873,-2.6521,-2.5956,-2.6118,-2.5977,-2.5351,-2.4601,-2.3676,-2.2523,-2.2002,-2.1274,-2.029,-2.0146,-1.964,-1.8748,-1.801,-1.7808,-1.8069,-1.7518,-1.7865,-1.8954,-1.9055,-1.9531,-2.0246,-2.042,-2.1053,-2.1938,-2.2203,-2.3352,-2.4968,-2.6015,-2.6198,-2.5957,-2.6309,-2.6406,-2.651,-2.7394,-2.7609,-2.7647,-2.8336,0.0,0.0,0.0,0.0,0.0,0.0,0.0,0.0,0.0,0.0,0.0,0.0,0.0,0.0,0.0,0.0,0.0,0.0,0.0,0.0,-2.4036,-2.3867,-2.3739,-2.3616,-2.3595,-2.3595,-2.3595,-2.3595,-2.3595,-2.3595,-2.3595,-2.3595,-2.3595,-2.3595,-2.3595,-2.3595,-2.3595,-2.3595,-2.3588,-2.3588,-2.3588,-2.3588,-2.3551,-2.3523,-2.3509,-2.3523,0.0,-2.3451,-2.3545,-2.3616,-2.3702,-2.3724,-2.3979,-2.4426,-2.4492,-2.4586,-2.4796,-2.5884,-2.631,-2.6329,-2.6674,-2.6791,-2.6841,0.0,0.0,0.0,0.0,0.0,0.0,0.0,-3.0239,-2.989,-2.942,-2.8964,-2.8406,-2.7625,-2.7346,-2.7017,-2.659,-2.6299,-2.5821,-2.5038,-2.4399,-2.3578,-2.2552,-2.2212,-2.1618,-2.0604,-2.0022,-1.9206,-1.8215,-1.7303,-1.693,-1.7046,-1.6745,-1.7065,-1.787,-1.8313,-1.8584,-1.8807,-1.9499,-2.0124,-2.0623,-2.0894,-2.1688,-2.2867,-2.4005,-2.439,-2.4373,-2.4787,-2.5245,-2.5745,-2.6348,-2.6841,-2.7222,-2.7391,-2.7472,-2.751,0.0,0.0,0.0,0.0,0.0,0.0,0.0,0.0,0.0,0.0,0.0,0.0,0.0,0.0,-2.4505,-2.3785,0.0,-2.3442,-2.3098,-2.3054,-2.3009,-2.286,-2.2838,-2.2965,-2.3224,-2.3465,-2.3508,-2.3268,-2.3465,-2.3595,-2.3595,-2.3595,-2.3595,-2.3595,-2.3595,-2.3595,-2.3595,-2.3595,-2.3595,-2.3595,-2.3595,-2.3573,-2.356,-2.3573,-2.3588,-2.356,-2.3573,-2.3595,-2.3595,-2.3595,-2.3724,-2.3943,-2.3836,-2.3775,-2.3787,-2.4565,-2.4956,-2.5127,-2.5297,-2.5346,-2.5363,0.0,0.0,0.0,0.0,0.0,0.0,0.0,-3.0346,-3.0036,-2.9599,-2.9315,-2.8876,-2.8116,-2.7893,-2.7666,-2.737,-2.6572,-2.5791,-2.5093,-2.4541,-2.3743,-2.2657,-2.2466,-2.1974,-2.1126,-1.9911,-1.8865,-1.7965,-1.6788,-1.6207,-1.6207,-1.6207,-1.6495,-1.7086,-1.7934,-1.8047,-1.7708,-1.8954,-1.9445,-1.9424,-1.9934,-2.0389,-2.0879,-2.184,-2.2329,-2.2569,-2.3398,-2.4226,-2.5018,-2.5436,-2.617,-2.6862,-2.6522,-2.647,-2.6556,-2.6691,-2.6708,0.0,0.0,0.0,0.0,0.0,0.0,0.0,0.0,0.0,-2.5303,-2.4184,-2.392,-2.3618,-2.2725,-2.2558,-2.2535,-2.236,-2.2397,-2.2397,-2.2267,-2.2244,-2.236,-2.264,-2.3054,-2.3165,-2.2785,-2.3098,-2.3297,-2.3297,-2.3297,-2.3341,-2.3465,-2.3465,-2.3508,-2.3595,-2.3595,-2.3595,-2.3595,-2.3508,-2.3465,-2.3465,-2.3465,-2.3465,-2.3465,-2.3551,-2.3595,-2.3595,-2.3595,-2.3535,-2.3392,-2.3107,-2.2812,-2.2598,-2.2784,-2.3076,-2.3424,-2.3852,-2.4,-2.4,0.0,0.0,0.0,0.0,0.0,0.0,0.0,0.0,-3.0175,-3.0113,-2.9685,-2.9236,-2.8887,-2.8645,-2.8406,-2.817,-2.7317,-2.6554,-2.5979,-2.5191,-2.4009,-2.2409,-2.1594,-2.0813,-1.9996,-1.8853,-1.8039,-1.7557,-1.6425,-1.5858,-1.5858,-1.5858,-1.6341,-1.7206,-1.7951,-1.8205,-1.807,-1.8767,-1.9021,-1.8995,-1.9413,-1.9861,-2.0296,-2.0433,-2.0959,-2.1721,-2.2354,-2.2918,-2.3496,-2.4414,-2.5095,-2.5631,-2.6217,-2.6175,-2.6017,-2.6607,0.0,-2.6124,-2.6938,-2.6421,-2.5484,-2.4823,-2.4435,-2.4116,0.0,0.0,-2.3794,-2.3465,-2.329,-2.3098,-2.274,-2.2777,-2.2777,-2.2512,-2.2672,-2.2822,-2.2822,-2.2822,-2.2595,-2.1983,-2.2119,-2.2244,-2.2198,-2.2244,-2.2267,-2.2267,-2.2267,-2.2475,-2.2957,-2.2979,-2.3179,-2.3588,-2.3595,-2.3595,-2.3595,-2.3201,-2.2979,-2.2979,-2.2979,-2.2979,-2.3001,-2.3399,-2.3595,-2.3595,-2.3595,-2.3295,-2.2748,-2.2129,-2.169,-2.1342,-2.0775,-2.0815,-2.1389,-2.3293,-2.4,-2.4,0.0,0.0,0.0,0.0,0.0,0.0,0.0,0.0,0.0,-3.0335,-3.0043,-2.9783,-2.9544,-2.9187,-2.8849,-2.8621,-2.7695,-2.6992,-2.6652,-2.5702,-2.4571,-2.3233,-2.2452,-2.1463,-2.0185,-1.8881,-1.7855,-1.7097,-1.6039,-1.5345,-1.5055,-1.5055,-1.5252,-1.5683,-1.6877,-1.7228,-1.6954,-1.8395,-1.882,-1.8602,-1.9029,-1.9339,-1.9632,-2.0207,-2.0668,-2.1039,-2.1627,-2.2695,0.0,0.0,-2.4581,-2.5386,-2.5233,-2.5082,-2.5086,-2.5649,-2.5684,0.0,-2.5801,-2.5341,0.0,0.0,-2.3991,-2.3831,-2.3545,-2.3545,-2.3421,-2.2844,-2.2672,-2.2489,-2.2039,-2.1992,-2.1992,0.0,-2.1827,-2.1803,-2.1803,-2.1684,-2.1506,-2.1204,-2.124,-2.1396,-2.166,-2.1955,-2.2105,-2.2105,-2.2105,-2.2198,-2.242,-2.2443,-2.2521,-2.2725,-2.2725,-2.2725,-2.2725,-2.2521,-2.2443,-2.2443,-2.2443,-2.2603,-2.2912,-2.3091,-2.3334,-2.3595,-2.3595,-2.3026,-2.2104,-2.1814,-2.1166,-2.0321,-2.0229,-2.0294,-2.0591,-2.1711,-2.2134,-2.2167,0.0,0.0,0.0,0.0,0.0,0.0,0.0,0.0,0.0,0.0,-3.0376,-3.02,-2.998,-2.9635,-2.9344,-2.9122,-2.8303,-2.766,-2.732,-2.6387,-2.534,-2.4227,-2.3499,-2.2425,-2.0953,-1.9622,-1.8459,-1.746,-1.6432,-1.5698,-1.5335,-1.5096,-1.5221,-1.5705,-1.6818,-1.7202,-1.7114,-1.8741,-1.9162,-1.8765,-1.945,-1.9738,-1.9894,-2.0798,-2.1269,-2.1474,-2.1675,-2.2783,-2.4082,-2.3689,-2.4316,-2.5157,-2.4574,-2.4328,-2.439,-2.4875,-2.5072,-2.5088,-2.4799,0.0,0.0,-2.373,-2.3543,-2.3384,-2.3246,-2.3224,-2.3031,-2.2397,-2.2258,-2.2133,-2.1602,-2.1568,-2.1568,-2.1423,-2.1302,-2.118,-2.1106,-2.0997,-2.0873,-2.0799,-2.0774,-2.0898,-2.118,-2.1516,-2.1718,-2.1718,-2.1718,-2.1766,-2.1908,-2.1908,-2.1978,-2.2105,-2.2105,-2.2105,-2.2105,-2.1978,-2.1908,-2.1908,-2.1908,-2.2119,-2.2503,-2.2603,-2.2852,-2.3172,-2.3141,-2.2509,-2.1485,-2.1441,-2.0737,-1.9711,-1.9962,-2.0052,-2.0102,-2.0393,-2.0628,-2.0827,0.0,0.0,0.0,0.0,0.0,0.0,0.0,0.0,0.0,0.0,0.0,0.0,0.0,-3.0018,-2.9946,-2.9867,-2.9353,-2.8775,-2.8106,-2.7362,-2.6421,-2.5211,-2.4344,-2.3355,-2.2271,-2.1124,-2.0066,-1.9135,-1.7984,-1.7424,-1.7376,-1.653,-1.7025,-1.8572,-1.8542,-1.8925,-1.9631,-2.0283,-2.024,-1.9871,-2.1044,-2.1514,-2.161,-2.2285,-2.2942,-2.3425,-2.2874,-2.2985,-2.3482,-2.387,-2.4266,-2.463,-2.4609,-2.4323,0.0,-2.4655,-2.4764,-2.4668,-2.439,0.0,-2.3363,-2.3091,-2.2626,-2.224,-2.224,-2.224,-2.2217,-2.2208,-2.2194,-2.2114,-2.1841,-2.1996,-2.202,-2.1496,-2.1616,-2.1688,-2.1423,-2.1375,-2.1277,-2.1008,-2.0997,-2.0923,-2.0724,-2.0724,-2.0749,-2.0749,-2.0749,-2.0947,-2.1399,-2.1423,-2.1612,-2.2081,-2.2105,-2.2105,-2.2105,-2.1636,-2.1423,-2.1423,-2.1423,-2.1423,-2.1458,-2.1931,-2.2128,-2.2146,-2.2002,-2.1555,-2.0903,-2.0779,-2.0318,-1.9708,-1.9711,-1.9726,-1.9726,-1.9744,-2.0187,-2.0794,0.0,0.0,0.0,0.0,0.0,0.0,0.0,0.0,0.0,0.0,0.0,0.0,0.0,0.0,0.0,0.0,-2.9622,-2.9184,-2.8791,-2.8035,-2.714,-2.6096,-2.5061,-2.3981,-2.2861,-2.136,-2.026,-1.9603,-1.8577,-1.8077,-1.8016,-1.7745,-1.7886,-1.8461,-1.9112,-1.953,-1.9888,-2.1646,-2.2161,-2.1904,-2.3054,-2.3226,-2.2879,-2.3642,-2.3788,-2.3666,0.0,-2.4316,-2.4235,-2.4106,-2.4162,-2.4204,-2.3846,-2.3711,-2.3769,-2.4204,-2.4256,-2.4095,-2.3788,0.0,-2.2814,-2.2526,-2.2333,-2.2208,-2.2208,-2.2208,-2.2208,-2.2208,-2.2208,-2.2184,-2.2091,-2.1996,-2.1864,-2.1688,-2.1447,-2.1302,-2.1399,-2.1253,-2.118,-2.1253,-2.1277,0.0,-2.118,-2.0873,-2.0699,-2.0699,-2.0699,-2.0774,-2.0923,-2.0947,-2.1008,-2.1166,-2.1166,-2.1166,-2.1166,-2.1008,-2.0947,-2.0947,-2.1253,-2.1399,-2.1423,-2.1884,-2.2105,-2.2077,-2.1684,-2.1269,-2.0862,-2.0479,-2.0064,-1.9708,-1.9708,-1.9708,-1.9708,-1.9708,-1.9854,-2.01,0.0,0.0,0.0,0.0,0.0,0.0,0.0,0.0,0.0,0.0,0.0,0.0,0.0,0.0,0.0,0.0,0.0,0.0,-2.9345,-2.879,-2.8046,-2.7112,-2.632,-2.5309,-2.4017,-2.2751,-2.1665,-2.0756,-1.9848,-1.9395,-1.9398,-1.9017,-1.9203,-1.985,-2.0489,-2.1083,-2.1735,-2.341,-2.4068,-2.4069,-2.505,-2.5133,-2.4737,-2.5523,-2.548,0.0,-2.5773,-2.5648,-2.5073,-2.4547,-2.4292,-2.4099,-2.3775,-2.3581,-2.3494,-2.3573,-2.3457,-2.3223,-2.2733,-2.236,-2.2077,-2.1949,-2.1949,-2.202,-2.2184,-2.2208,-2.2208,-2.2208,-2.2208,-2.2208,-2.2208,-2.2067,-2.1926,-2.1817,-2.152,-2.1302,-2.1399,-2.1253,-2.1204,-2.1375,-2.1399,-2.1399,0.0,0.0,-2.0947,-2.0947,-2.0947,-2.0947,-2.0947,-2.0947,-2.0947,-2.0947,-2.0848,-2.0799,-2.0799,-2.0724,-2.0699,-2.0699,-2.1021,-2.1155,-2.1155,-2.1468,-2.1489,-2.1256,-2.0844,-2.0555,-2.029,-1.9913,-1.9729,-1.9708,-1.9708,-1.9708,-1.9708,-1.9708,-1.9708,-1.9744,0.0,0.0,0.0,0.0,0.0,0.0,0.0,0.0,0.0,0.0,0.0,0.0,0.0,0.0,0.0,0.0,0.0,0.0,-2.9777,-2.9616,-2.9139,-2.8221,-2.8047,-2.7246,-2.5775,-2.5195,-2.4191,-2.2734,-2.1869,-2.1535,-2.1654,-2.0633,-2.1104,-2.2817,-2.2751,-2.3577,-2.5046,-2.5541,-2.5932,-2.6293,-2.704,-2.7203,-2.7091,-2.7807,-2.7829,-2.7522,-2.7539,-2.69,-2.595,-2.5182,-2.4619,-2.424,-2.4219,-2.3861,-2.3341,-2.2822,-2.2489,-2.2105,-2.1417,-2.1213,-2.1213,-2.1337,-2.1458,-2.165,-2.2067,-2.2161,-2.2184,-2.2184,-2.2208,-2.2208,0.0,0.0,-2.2114,-2.1841,-2.1793,-2.1712,-2.1447,-2.1423,-2.1423,0.0,0.0,0.0,0.0,0.0,-2.1447,-2.1447,-2.1423,-2.1399,-2.1399,-2.1399,-2.1399,-2.1399,-2.1155,-2.1008,-2.1008,-2.0823,-2.0724,-2.0724,-2.0724,-2.0724,-2.0724,-2.0699,-2.0373,-1.9821,-1.9645,-1.9445,-1.9251,-1.9118,-1.9306,-1.9672,-1.969,-1.9708,-1.9708,-1.9708,-1.9708,-1.9708,0.0,0.0,0.0,0.0,0.0,0.0,0.0,0.0,0.0,0.0,0.0,0.0,0.0,0.0,0.0,0.0,0.0,0.0,-3.0235,-3.0042,-2.9755,-2.9307,-2.8913,-2.8349,-2.755,-2.6819,-2.6222,-2.5776,-2.5157,-2.5048,-2.5413,-2.5137,-2.5261,-2.5732,-2.583,-2.6069,-2.653,-2.7396,-2.7846,-2.8028,-2.8772,-2.8875,-2.8633,-2.8875,-2.8532,-2.796,-2.7946,0.0,0.0,0.0,0.0,0.0,0.0,-2.2875,-2.2694,-2.2466,-2.2035,-2.1657,-2.1756,-2.1444,-2.1042,-2.0981,-2.0981,-2.1104,-2.1506,-2.1616,-2.1722,-2.2114,-2.2208,-2.2208,0.0,0.0,0.0,-2.1793,-2.164,0.0,-2.1688,-2.1712,0.0,-2.1973,0.0,-2.1996,-2.1996,-2.1996,0.0,-2.1996,-2.164,-2.1399,-2.1399,-2.1399,-2.1399,-2.1399,-2.1326,-2.1302,-2.1302,-2.1253,-2.1229,-2.1229,-2.1008,-2.1033,-2.1204,-2.0848,-2.0483,-2.0069,-1.938,-1.8994,-1.8837,-1.8694,-1.8898,-1.9288,-1.9581,-1.9708,-1.9708,-1.9708,-1.9708,-1.9708,0.0,0.0,0.0,0.0,0.0,0.0,0.0,0.0,0.0,0.0,0.0,0.0,0.0,0.0,0.0,0.0,0.0,0.0,0.0,-3.0439,-3.0259,-3.0025,-2.9634,-2.9266,-2.8901,-2.8241,-2.7871,-2.7827,-2.7146,-2.694,-2.7246,-2.7167,-2.7169,-2.7197,-2.7615,-2.7884,-2.8102,-2.877,-2.9208,0.0,0.0,-2.9907,-2.9683,-2.9665,-2.9305,0.0,0.0,0.0,0.0,0.0,0.0,-2.39,-2.3179,-2.2859,-2.27,-2.2397,0.0,-2.1756,-2.166,-2.1407,-2.1164,-2.1153,-2.1202,-2.1323,-2.1674,-2.1793,-2.1926,-2.2161,-2.2254,0.0,-2.2208,-2.2091,0.0,0.0,0.0,0.0,-2.1949,-2.1996,-2.2044,0.0,-2.2208,0.0,-2.2208,-2.2208,-2.2208,-2.2208,-2.1926,-2.1746,-2.1746,-2.1746,-2.1746,-2.1746,-2.164,-2.152,-2.1399,-2.1399,-2.1399,-2.1399,-2.1253,-2.1253,-2.1399,-2.1131,-2.0628,-1.9902,-1.943,-1.8935,-1.8481,-1.8596,-1.8822,-1.9139,-1.953,-1.9708,-1.9708,-1.9708,-1.9708,-1.9708,0.0,0.0,0.0,0.0,0.0,0.0,0.0,0.0,0.0,0.0,0.0,0.0,0.0,0.0,0.0,0.0,0.0,0.0,0.0,0.0,0.0,-3.0462,-3.0231,-3.0056,-2.9916,-2.9455,-2.9232,-2.9239,-2.847,-2.8127,-2.8172,-2.8055,-2.8022,-2.8107,-2.8741,-2.923,-2.9578,-2.9797,-3.0146,-3.0521,-3.0538,-3.0455,-3.0341,0.0,0.0,0.0,0.0,0.0,0.0,0.0,-2.5464,-2.4471,-2.3702,-2.3253,-2.2933,-2.2443,-2.2146,-2.1895,-2.1452,-2.129,-2.1311,-2.1479,-2.1602,-2.1769,-2.2067,-2.2208,-2.2301,-2.2254,0.0,-2.237,-2.2254,-2.2208,-2.2208,-2.2208,0.0,-2.2208,-2.2208,-2.2208,-2.2184,-2.2114,-2.2091,-2.2091,-2.2091,-2.2091,-2.2114,-2.2184,-2.2208,-2.2208,-2.2208,-2.2208,-2.2208,-2.2208,-2.1973,-2.1722,-2.152,-2.152,-2.152,-2.152,-2.1471,-2.1471,-2.1496,-2.1423,-2.0799,-1.9772,-1.9654,-1.9123,-1.8353,-1.8673,-1.8917,-1.9139,-1.9548,-1.9708,-1.9708,-1.9708,-1.9708,-1.9708,0.0,0.0,0.0,0.0,0.0,0.0,0.0,0.0,0.0,0.0,-3.2838,-3.1637,0.0,0.0,0.0,0.0,0.0,0.0,0.0,0.0,0.0,0.0,-3.068,-3.0624,-3.0542,-3.0444,-3.0405,-3.042,-3.0244,-3.0152,-3.0106,-3.0088,-3.009,-3.0097,-3.0225,-3.0331,-3.0392,-3.0381,-3.0494,-3.0674,-3.0676,-3.068,-3.07,0.0,0.0,0.0,0.0,0.0,0.0,0.0,-2.5658,-2.409,-2.3397,-2.2921,-2.2558,-2.236,-2.1616,-2.1061,-2.182,-2.1313,-2.0664,-2.1019,-2.1115,-2.1237,-2.1626,-2.1722,0.0,0.0,-2.2463,-2.2394,-2.237,-2.2278,-2.2208,-2.2208,-2.2208,-2.2208,-2.2208,-2.2208,-2.2044,0.0,-2.1544,-2.1544,-2.1544,-2.1544,0.0,-2.2184,-2.2208,-2.2208,-2.2208,-2.2208,-2.2208,-2.2208,-2.2161,-2.2114,-2.2067,-2.2067,-2.2067,-2.2067,-2.1841,-2.1841,-2.2067,-2.1616,-2.1162,-2.0698,-1.9947,-1.9355,-1.8948,-1.8906,-1.8978,-1.9139,-1.9599,-1.9744,-1.9708,-1.9708,-1.9708,-1.9708,0.0,0.0,0.0,0.0,0.0,0.0,0.0,-3.5424,-3.5025,-3.4603,-3.3853,-3.2855,-3.157,-3.145,-3.1281,0.0,0.0,0.0,0.0,0.0,0.0,0.0,0.0,0.0,0.0,-3.0794,0.0,0.0,0.0,-3.0742,-3.0654,-3.0614,-3.0594,-3.0604,-3.0528,-3.051,-3.0486,-3.0458,-3.0501,-3.0603,-3.0626,-3.0698,0.0,0.0,0.0,0.0,0.0,0.0,0.0,0.0,-2.663,-2.5177,-2.422,-2.3776,-2.3528,-2.3135,-2.2636,-2.2254,-2.2515,-2.2144,-2.1745,-2.1889,-2.1949,-2.1973,-2.2091,0.0,0.0,0.0,-2.2555,-2.2486,-2.2417,-2.2301,0.0,-2.2208,-2.2208,-2.2208,-2.2208,-2.2208,0.0,-2.1841,-2.1817,-2.1817,0.0,-2.1817,-2.1926,-2.2184,-2.2208,-2.2208,-2.2208,-2.2208,-2.2208,-2.2208,-2.2208,-2.2208,-2.2208,-2.2208,-2.2208,-2.2208,-2.2067,-2.2091,-2.2184,-2.1926,-2.1569,-2.1108,-2.0496,-1.9795,-1.9086,-1.907,-1.8945,-1.8822,-1.9269,-1.9472,-1.9527,-1.9527,-1.9599,-1.9708,0.0,0.0,0.0,0.0,0.0,0.0,0.0,-3.5621,-3.5417,-3.4816,-3.473,-3.4147,-3.2585,-3.2343,-3.2015,0.0,0.0,0.0,0.0,0.0,0.0,0.0,0.0,0.0,0.0,0.0,0.0,0.0,0.0,0.0,0.0,0.0,0.0,0.0,-3.0471,-3.0425,-3.0425,-3.0425,-3.046,0.0,0.0,-3.0661,0.0,0.0,0.0,0.0,0.0,0.0,0.0,0.0,-2.7757,-2.668,-2.5637,-2.5019,-2.4563,-2.4053,-2.38,-2.3598,-2.3297,-2.3017,-2.2848,-2.2918,-2.2849,-2.2795,-2.2783,-2.2843,0.0,0.0,-2.276,-2.2655,-2.244,0.0,-2.2208,0.0,-2.2208,-2.2208,0.0,0.0,0.0,0.0,-2.1935,0.0,-2.202,-2.1912,-2.1959,-2.2184,-2.2208,-2.2208,-2.2208,-2.2208,-2.2208,-2.2208,-2.2208,-2.2208,-2.2208,-2.2208,-2.2208,-2.2208,-2.2208,-2.2208,-2.2208,-2.2208,-2.1986,-2.1569,-2.1026,-2.0363,-1.9619,-1.9353,-1.9035,-1.8731,-1.9011,-1.9232,-1.9395,-1.9395,-1.9541,-1.9708,0.0,0.0,0.0,0.0,0.0,0.0,0.0,-3.5686,-3.5636,-3.5524,-3.549,-3.5132,-3.4182,-3.3595,-3.3235,0.0,0.0,0.0,0.0,0.0,0.0,0.0,0.0,0.0,0.0,0.0,0.0,-3.0803,0.0,0.0,0.0,0.0,0.0,0.0,0.0,-3.0487,-3.0487,-3.0487,0.0,0.0,0.0,0.0,0.0,0.0,0.0,0.0,0.0,0.0,0.0,0.0,0.0,-2.7959,-2.7487,-2.6201,-2.4823,-2.4583,0.0,0.0,-2.4071,-2.3434,-2.2733,-2.3214,-2.3068,-2.2894,-2.326,0.0,0.0,-2.3319,-2.3231,-2.2987,-2.2486,-2.2301,-2.2208,0.0,0.0,-2.2208,0.0,0.0,0.0,0.0,0.0,0.0,-2.1423,-2.1031,-2.1153,-2.2137,-2.2208,-2.2208,-2.2208,-2.2208,-2.2208,-2.2208,-2.2208,-2.2208,-2.2208,-2.2208,-2.2208,-2.2208,-2.2208,-2.2208,-2.2208,-2.2208,-2.2351,-2.2505,-2.1319,-2.1021,-2.1277,-1.9933,-1.9398,-1.9387,-1.9258,-1.9273,-1.9395,-1.9395,-1.9541,-1.9708,0.0,0.0,0.0,0.0,0.0,0.0,-3.5577,-3.5582,-3.5588,-3.5604,-3.5604,-3.547,-3.5175,-3.4992,-3.449,-3.344,0.0,0.0,0.0,0.0,0.0,0.0,0.0,0.0,0.0,0.0,-3.0823,-3.08,-3.08,0.0,0.0,0.0,0.0,0.0,0.0,-3.0524,-3.0559,0.0,0.0,0.0,0.0,0.0,0.0,0.0,0.0,0.0,0.0,0.0,0.0,0.0,0.0,0.0,-2.8085,-2.7237,0.0,0.0,-2.4994,-2.4632,-2.4369,-2.401,-2.3738,-2.3897,-2.3818,-2.3732,-2.3909,0.0,-2.3852,-2.3573,-2.3363,-2.3076,-2.2721,-2.2477,-2.2347,0.0,0.0,0.0,-2.2324,0.0,0.0,-2.1926,-2.1684,0.0,0.0,0.0,-2.1732,-2.2184,-2.2208,-2.2208,-2.2208,-2.2208,-2.2208,-2.2208,-2.2208,-2.2208,-2.2208,-2.2208,-2.2208,-2.2208,-2.2208,-2.2208,-2.2208,-2.2208,-2.2379,-2.2637,-2.1348,-2.0947,-2.107,-1.9681,-1.9105,-1.9143,-1.9035,-1.9254,-1.9563,-1.949,-1.9581,-1.9744,0.0,0.0,0.0,0.0,0.0,-3.5769,-3.5538,-3.55,-3.5521,-3.5558,-3.557,-3.5596,-3.5664,-3.5757,-3.5314,-3.411,-3.3879,0.0,0.0,0.0,0.0,0.0,0.0,0.0,0.0,0.0,-3.08,-3.08,-3.08,-3.08,0.0,0.0,-3.0728,-3.0726,0.0,0.0,0.0,0.0,0.0,0.0,0.0,0.0,0.0,0.0,0.0,0.0,0.0,0.0,0.0,0.0,0.0,0.0,0.0,0.0,0.0,0.0,-2.5859,-2.5615,-2.4938,-2.4699,-2.4603,-2.4553,-2.4426,-2.4323,0.0,0.0,-2.4349,-2.3852,-2.3601,-2.3334,-2.2834,-2.2583,-2.2486,-2.2578,0.0,-2.2555,-2.2463,-2.2417,0.0,0.0,0.0,-2.2113,-2.2423,-2.2475,-2.2405,-2.2208,-2.2208,-2.2208,-2.2208,-2.2208,-2.2208,-2.2208,-2.2208,-2.2208,-2.2208,-2.2208,-2.2208,-2.2208,-2.2208,-2.2208,-2.2208,-2.2208,-2.2379,-2.2637,-2.1348,-2.0885,-2.0927,-1.959,-1.9045,-1.9045,-1.9045,-1.9325,-1.9672,-1.9424,-1.953,-1.9762,0.0,0.0,0.0,0.0,0.0,0.0,-3.5615,-3.55,-3.55,-3.55,-3.55,-3.5541,-3.5596,-3.5593,-3.5616,-3.567,-3.5069,0.0,0.0,0.0,0.0,0.0,0.0,0.0,0.0,0.0,-3.08,-3.08,-3.08,-3.08,-3.08,-3.08,-3.08,-3.0799,0.0,0.0,0.0,0.0,0.0,0.0,0.0,0.0,0.0,0.0,0.0,0.0,0.0,0.0,0.0,0.0,0.0,0.0,0.0,-2.8591,-2.7722,0.0,-2.659,-2.6471,-2.601,-2.5492,-2.5091,-2.5091,-2.4675,-2.439,0.0,0.0,-2.4744,-2.4209,-2.4099,-2.3803,-2.2783,-2.2615,-2.2615,-2.2615,-2.2615,0.0,-2.2615,-2.2486,0.0,0.0,0.0,-2.1849,-2.2979,-2.3083,-2.2831,-2.225,-2.2208,-2.2208,-2.2208,-2.2208,-2.2208,-2.2208,-2.2208,-2.2208,-2.2208,-2.2208,-2.2208,-2.2208,-2.2208,-2.2208,-2.2208,-2.2208,-2.2379,-2.2637,-2.1348,-2.0994,-2.1197,-1.9925,-1.9395,-1.9395,-1.9395,-1.9523,-1.9639,-1.9114,-1.9281,-1.9726,0.0,0.0,0.0,0.0,0.0,0.0,0.0,-3.6905,-3.6527,-3.6527,-3.6018,-3.5636,-3.5669,-3.5753,-3.5817,-3.5837,-3.5641,0.0,0.0,0.0,0.0,0.0,0.0,0.0,0.0,0.0,-3.2284,-3.1699,-3.1699,-3.1387,-3.08,-3.08,-3.08,-3.0799,-3.0728,0.0,0.0,0.0,0.0,0.0,0.0,0.0,0.0,0.0,0.0,0.0,0.0,0.0,0.0,0.0,0.0,0.0,0.0,0.0,0.0,-2.7686,-2.7284,-2.6953,-2.6384,-2.6139,-2.598,-2.5717,-2.5511,-2.54,-2.5441,0.0,-2.523,-2.439,-2.4162,-2.3831,-2.2978,-2.2766,-2.2758,-2.2797,-2.2797,0.0,0.0,0.0,0.0,-2.2301,-2.243,-2.255,-2.2493,-2.2859,-2.2845,-2.225,-2.2208,-2.2208,-2.2208,-2.2208,-2.2208,-2.2208,-2.2208,-2.2208,-2.2208,-2.2208,-2.2208,-2.2208,-2.2208,-2.231,-2.2549,-2.2549,-2.2867,-2.3383,-2.1798,-2.136,-2.1584,-2.0038,-1.9508,-1.966,-1.966,-1.9854,-2.008,-1.9836,-1.98,-1.9902,0.0,0.0,0.0,0.0,0.0,0.0,0.0,-3.7836,-3.7482,-3.7482,-3.6735,-3.6187,-3.6187,-3.5962,-3.5814,-3.5814,-3.5875,0.0,0.0,0.0,0.0,0.0,0.0,0.0,-3.3886,-3.3572,-3.3123,-3.2597,-3.2597,-3.2304,-3.1776,-3.1776,-3.1776,-3.1776,-3.1739,-3.1741,0.0,0.0,0.0,0.0,0.0,0.0,-3.079,0.0,0.0,0.0,0.0,0.0,0.0,0.0,0.0,0.0,0.0,0.0,0.0,0.0,-2.795,-2.7532,0.0,-2.6607,-2.6437,-2.6191,-2.5957,-2.5791,0.0,0.0,-2.5454,-2.4695,-2.4328,-2.3973,-2.3297,-2.2992,-2.2849,-2.2888,-2.2888,0.0,0.0,0.0,0.0,-2.2541,0.0,-2.3333,-2.2953,-2.3262,-2.3234,-2.2601,-2.2334,-2.2208,-2.2208,-2.2208,-2.2208,-2.2208,-2.2208,-2.2208,-2.2208,-2.2208,-2.2208,-2.2208,-2.2208,-2.2379,-2.2694,-2.2694,-2.3046,-2.3528,-2.1963,-2.1441,0.0,-2.0135,-1.9657,-1.9806,-1.9945,-2.0133,-2.027,-1.9977,-1.9922,-1.9955,0.0,0.0,0.0,0.0,0.0,0.0,0.0,-3.8443,-3.8405,-3.8405,-3.7658,-3.7109,-3.7109,-3.6382,-3.5873,-3.5815,0.0,0.0,0.0,0.0,0.0,0.0,0.0,0.0,-3.4783,-3.4001,-3.3552,-3.3494,-3.3494,-3.3455,-3.3396,-3.3396,-3.3396,-3.3396,-3.3396,-3.3398,-3.34,-3.3395,-3.2929,-3.2187,-3.2185,-3.1667,0.0,0.0,0.0,0.0,0.0,0.0,0.0,0.0,0.0,0.0,0.0,0.0,0.0,0.0,0.0,0.0,0.0,-2.6922,-2.6539,-2.6522,-2.6105,-2.5719,-2.5719,0.0,0.0,-2.4997,-2.4594,-2.4156,-2.3696,-2.3231,-2.2888,-2.2888,-2.2902,0.0,0.0,-2.2652,0.0,0.0,-2.3674,-2.4092,-2.4028,-2.4067,-2.3825,-2.3154,-2.2545,-2.2208,-2.2208,-2.2208,-2.2208,-2.2208,-2.2208,-2.2208,-2.2208,-2.2208,-2.2208,-2.2208,-2.2208,-2.2402,-2.274,-2.274,-2.2965,-2.3215,-2.1928,-2.1351,-2.1223,-2.0242,-1.9841,-1.9874,-2.0185,-2.0304,-2.0235,-1.9747,-1.9744,-1.9919,0.0,0.0,0.0,0.0,0.0,0.0,0.0,0.0,0.0,0.0,-3.8723,-3.8216,-3.8216,-3.804,-3.7648,0.0,0.0,0.0,0.0,0.0,0.0,0.0,0.0,0.0,-3.568,-3.5485,-3.5055,-3.4393,-3.4393,-3.4042,-3.3396,-3.3396,-3.3396,-3.3396,-3.3396,-3.3405,-3.3395,-3.3397,-3.3281,-3.3083,-3.31,-3.2564,0.0,0.0,0.0,0.0,-3.0727,-3.0595,0.0,0.0,0.0,0.0,0.0,0.0,0.0,0.0,-2.8502,-2.8259,-2.8025,0.0,-2.6971,-2.6708,-2.6296,-2.5919,0.0,0.0,0.0,0.0,0.0,-2.4156,-2.3696,-2.3231,-2.2888,-2.2888,0.0,-2.2781,-2.2661,0.0,0.0,-2.2399,-2.3409,-2.39,-2.3383,-2.3784,-2.3825,-2.3154,-2.2545,-2.2208,-2.2208,-2.2208,-2.2208,-2.2208,-2.2208,-2.2208,-2.2208,-2.2208,-2.2208,-2.2208,-2.2208,-2.254,-2.315,-2.315,-2.3212,-2.3249,-2.2411,-2.177,-2.1237,-2.0487,-2.0185,-2.0185,-2.027,-2.0304,-2.0287,-2.015,-2.0061,-1.999,0.0,0.0,0.0,0.0,0.0,0.0,0.0,0.0,0.0,0.0,0.0,-3.9156,-3.9156,-3.8825,0.0,0.0,0.0,0.0,0.0,0.0,0.0,0.0,0.0,-3.5992,-3.5992,-3.5992,-3.5778,-3.5291,-3.5291,-3.5055,-3.4587,-3.4587,-3.4587,-3.4587,-3.4587,-3.4598,-3.4589,-3.459,-3.4351,-3.3987,-3.3957,0.0,0.0,0.0,0.0,0.0,-3.0866,-3.0603,0.0,-3.0361,-3.0219,-3.0064,0.0,0.0,0.0,0.0,-2.8577,-2.825,-2.8209,-2.7821,-2.7353,-2.7021,-2.6573,-2.6174,-2.599,0.0,0.0,0.0,0.0,0.0,-2.3973,-2.3363,0.0,0.0,-2.2818,0.0,0.0,0.0,-2.2734,-2.3039,-2.3917,-2.4371,-2.4018,-2.4054,-2.3825,-2.3154,-2.2545,-2.2208,-2.2208,-2.2208,-2.2208,-2.2208,-2.2208,-2.2208,-2.2208,-2.2208,-2.2208,-2.2208,-2.2356,-2.2746,-2.3282,-2.3139,-2.3154,-2.324,-2.2274,-2.1642,-2.1242,-2.0582,-2.0304,-2.0304,-2.0304,-2.0304,-2.0287,-2.022,-2.0133,-2.0043,0.0,0.0,0.0,0.0,0.0,0.0,0.0,0.0,0.0,0.0,0.0,0.0,0.0,0.0,0.0,0.0,0.0,0.0,0.0,0.0,0.0,0.0,-3.607,-3.5992,-3.5992,-3.5992,-3.5992,-3.5992,-3.5992,-3.5992,-3.5992,-3.5992,-3.5994,-3.5998,-3.5998,-3.5989,-3.5976,-3.5972,-3.5569,-3.488,-3.4813,0.0,0.0,0.0,0.0,0.0,0.0,0.0,0.0,-3.0349,-3.0219,-3.0079,-2.9937,0.0,0.0,0.0,0.0,0.0,-2.814,-2.7908,-2.7595,-2.7276,-2.6791,-2.6333,-2.6046,0.0,0.0,0.0,0.0,0.0,0.0,-2.3516,0.0,0.0,0.0,0.0,-2.2394,-2.2776,-2.3312,-2.3867,-2.4491,-2.4868,-2.4861,-2.4294,-2.3713,-2.314,-2.2545,-2.2208,-2.2208,-2.2208,-2.2208,-2.2208,-2.2208,-2.2208,-2.2208,-2.2208,-2.2231,-2.2287,-2.2449,-2.2789,-2.3207,-2.2828,-2.2773,-2.2932,-2.1797,-2.1242,-2.1103,-2.0518,-2.0304,-2.0304,-2.0287,-2.027,-2.0252,-2.0133,-2.008,-2.0098,0.0,0.0,0.0,0.0,0.0,0.0,0.0,0.0,0.0,0.0,0.0,0.0,0.0,0.0,0.0,0.0,0.0,0.0,0.0,0.0,0.0,-3.7145,-3.6383,-3.5992,-3.5992,-3.5992,-3.5992,-3.5992,-3.5992,-3.5992,-3.5992,-3.5992,-3.6002,-3.5993,-3.5993,-3.5976,-3.5913,-3.5929,-3.5834,-3.5705,-3.5697,0.0,0.0,0.0,0.0,0.0,0.0,0.0,0.0,-3.0349,-3.0219,-3.0079,-2.9937,0.0,0.0,0.0,0.0,0.0,-2.7861,-2.7651,-2.7467,-2.7276,-2.659,-2.599,0.0,0.0,0.0,0.0,0.0,0.0,0.0,-2.3487,-2.2795,0.0,0.0,-2.2394,-2.2254,-2.2728,-2.315,-2.3249,-2.3842,-2.421,-2.4163,-2.3608,-2.321,-2.3112,-2.2545,-2.2208,-2.2208,-2.2208,-2.2208,-2.2208,-2.2208,-2.2208,-2.2208,-2.2208,-2.2333,-2.2603,-2.2095,-2.2206,-2.2876,-2.2234,-2.1827,-2.1596,-2.1381,-2.098,-2.0458,-2.035,-2.0304,-2.0287,-2.0185,-2.0133,-2.0115,-2.0043,-2.0023,-2.0061,0.0,0.0,0.0,0.0,0.0,0.0,0.0,0.0,0.0,0.0,0.0,0.0,0.0,0.0,0.0,0.0,0.0,0.0,0.0,0.0,-3.8882,-3.8045,-3.7165,-3.648,-3.6012,-3.5992,-3.5992,-3.5992,-3.5992,-3.5992,-3.5992,-3.6003,-3.5993,-3.5995,-3.5995,-3.597,-3.5901,-3.5901,-3.5897,-3.5905,0.0,0.0,0.0,0.0,0.0,0.0,0.0,0.0,0.0,0.0,-3.0192,-3.0019,-2.9891,0.0,0.0,0.0,0.0,0.0,-2.7803,-2.747,-2.7158,-2.6888,-2.6487,-2.6064,0.0,0.0,0.0,0.0,0.0,0.0,0.0,0.0,-2.2749,-2.2606,0.0,-2.2278,-2.2208,-2.3037,-2.3515,-2.3144,-2.3984,-2.4287,-2.3587,-2.3247,-2.2957,-2.2634,-2.2362,-2.2208,-2.2208,-2.2208,-2.2208,-2.2208,-2.2208,-2.2039,-2.1715,-2.1701,-2.1792,-2.1936,-2.2004,-2.2012,-2.1988,-2.1678,-2.1449,-2.1273,-2.0919,-2.058,-2.0287,-2.022,-2.0185,-2.0185,-2.008,-2.0043,-2.0043,-2.0061,-2.0025,-2.0025,0.0,0.0,0.0,0.0,0.0,0.0,0.0,0.0,0.0,0.0,0.0,0.0,0.0,0.0,0.0,0.0,0.0,0.0,0.0,0.0,-3.9741,-3.8923,-3.8238,-3.7399,-3.6324,-3.6109,-3.5992,-3.5992,-3.5998,-3.6002,-3.6006,-3.5995,-3.5995,-3.5987,-3.5987,-3.5956,-3.5892,-3.5892,-3.5904,-3.5895,0.0,0.0,0.0,0.0,0.0,0.0,0.0,0.0,0.0,0.0,0.0,0.0,0.0,0.0,0.0,-2.89,-2.857,-2.8112,-2.7686,-2.7288,-2.6871,-2.6454,0.0,0.0,0.0,0.0,0.0,0.0,0.0,0.0,0.0,-2.3008,0.0,-2.2394,-2.2278,-2.2208,-2.2208,-2.3164,-2.3684,-2.3154,-2.3955,-2.4165,-2.3182,-2.2957,-2.269,-2.2236,-2.2208,-2.2208,-2.2208,-2.2208,-2.2184,-2.2114,-2.1974,-2.168,-2.1136,-2.1005,-2.1046,-2.1296,-2.1653,-2.1626,-2.1287,-2.113,-2.1057,-2.1042,-2.0485,-2.0252,-2.0252,-2.0133,-2.008,-2.0063,-1.999,-1.9937,-1.9955,-2.001,-2.0025,-2.0025,0.0,0.0,0.0,0.0,0.0,0.0,0.0,0.0,0.0,0.0,0.0,0.0,0.0,0.0,0.0,0.0,0.0,0.0,0.0,0.0,-4.062,-3.9741,-3.9644,-3.8863,-3.7243,-3.6402,-3.5992,-3.5992,-3.6009,-3.5996,-3.5993,-3.5992,-3.5965,-3.5905,-3.5905,-3.5908,-3.5894,-3.5894,-3.5892,-3.5906,-3.5906,0.0,0.0,0.0,0.0,0.0,0.0,0.0,0.0,0.0,0.0,0.0,0.0,0.0,-2.89,-2.89,-2.857,-2.8071,-2.74,-2.7067,-2.6757,-2.61,0.0,0.0,0.0,0.0,0.0,0.0,0.0,0.0,0.0,-2.2881,-2.237,-2.2254,-2.2208,-2.2208,-2.2208,-2.2746,-2.3154,-2.3112,-2.3182,-2.3196,-2.3112,-2.2601,-2.225,-2.2208,-2.2208,-2.2208,-2.2208,-2.2208,-2.2091,-2.1841,-2.1366,-2.0955,-2.0643,-2.0098,-2.0307,-2.1298,-2.0715,-2.0733,-2.1277,-2.0654,-2.0381,-2.0349,-2.0183,-2.01,-2.0115,-2.0043,-2.0005,-1.999,-1.9851,-1.9797,-1.9815,-1.9815,-1.9902,-2.0058,0.0,0.0,0.0,0.0,0.0,0.0,0.0,0.0,0.0,0.0,0.0,0.0,0.0,0.0,0.0,0.0,0.0,0.0,0.0,-4.1109,-4.0953,-4.062,-4.0093,-3.9507,-3.8863,-3.7516,-3.6819,-3.6809,-3.6269,-3.5972,-3.5936,-3.5936,-3.5923,-3.5892,-3.5892,-3.5904,-3.5908,-3.5908,-3.5885,-3.5845,-3.5845,-3.5807,0.0,0.0,0.0,0.0,0.0,0.0,0.0,0.0,-2.9951,-2.9729,-2.9645,-2.9262,-2.8838,-2.8838,-2.8525,-2.8039,-2.7272,-2.6986,-2.6724,-2.5959,0.0,0.0,0.0,0.0,0.0,0.0,0.0,0.0,0.0,0.0,-2.2254,-2.2208,-2.2208,-2.2208,-2.2208,-2.2704,-2.2957,-2.2587,-2.2859,-2.2943,-2.2587,-2.2334,-2.2208,-2.2208,-2.2208,-2.2208,-2.2208,-2.1718,-2.1421,-2.1315,-2.0584,-1.9956,-1.9486,-1.9384,-1.953,-1.9933,-2.0055,-2.0197,-2.036,-2.024,-2.0185,-2.0168,-2.0078,-2.0043,-2.0025,-1.9919,-1.9884,-1.9866,-1.9762,-1.9871,-2.005,-2.0152,-2.022,-2.0272,0.0,0.0,0.0,0.0,0.0,0.0,0.0,0.0,0.0,0.0,0.0,0.0,0.0,0.0,0.0,0.0,0.0,0.0,-4.1109,-4.1109,-4.1109,-4.1109,-4.0522,-4.0213,-4.0219,-3.8815,-3.7824,-3.7302,-3.6403,-3.5935,-3.5908,-3.5908,-3.5895,-3.5908,-3.5908,-3.5903,-3.5894,-3.5894,-3.5859,-3.5795,-3.5795,-3.578,0.0,0.0,0.0,0.0,0.0,0.0,0.0,0.0,-2.9842,-2.9626,-2.954,-2.9185,-2.8797,-2.8797,-2.8404,-2.7847,-2.7175,-2.6839,-2.6522,0.0,0.0,0.0,0.0,0.0,0.0,0.0,-2.312,0.0,0.0,0.0,0.0,-2.2208,-2.2208,-2.2208,-2.2208,-2.2573,-2.2648,-2.225,-2.2573,-2.2634,-2.225,-2.2208,-2.2208,-2.2208,-2.1955,-2.1811,-2.1811,-2.1033,-2.0557,-2.0466,-1.9709,-1.9084,-1.8586,-1.8532,-1.8589,-1.8765,-1.9305,-1.9683,-1.9909,-2.0048,-2.0098,-2.0063,-1.9973,-1.9937,-1.9919,-1.9797,-1.9762,-1.9762,-1.9726,-1.9942,-2.0275,-2.0326,-2.0429,-2.0562,0.0,0.0,0.0,0.0,0.0,0.0,0.0,0.0,0.0,0.0,0.0,0.0,0.0,0.0,0.0,0.0,0.0,0.0,-4.1108,-4.1109,-4.1109,-4.1109,-4.1109,-4.1099,-4.1092,-4.0233,-3.8964,-3.7303,-3.6355,-3.5906,-3.5908,-3.5908,-3.5908,-3.5908,-3.5908,-3.5891,-3.5901,-3.5901,-3.5857,-3.5795,-3.5795,-3.5771,-3.5689,0.0,0.0,0.0,0.0,0.0,0.0,0.0,-2.9761,-2.9502,-2.9492,-2.9185,-2.8797,-2.8797,-2.8179,-2.7435,-2.7096,-2.6623,-2.6123,0.0,0.0,0.0,0.0,0.0,0.0,0.0,0.0,-2.237,-2.2231,-2.2208,-2.2208,-2.2208,-2.2208,-2.2208,-2.2208,-2.2208,-2.2208,-2.2208,-2.2208,-2.2208,-2.2208,-2.2194,-2.2194,-2.217,-2.1453,-2.0983,-2.0983,-2.0151,-1.9579,-1.9288,-1.8772,-1.8357,-1.8087,-1.7499,-1.7475,-1.7988,-1.8403,-1.9128,-2.0083,-2.01,-2.0063,-1.9988,-1.9866,-1.9797,-1.978,-1.9726,-1.9708,-1.9708,-1.9708,-1.9995,-2.0393,-2.0243,-2.0497,-2.0893,0.0,0.0,0.0,0.0,0.0,0.0,0.0,0.0,0.0,0.0,0.0,0.0,0.0,0.0,0.0,0.0,0.0,0.0,-4.1108,-4.1107,-4.1107,-4.1107,-4.1107,-4.1092,-4.1092,-3.9659,-3.8345,-3.723,-3.6339,-3.5902,-3.5908,-3.5908,-3.5897,-3.5898,-3.5898,-3.5875,-3.5815,-3.573,-3.566,-3.5526,-3.4872,-3.4608,-3.4501,0.0,0.0,0.0,0.0,0.0,0.0,0.0,0.0,0.0,-2.9431,-2.9138,-2.8797,-2.8797,-2.8352,-2.773,-2.7114,-2.674,0.0,0.0,0.0,0.0,0.0,0.0,0.0,0.0,-2.2563,-2.2254,-2.2208,-2.2208,-2.2208,-2.2208,-2.2208,-2.2208,-2.2208,-2.2208,-2.2208,-2.2208,-2.2208,-2.2137,-2.1949,-2.1574,-2.1292,-2.1102,-2.0461,-2.0088,-2.0088,-1.9295,-1.8819,-1.8732,-1.7988,-1.7545,-1.7473,-1.7423,-1.7618,-1.7988,-1.8266,-1.8827,-1.9606,-1.98,-1.9869,-1.9848,-1.9762,-1.9726,-1.9726,-1.9708,-1.9708,-1.9708,-1.9708,-2.01,-2.0695,-2.0646,-2.086,-2.1183,0.0,0.0,0.0,0.0,0.0,0.0,0.0,0.0,0.0,0.0,-4.1107,-4.1107,0.0,0.0,0.0,-4.1107,-4.1107,0.0,-4.1094,-4.1094,-4.1094,-4.1094,-4.1094,-4.1092,-4.1098,-3.9396,-3.8246,-3.7715,-3.6506,-3.5908,-3.5908,-3.5908,-3.5894,-3.5901,-3.5838,-3.5771,-3.5665,-3.5563,-3.5295,-3.4886,-3.4327,-3.3895,-3.3489,0.0,0.0,0.0,0.0,0.0,0.0,0.0,0.0,0.0,0.0,0.0,-2.8773,-2.8707,-2.8143,-2.7459,-2.6954,-2.6488,0.0,0.0,0.0,0.0,0.0,0.0,0.0,0.0,-2.2301,-2.2208,-2.2208,-2.2208,-2.2208,-2.2208,-2.2208,-2.2137,-2.1926,-2.1864,-2.1781,-2.1546,-2.1434,-2.1328,-2.1116,-2.0726,-2.0429,-2.0243,-1.961,-1.9206,-1.9206,-1.8438,-1.7991,-1.7991,-1.7466,-1.7199,-1.7199,-1.7323,-1.7475,-1.77,-1.7968,-1.8442,-1.9039,-1.9387,-1.9621,-1.9762,-1.9726,-1.9708,-1.9708,-1.9708,-1.9708,-1.9708,-1.9708,-2.0152,-2.0794,-2.0794,-2.1103,-2.1495,0.0,0.0,-4.1092,-4.1092,0.0,0.0,0.0,0.0,0.0,-4.1103,-4.1103,-4.1103,0.0,0.0,0.0,-4.1103,-4.1103,-4.1104,-4.1105,-4.1105,-4.1105,-4.1105,-4.1104,-4.1095,-4.1109,-3.9399,-3.85,-3.85,-3.6746,-3.5908,-3.5906,-3.5906,-3.5885,-3.5861,-3.5739,-3.5611,-3.5475,-3.5399,-3.4875,-3.4074,-3.3971,-3.3422,-3.2555,-3.1691,0.0,0.0,0.0,0.0,0.0,0.0,0.0,0.0,-2.9396,-2.9134,-2.8785,-2.8554,-2.7766,-2.6921,-2.6724,0.0,0.0,0.0,0.0,0.0,-2.3135,-2.2965,-2.2904,-2.2463,0.0,-2.2208,-2.2208,-2.2208,-2.2208,-2.2208,-2.2161,-2.1935,-2.1434,-2.1296,-2.1018,-2.0455,-2.0207,-2.0013,-1.9864,-1.9636,-1.9476,-1.9476,-1.8762,-1.8342,-1.8342,-1.7613,-1.7199,-1.7199,-1.7199,-1.7199,-1.7199,-1.7199,-1.7199,-1.7199,-1.7578,-1.8008,-1.8519,-1.8978,-1.9369,-1.9708,-1.9708,-1.9708,-1.9708,-1.9708,-1.9708,-1.9708,-1.9708,-2.0152,-2.0794,-2.0794,-2.123,-2.1812,0.0,0.0,-4.1091,-4.1091,0.0,0.0,0.0,0.0,-4.11,-4.11,-4.11,-4.11,-4.11,-4.11,0.0,-4.11,-4.11,-4.1093,-4.1101,-4.1103,-4.1103,-4.1103,-4.1098,-4.1095,-4.1106,-3.9382,-3.85,-3.85,-3.6746,-3.5897,-3.5892,-3.5892,-3.5792,-3.557,-3.5549,-3.5476,-3.5348,-3.5227,-3.4686,-3.3867,-3.3075,-3.2273,-3.1456,-3.0573,-3.0235,0.0,0.0,0.0,0.0,0.0,0.0,0.0,-2.9396,-2.924,-2.8968,-2.8609,-2.8008,-2.728,0.0,-2.6016,0.0,0.0,0.0,0.0,-2.2595,-2.2379,-2.2356,-2.2263,-2.2231,-2.2208,-2.2208,-2.2208,-2.2208,-2.2208,-2.1756,-2.1382,-2.1261,-2.0424,-1.9768,-1.9651,-1.9259,-1.8923,-1.8691,-1.8196,-1.7814,-1.7602,-1.7271,-1.7093,-1.7093,-1.7159,-1.7199,-1.7199,-1.7199,-1.7199,-1.7199,-1.7199,-1.7199,-1.7199,-1.7303,-1.774,-1.85,-1.8936,-1.9328,-1.9708,-1.9708,-1.9708,-1.9708,-1.9708,-1.9708,-1.9708,-1.9708,-2.0152,-2.0794,-2.0794,-2.123,-2.1812,0.0,0.0,0.0,0.0,0.0,0.0,0.0,0.0,-4.1107,-4.1107,-4.1107,-4.1107,-4.1107,-4.1107,0.0,0.0,-4.1107,-4.11,-4.1106,-4.1106,-4.1106,-4.1106,-4.1103,-4.0893,-4.0487,-3.9182,-3.8279,-3.7835,-3.6531,-3.5898,-3.5901,-3.5792,-3.567,-3.5498,-3.5406,-3.5302,-3.5176,-3.4643,-3.3963,-3.3099,-3.2186,-3.1319,-3.0481,-3.0028,-2.9779,-2.969,-2.9636,0.0,0.0,0.0,0.0,0.0,0.0,0.0,-2.9003,-2.8547,-2.8025,-2.7387,0.0,0.0,0.0,0.0,0.0,0.0,-2.2595,-2.231,-2.2208,-2.2208,-2.2208,-2.21,-2.1779,-2.1732,-2.1612,-2.1296,-2.0955,-2.0529,-2.0033,-1.9405,-1.8805,-1.8276,-1.7892,-1.7629,-1.7456,-1.7077,-1.6781,-1.6638,-1.6511,-1.6543,-1.6701,-1.6871,-1.7018,-1.7199,-1.7199,-1.7199,-1.7199,-1.7199,-1.7199,-1.7199,-1.7199,-1.7659,-1.8519,-1.9124,-1.9493,-1.9708,-1.9708,-1.9708,-1.9708,-1.9708,-1.9708,-1.9708,-1.9708,-2.0015,-2.0496,-2.0496,-2.0958,-2.1572,0.0,0.0,0.0,0.0,0.0,0.0,0.0,0.0,0.0,-4.1107,-4.1107,-4.1107,-4.1107,-4.1107,-4.1107,0.0,0.0,0.0,-4.1107,-4.1107,-4.1107,-4.1107,-4.0951,-4.0545,-3.9825,-3.8786,-3.7874,-3.7108,-3.6277,-3.5857,-3.5827,-3.567,-3.5538,-3.5456,-3.5273,-3.5059,-3.4814,-3.4034,-3.3126,-3.2132,-3.1442,-3.0614,-2.9799,-2.979,-2.9682,-2.9522,-2.9502,-2.9461,-2.9427,-2.9407,0.0,0.0,0.0,0.0,-2.9037,-2.8547,-2.8039,-2.7462,0.0,0.0,0.0,0.0,0.0,0.0,-2.2799,-2.2434,-2.2184,-2.2137,-2.2137,-2.1959,-2.1358,-2.1188,-2.093,-2.0333,-2.0131,-1.9687,-1.8709,-1.8386,-1.7873,-1.6854,-1.6511,-1.6305,-1.6256,-1.611,-1.6013,-1.6013,-1.6057,-1.6219,-1.6509,-1.6573,-1.6765,-1.7094,-1.7094,-1.7115,-1.7157,-1.7157,-1.7157,-1.7157,-1.722,-1.7639,-1.8383,-1.9203,-1.9603,-1.9708,-1.9708,-1.9708,-1.9708,-1.9708,-1.9708,-1.9708,-1.9708,-1.9892,-2.0191,-2.0191,-2.0663,-2.1277,0.0,0.0,0.0,0.0,0.0,0.0,0.0,0.0,0.0,0.0,-4.1107,-4.1107,-4.1107,-4.1107,-4.1107,-4.1107,-4.1107,-4.1107,-4.1107,0.0,0.0,-4.1107,-4.039,-3.9922,-3.9805,-3.8144,-3.7228,-3.7108,-3.6179,0.0,0.0,0.0,0.0,-3.5326,-3.5187,-3.4663,-3.3874,-3.3742,-3.2785,-3.1336,-3.1126,-3.0534,-2.9799,-2.9738,-2.9711,-2.9655,-2.955,-2.9492,-2.9481,-2.9409,-2.9396,0.0,0.0,0.0,-2.9283,-2.8867,-2.8327,-2.7717,0.0,0.0,0.0,0.0,0.0,-2.3194,0.0,0.0,-2.2137,-2.1902,-2.1841,-2.1746,-2.1434,-2.108,-2.0746,-2.0434,-1.9773,-1.9109,-1.8521,-1.7523,-1.6657,-1.6101,-1.5603,-1.529,-1.5289,-1.5266,-1.5244,-1.5244,-1.5513,-1.5702,-1.5734,-1.6066,-1.6414,-1.6765,-1.6637,-1.6735,-1.7023,-1.696,-1.6939,-1.6939,-1.7303,-1.7578,-1.7828,-1.8645,-1.9262,-1.9708,-1.9708,-1.9708,-1.9708,-1.9708,-1.9708,-1.9708,-1.9708,-1.9892,-2.0191,-2.0191,-2.0631,-2.1214,0.0,0.0,0.0,0.0,0.0,0.0,0.0,0.0,0.0,0.0,0.0,-4.1107,-4.1107,-4.1107,-4.1107,-4.1107,-4.1107,-4.1107,-4.1107,-4.064,-4.037,-4.037,-3.9497,-3.8786,-3.8299,-3.7502,-3.6849,-3.6319,0.0,0.0,0.0,-3.5432,-3.5321,0.0,0.0,-3.4518,-3.3648,-3.3063,-3.2091,-3.0922,-3.0263,-2.9704,-2.9297,-2.9394,-2.9392,-2.937,-2.9411,-2.9431,-2.944,-2.9417,-2.9396,-2.9396,-2.9396,0.0,0.0,0.0,-2.8442,0.0,-2.6786,0.0,0.0,0.0,-2.376,-2.3253,-2.3083,0.0,-2.2114,-2.1864,-2.1688,-2.1361,-2.0635,-2.0359,-1.9991,-1.9228,-1.8804,-1.8292,-1.7494,-1.6925,-1.6312,-1.5556,-1.5246,-1.5108,-1.5108,-1.5108,-1.5108,-1.5108,-1.5244,-1.539,-1.5591,-1.578,-1.6088,-1.6573,-1.6543,-1.665,-1.6939,-1.6897,-1.6897,-1.6897,-1.7073,-1.7352,-1.772,-1.8074,-1.864,-1.938,-1.9603,-1.9708,-1.9708,-1.9708,-1.9708,-1.9708,-1.9708,-1.978,-1.9854,-1.9854,-2.012,-2.0515,0.0,0.0,0.0,0.0,0.0,0.0,0.0,0.0,0.0,0.0,0.0,-4.1107,-4.1107,0.0,0.0,0.0,-4.1107,-4.101,-4.0776,-3.9961,-3.9474,-3.9474,-3.8569,-3.7769,-3.7108,-3.686,-3.6405,-3.5708,0.0,0.0,-3.5443,-3.5304,-3.5065,0.0,-3.4632,-3.4263,0.0,0.0,0.0,-3.0703,-2.9577,-2.9031,0.0,-2.9056,-2.9104,-2.913,-2.9262,-2.9365,-2.9396,-2.9396,-2.9396,-2.9396,-2.9396,-2.9396,0.0,0.0,0.0,0.0,0.0,0.0,-2.525,-2.4815,-2.4057,-2.3363,0.0,0.0,-2.202,-2.1746,-2.141,-2.0847,-1.9888,-1.9708,-1.937,-1.8356,-1.8139,-1.7756,-1.6747,-1.6598,-1.622,-1.5234,-1.5108,-1.5108,-1.5108,-1.5108,-1.5108,-1.5108,-1.5108,-1.5221,-1.5457,-1.5412,-1.5613,-1.6185,-1.6228,-1.6392,-1.6684,-1.6769,-1.6791,-1.6791,-1.6791,-1.7031,-1.7496,-1.7564,-1.8054,-1.8917,-1.9347,-1.9617,-1.9708,-1.9708,-1.969,-1.9672,-1.9672,-1.9614,-1.9556,-1.9556,-1.9693,-1.9917,0.0,0.0,0.0,0.0,0.0,0.0,0.0,0.0,0.0,0.0,0.0,-4.1107,-4.1107,-4.1107,-4.1107,-4.1107,-4.1107,-4.0757,-3.9922,-3.9045,-3.8578,-3.8578,-3.7673,0.0,-3.7108,-3.6229,-3.5747,0.0,0.0,0.0,-3.5315,-3.5171,-3.4625,-3.3761,-3.3771,-3.3733,-3.3591,0.0,0.0,0.0,0.0,0.0,0.0,0.0,-2.8934,0.0,0.0,-2.924,-2.9396,-2.9396,-2.9396,-2.9396,-2.9396,-2.9396,-2.9396,0.0,0.0,0.0,0.0,-2.6505,0.0,-2.5246,0.0,0.0,0.0,0.0,-2.1722,-2.1496,-2.0896,-2.0245,-1.9539,-1.942,-1.9184,-1.8503,-1.8232,-1.7756,-1.6747,-1.6598,-1.622,-1.5234,-1.5108,-1.5108,-1.5108,-1.5108,-1.5108,-1.5108,-1.5108,-1.5108,-1.5131,-1.488,-1.4949,-1.5355,-1.5479,-1.5702,-1.6032,-1.6358,-1.6522,-1.6522,-1.6522,-1.6671,-1.6939,-1.7201,-1.768,-1.8364,-1.8898,-1.9362,-1.9708,-1.9708,-1.9654,-1.9611,-1.9611,-1.9538,-1.9413,-1.9413,-1.9584,-1.9806,0.0,0.0,0.0,0.0,0.0,0.0,0.0,0.0,0.0,0.0,0.0,0.0,0.0,-4.0555,-4.0273,-4.0273,-3.9747,-3.9298,-3.8987,-3.8149,-3.7653,-3.7595,-3.6784,-3.6285,-3.619,-3.5863,0.0,0.0,0.0,-3.543,-3.5289,-3.4628,-3.4103,-3.3695,-3.3695,-3.3015,-3.1788,-3.0912,0.0,0.0,0.0,0.0,0.0,0.0,0.0,0.0,0.0,0.0,0.0,-2.9207,-2.9283,-2.9396,-2.9396,0.0,0.0,0.0,0.0,0.0,0.0,0.0,0.0,-2.5462,-2.4728,-2.3975,-2.3224,-2.2558,-2.1931,-2.1277,-2.0747,-2.0195,-1.9525,-1.9196,-1.8839,-1.8313,-1.815,-1.7756,-1.6747,-1.6598,-1.622,-1.5234,-1.5108,-1.5108,-1.5108,-1.5108,-1.504,-1.4857,-1.4834,-1.4789,-1.4651,-1.4558,-1.464,-1.4915,-1.53,-1.5746,-1.6328,-1.6436,-1.6543,-1.6633,-1.6543,-1.665,-1.6897,-1.6905,-1.7227,-1.7808,-1.8257,-1.885,-1.9505,-1.9505,-1.9487,-1.9483,-1.9483,-1.9413,-1.9339,-1.9339,-1.9343,-1.9402,0.0,0.0,0.0,0.0,0.0,0.0,0.0,0.0,0.0,0.0,0.0,0.0,0.0,0.0,-3.9189,-3.9189,-3.8447,-3.7953,-3.7953,-3.7189,-3.6703,-3.6678,-3.6122,-3.5795,-3.5708,-3.5708,0.0,0.0,0.0,0.0,0.0,-3.4168,-3.3453,-3.2797,-3.2751,-3.2156,0.0,0.0,0.0,-2.9008,0.0,0.0,-2.8245,0.0,0.0,0.0,0.0,0.0,0.0,-2.901,0.0,0.0,0.0,0.0,0.0,0.0,0.0,0.0,-2.7319,0.0,0.0,0.0,0.0,-2.4343,-2.3362,-2.2643,-2.1969,-2.118,-2.0598,-2.0131,-1.9682,-1.9158,-1.8637,-1.8177,-1.8084,-1.7756,-1.6747,-1.6598,-1.622,-1.5234,-1.5108,-1.5108,-1.5108,-1.5108,-1.4994,-1.472,-1.4708,-1.4616,-1.4396,-1.4303,-1.4443,-1.4823,-1.5187,-1.5724,-1.65,-1.65,-1.6543,-1.662,-1.6543,-1.662,-1.6825,-1.6684,-1.6926,-1.7441,-1.768,-1.833,-1.9195,-1.9339,-1.9395,-1.9376,-1.9376,-1.9321,-1.9228,-1.9228,-1.9176,-1.9139,0.0,0.0,0.0,0.0,0.0,0.0,0.0,0.0,0.0,-4.0465,0.0,0.0,0.0,0.0,0.0,-3.7938,-3.7276,-3.6855,-3.6855,-3.6182,-3.5791,-3.5791,-3.5732,-3.5704,-3.5704,-3.5692,0.0,0.0,0.0,0.0,0.0,0.0,-3.2674,-3.0987,-3.0846,-3.1189,-3.1805,0.0,-2.9802,-2.9815,0.0,-2.8891,-2.8285,0.0,0.0,0.0,-2.8479,-2.8619,0.0,-2.8785,0.0,0.0,0.0,0.0,0.0,0.0,0.0,0.0,0.0,0.0,0.0,0.0,0.0,-2.4618,-2.3806,-2.2794,-2.1841,-2.1155,-2.0485,-2.0016,-1.9991,-1.9344,-1.8637,-1.8193,-1.8111,-1.7756,-1.6747,-1.6598,-1.622,-1.5234,-1.5108,-1.5108,-1.5085,-1.5085,-1.4971,-1.4708,-1.4674,-1.4581,-1.4384,-1.4127,-1.4314,-1.5062,-1.5085,-1.5524,-1.6466,-1.6466,-1.65,-1.65,-1.65,-1.6565,-1.6697,-1.6543,-1.6774,-1.7271,-1.7227,-1.7787,-1.8803,-1.9195,-1.9339,-1.9302,-1.9302,-1.9195,-1.9101,-1.9101,-1.9101,-1.9101,0.0,0.0,0.0,0.0,0.0,0.0,-4.038,-3.9826,-3.9404,0.0,0.0,0.0,-3.8189,-3.7519,-3.6806,-3.6163,-3.5931,-3.5807,-3.5807,-3.5618,-3.5524,-3.5585,-3.5605,-3.5649,-3.5692,-3.5596,-3.5247,-3.4614,-3.4388,-3.3845,-3.3005,-3.2139,-3.1477,0.0,-3.0493,-3.0079,-2.9732,-2.9174,0.0,-2.8663,-2.8558,-2.8392,0.0,0.0,0.0,0.0,0.0,-2.8419,-2.8582,0.0,-2.8827,-2.912,0.0,0.0,0.0,0.0,0.0,0.0,-2.7511,0.0,0.0,0.0,0.0,0.0,-2.4194,-2.3477,-2.2717,-2.165,-2.1017,-2.0521,-2.0093,-1.9344,-1.8771,-1.8637,-1.8329,-1.7756,-1.6747,-1.6598,-1.622,-1.5234,-1.5108,-1.5017,-1.4834,-1.4823,-1.4639,-1.4221,-1.4197,-1.408,-1.3823,-1.3763,-1.3975,-1.4581,-1.4581,-1.5051,-1.5976,-1.5986,-1.6207,-1.6654,-1.6556,-1.6565,-1.6697,-1.6543,-1.6573,-1.6731,-1.706,-1.7537,-1.8108,-1.8572,-1.8898,-1.9157,-1.9157,-1.912,-1.9101,-1.9101,-1.9101,-1.9101,0.0,0.0,-4.0133,-3.9652,0.0,-3.9595,-3.9155,-3.8668,-3.8325,0.0,0.0,0.0,-3.6634,-3.6208,-3.5737,-3.525,-3.5237,-3.5259,-3.5259,-3.5327,-3.538,-3.5419,-3.5129,-3.4993,-3.5033,-3.4596,-3.4109,-3.3615,-3.341,-3.2871,-3.2007,-3.1286,-3.0697,-3.0234,-2.9787,-2.9283,0.0,0.0,0.0,0.0,-2.8408,0.0,0.0,-2.8426,-2.8383,0.0,0.0,0.0,-2.838,-2.838,-2.8466,0.0,0.0,0.0,0.0,0.0,0.0,0.0,0.0,0.0,0.0,0.0,0.0,0.0,-2.4567,-2.3809,-2.2972,-2.1769,-2.1299,-2.093,-2.0384,-1.9759,-1.9291,-1.9291,-1.8934,-1.8154,-1.6786,-1.6598,-1.622,-1.5234,-1.4994,-1.4857,-1.4731,-1.4605,-1.443,-1.402,-1.3997,-1.3868,-1.361,-1.3597,-1.3858,-1.4373,-1.4396,-1.4846,-1.5788,-1.581,-1.6064,-1.662,-1.6543,-1.6543,-1.662,-1.6543,-1.65,-1.6522,-1.6799,-1.7144,-1.7578,-1.8028,-1.8572,-1.9101,-1.9101,-1.9101,-1.9101,-1.9101,-1.9101,-1.9101,0.0,0.0,-3.9537,-3.8691,-3.8546,-3.8271,-3.7513,-3.7294,-3.7208,0.0,-3.6527,-3.5731,-3.4955,-3.4879,-3.4841,-3.4747,-3.4849,-3.4863,-3.4767,-3.4877,-3.4948,-3.4963,-3.4308,-3.3913,-3.3921,-3.3161,-3.2727,-3.2605,-3.2422,-3.187,-3.1027,-3.0809,-3.0165,-2.9188,-2.8952,-2.8725,-2.8479,0.0,0.0,-2.829,-2.8626,-2.8511,0.0,0.0,-2.8464,-2.814,-2.814,-2.8168,-2.8196,-2.8196,-2.8246,0.0,0.0,0.0,0.0,0.0,-2.7774,0.0,0.0,0.0,0.0,0.0,-2.6573,0.0,-2.4981,-2.4071,-2.3047,-2.1874,-2.1626,-2.1482,-2.0959,-2.0459,-2.0118,-2.0093,-1.9708,-1.8782,-1.6987,-1.6698,-1.6293,-1.5268,-1.488,-1.4685,-1.4685,-1.4477,-1.4244,-1.3973,-1.3973,-1.3844,-1.361,-1.3597,-1.3823,-1.4303,-1.4303,-1.4743,-1.5634,-1.5712,-1.5954,-1.6423,-1.6479,-1.65,-1.65,-1.65,-1.65,-1.65,-1.65,-1.6778,-1.724,-1.7598,-1.8246,-1.9045,-1.9082,-1.9101,-1.9101,-1.9101,-1.9101,-1.9101,-3.7955,-3.7934,-3.7867,-3.7685,-3.7612,-3.7521,-3.7351,-3.6635,-3.6117,-3.6117,-3.541,-3.4846,-3.4676,-3.4658,-3.4394,-3.3746,-3.372,-3.3438,-3.2732,-3.2704,-3.2779,-3.2876,-3.283,-3.2812,-3.2802,-3.2648,-3.2192,-3.1423,-3.1278,-3.0791,-2.9982,-2.9686,-2.941,-2.9188,-2.8767,-2.8556,-2.8466,0.0,0.0,-2.8642,-2.8137,-2.7886,-2.7777,-2.7604,-2.7644,-2.7789,-2.7789,-2.7965,-2.8196,-2.8196,-2.8331,-2.8463,0.0,0.0,0.0,-2.7786,0.0,0.0,0.0,0.0,0.0,0.0,-2.6725,0.0,-2.5617,-2.5008,-2.4266,-2.3238,-2.2995,-2.2793,-2.2105,-2.1307,-2.072,-2.0646,-1.9939,-1.8962,-1.7739,-1.7314,-1.6764,-1.5631,-1.504,-1.4639,-1.4466,-1.4221,-1.3962,-1.3692,-1.3692,-1.3668,-1.3597,-1.3597,-1.3644,-1.3752,-1.3763,-1.4059,-1.4663,-1.5051,-1.5479,-1.5942,-1.6315,-1.65,-1.65,-1.65,-1.65,-1.65,-1.65,-1.6778,-1.722,-1.7282,-1.7828,-1.8649,-1.8969,-1.9101,-1.9101,-1.9101,-1.9101,-1.9101,-3.7254,-3.7244,-3.7112,-3.6667,-3.6567,-3.6421,-3.6007,-3.5539,-3.5162,-3.5071,-3.4587,-3.4141,-3.3833,-3.3807,-3.3521,-3.282,-3.2745,-3.2567,-3.2135,-3.2097,-3.2136,-3.2194,-3.1882,-3.1692,-3.1708,-3.1313,-3.0862,-3.0394,-3.0265,-2.9934,-2.9453,-2.9228,0.0,0.0,-2.8782,-2.8675,0.0,0.0,-2.7914,-2.8185,-2.7476,0.0,-2.7919,-2.7223,-2.7165,-2.7459,-2.7642,-2.7922,-2.8182,-2.8126,-2.8091,0.0,-2.7908,-2.7763,-2.763,0.0,-2.7405,-2.7299,0.0,0.0,0.0,-2.7135,-2.6758,0.0,0.0,-2.5349,-2.4623,-2.377,-2.3398,-2.3054,-2.242,-2.1856,-2.15,-2.1465,-2.087,-2.0087,-1.9268,-1.8435,-1.7521,-1.6329,-1.6091,-1.5727,-1.5053,-1.4757,-1.4326,-1.3655,-1.3597,-1.3597,-1.3597,-1.3597,-1.3597,-1.3597,-1.3597,-1.3858,-1.4396,-1.4628,-1.5085,-1.581,-1.6042,-1.6259,-1.65,-1.65,-1.65,-1.65,-1.65,-1.6629,-1.6884,-1.7094,-1.7578,-1.8187,-1.863,-1.8917,-1.9101,-1.9101,-1.9101,-1.9101,-3.6584,-3.6626,-3.64,-3.5694,-3.5526,-3.5237,-3.46,-3.445,-3.4284,-3.3974,-3.3746,-3.3376,-3.2713,0.0,0.0,0.0,0.0,-3.1803,-3.1476,-3.1616,-3.1645,-3.1536,-3.0909,-3.0582,-3.062,-2.9992,-2.9636,-2.9588,-2.9481,-2.9312,-2.9123,-2.9026,0.0,0.0,0.0,0.0,0.0,0.0,0.0,-2.7589,0.0,-2.7097,-2.7842,-2.6962,-2.6791,-2.71,-2.7444,-2.7745,-2.7936,-2.7879,-2.7745,-2.7612,-2.7524,-2.7421,0.0,0.0,0.0,0.0,0.0,0.0,0.0,0.0,0.0,-2.6435,0.0,0.0,0.0,-2.4246,-2.3755,-2.3297,-2.2823,-2.2506,-2.2291,-2.2244,-2.1851,-2.1336,-2.073,-1.9788,-1.8646,-1.728,-1.7219,-1.6942,-1.6026,-1.5478,-1.4766,-1.3675,-1.3597,-1.3597,-1.3597,-1.3597,-1.3597,-1.3597,-1.3597,-1.381,-1.4233,-1.435,-1.4823,-1.5656,-1.5766,-1.6064,-1.65,-1.65,-1.65,-1.65,-1.65,-1.65,-1.6543,-1.6905,-1.731,-1.774,-1.8285,-1.8745,-1.9101,-1.9101,-1.9101,-1.9101,-3.4765,-3.4875,-3.4857,-3.4763,-3.4482,-3.4253,-3.4179,-3.3895,-3.3456,-3.271,-3.2592,-3.2263,0.0,0.0,0.0,0.0,0.0,0.0,-2.927,0.0,0.0,-2.9451,-2.9413,-2.945,-2.9568,-2.9547,-2.9421,-2.9156,-2.9145,-2.9037,-2.8845,-2.8657,0.0,0.0,-2.8053,0.0,0.0,0.0,-2.6978,0.0,-2.6402,-2.6293,0.0,-2.638,-2.64,-2.6624,-2.6952,-2.7082,-2.7082,-2.7301,-2.7365,-2.7365,0.0,-2.7481,-2.7434,-2.7329,0.0,0.0,0.0,0.0,0.0,0.0,-2.6975,-2.6792,-2.6228,0.0,-2.5835,-2.5411,0.0,-2.4608,-2.4384,0.0,0.0,-2.2844,-2.2374,-2.1825,-2.1277,-2.115,-2.0366,-1.8452,-1.7665,-1.7254,-1.7122,-1.5937,-1.4766,-1.3675,-1.3597,-1.3597,-1.3597,-1.3597,-1.3597,-1.3597,-1.3597,-1.3634,-1.3681,-1.4163,-1.4651,-1.5176,-1.5601,-1.6064,-1.65,-1.65,-1.65,-1.65,-1.65,-1.65,-1.65,-1.6565,-1.685,-1.7352,-1.8187,-1.8745,-1.9101,-1.9101,-1.9101,-1.9101,-3.3788,-3.4023,-3.4023,-3.4023,-3.3895,-3.382,-3.382,-3.3204,-3.2436,-3.1637,-3.1386,0.0,0.0,0.0,0.0,0.0,0.0,-3.0019,0.0,0.0,0.0,0.0,-2.895,-2.8996,-2.9048,-2.9075,-2.903,-2.8922,-2.8922,-2.8779,-2.8505,0.0,0.0,0.0,-2.7847,0.0,-2.8004,0.0,-2.6604,0.0,0.0,-2.5939,-2.6033,-2.6026,-2.6207,-2.6454,-2.6607,-2.6757,-2.6905,-2.6938,-2.7052,-2.7164,-2.7117,-2.7231,0.0,-2.733,0.0,0.0,0.0,0.0,-2.725,-2.7057,-2.6991,-2.6892,-2.6522,-2.6263,-2.6052,-2.5872,0.0,0.0,0.0,0.0,0.0,0.0,-2.2875,-2.2495,-2.2245,-2.1974,-2.1236,-1.9687,-1.931,-1.8846,-1.8067,-1.6899,-1.5843,-1.5003,-1.4755,-1.4456,-1.408,-1.3776,-1.3597,-1.3597,-1.3597,-1.3597,-1.3597,-1.3823,-1.4339,-1.5108,-1.53,-1.5778,-1.65,-1.65,-1.65,-1.65,-1.65,-1.65,-1.65,-1.65,-1.6913,-1.7578,-1.7948,-1.8364,-1.8784,-1.9007,-1.9101,-1.9101,-3.2455,0.0,0.0,0.0,0.0,0.0,-3.2762,0.0,0.0,0.0,0.0,0.0,-2.9359,-2.9283,0.0,0.0,-2.9362,-2.9489,0.0,0.0,-2.9497,0.0,0.0,0.0,0.0,-2.8797,-2.8749,-2.8651,-2.8651,-2.8474,0.0,0.0,0.0,0.0,0.0,-2.7489,-2.7923,0.0,-2.6208,-2.6171,-2.5917,-2.5752,-2.568,-2.5791,-2.601,-2.6208,-2.6208,-2.635,-2.6539,-2.6521,-2.6641,-2.6791,-2.6725,-2.6858,-2.7056,0.0,0.0,0.0,-2.7137,-2.7153,-2.7105,-2.7007,-2.6992,-2.6925,-2.6742,-2.647,-2.6263,-2.6263,-2.5815,0.0,0.0,0.0,-2.4349,0.0,0.0,-2.3246,-2.3113,-2.2649,-2.1936,-2.0912,-2.0729,-2.0177,-1.8884,-1.7933,-1.7047,-1.6229,-1.5804,-1.5303,-1.4662,-1.411,-1.3763,-1.3597,-1.3597,-1.3597,-1.3597,-1.3597,-1.4106,-1.5108,-1.5108,-1.5591,-1.65,-1.65,-1.65,-1.65,-1.65,-1.65,-1.65,-1.65,-1.6871,-1.7462,-1.772,-1.8008,-1.8364,-1.8898,-1.9101,-1.9101,-3.0373,-3.0882,0.0,0.0,0.0,0.0,0.0,0.0,0.0,0.0,0.0,0.0,0.0,0.0,0.0,0.0,0.0,-2.908,-2.8263,0.0,-2.9142,0.0,0.0,-2.8607,0.0,0.0,0.0,-2.8313,0.0,0.0,0.0,0.0,0.0,0.0,-2.7084,-2.6791,-2.6708,-2.603,-2.568,-2.5635,-2.5616,-2.5616,-2.5616,-2.568,-2.5719,-2.5721,-2.5721,-2.5696,-2.5675,-2.5936,-2.6028,-2.6082,-2.6331,-2.6418,-2.6435,-2.6435,-2.6435,-2.6487,-2.6758,-2.6775,-2.6775,-2.6958,-2.6959,-2.6859,-2.6742,-2.6691,-2.6674,-2.6674,-2.6296,-2.5937,-2.5795,-2.5384,0.0,0.0,0.0,0.0,0.0,-2.3179,-2.2672,-2.21,-2.1524,-2.0715,-1.9494,-1.8944,-1.8154,-1.6972,-1.6383,-1.5807,-1.5218,-1.4671,-1.414,-1.3621,-1.3597,-1.3597,-1.3597,-1.3597,-1.4106,-1.5108,-1.5108,-1.5591,-1.65,-1.65,-1.65,-1.65,-1.65,-1.65,-1.65,-1.65,-1.6522,-1.6616,-1.7462,-1.7808,-1.7928,-1.8784,-1.9101,-1.9101,0.0,0.0,0.0,0.0,0.0,0.0,0.0,-2.963,0.0,0.0,-2.855,0.0,0.0,-2.8196,-2.8196,0.0,0.0,-2.9052,-2.8249,-2.8945,0.0,0.0,0.0,-2.8327,0.0,0.0,0.0,0.0,0.0,0.0,0.0,0.0,0.0,0.0,0.0,-2.6418,0.0,0.0,0.0,0.0,0.0,-2.5521,-2.541,-2.5565,-2.5621,-2.5621,-2.5621,-2.5619,-2.5616,-2.5694,-2.5844,-2.601,-2.6118,-2.6261,-2.6367,-2.6228,-2.6192,-2.621,-2.6315,-2.6315,-2.6367,-2.6657,-2.6725,-2.6708,-2.6708,-2.6691,-2.6691,-2.6691,-2.6538,-2.6312,-2.5995,0.0,0.0,0.0,0.0,0.0,0.0,-2.409,-2.3638,-2.3143,-2.2267,-2.137,-2.0662,-2.0454,-1.9853,-1.8634,-1.8093,-1.7352,-1.6315,-1.5788,-1.515,-1.4351,-1.4421,-1.4269,-1.3868,-1.3868,-1.428,-1.5108,-1.5108,-1.5591,-1.65,-1.65,-1.65,-1.65,-1.65,-1.65,-1.65,-1.65,-1.668,-1.7031,-1.7564,-1.7988,-1.8324,-1.8879,-1.9101,-1.912,-2.7336,0.0,0.0,0.0,0.0,0.0,0.0,0.0,0.0,0.0,-2.7745,0.0,-2.7836,0.0,-2.8025,0.0,-2.8603,-2.8748,-2.8231,-2.8677,0.0,-2.8231,-2.8196,0.0,0.0,0.0,0.0,0.0,0.0,-2.7707,0.0,0.0,0.0,0.0,0.0,-2.6243,-2.5974,-2.5712,-2.5597,0.0,0.0,-2.5505,-2.541,-2.5559,-2.5559,-2.5486,-2.5578,-2.5597,-2.5597,-2.5597,-2.5512,-2.5413,-2.5413,-2.5291,-2.5116,-2.501,-2.4958,-2.4976,-2.5081,-2.5261,-2.551,-2.5809,-2.606,-2.6261,-2.6436,-2.6487,-2.6522,-2.6674,-2.6657,-2.6486,-2.6066,-2.5975,0.0,0.0,0.0,0.0,0.0,-2.4659,-2.4292,-2.3985,-2.295,-2.2058,-2.1561,-2.1513,-2.1027,-1.9868,-1.949,-1.8764,-1.754,-1.7002,-1.6279,-1.5303,-1.5361,-1.5108,-1.4501,-1.4455,-1.4777,-1.5412,-1.5367,-1.5746,-1.65,-1.65,-1.65,-1.65,-1.65,-1.65,-1.65,-1.65,-1.6693,-1.6976,-1.7413,-1.7848,-1.8324,-1.8879,-1.912,-1.9176,-2.6641,-2.6691,0.0,0.0,-2.7639,0.0,-2.7303,-2.7384,-2.7353,0.0,-2.7099,-2.7197,-2.7197,-2.7491,-2.7686,-2.7686,-2.7968,-2.8154,-2.8154,-2.8168,0.0,0.0,-2.8182,-2.8196,-2.8196,0.0,0.0,0.0,0.0,0.0,0.0,0.0,0.0,0.0,-2.6504,0.0,-2.5956,-2.5712,-2.5597,-2.5597,-2.5578,-2.5559,-2.5559,-2.554,-2.5391,-2.5256,-2.5486,-2.5546,-2.5532,-2.5495,-2.4933,-2.4227,-2.4227,-2.3622,-2.2905,-2.2887,-2.2887,-2.2941,-2.3207,-2.367,-2.42,-2.4507,-2.5009,-2.5547,-2.598,-2.607,-2.6192,-2.6556,-2.659,-2.6417,-2.6064,-2.6276,-2.6222,0.0,0.0,0.0,0.0,-2.4906,-2.4643,-2.4603,-2.3629,-2.2762,-2.2198,-2.2128,-2.167,-2.0624,-2.0454,-1.9906,-1.8809,-1.8262,-1.7493,-1.6432,-1.6361,-1.6077,-1.548,-1.5355,-1.5557,-1.5988,-1.5866,-1.6064,-1.65,-1.65,-1.65,-1.65,-1.65,-1.65,-1.65,-1.65,-1.65,-1.6543,-1.701,-1.7455,-1.7928,-1.8784,-1.9176,-1.9321,-2.647,-2.6487,-2.6539,0.0,-2.6937,-2.7002,-2.6674,-2.6873,-2.6987,0.0,-2.6938,-2.705,-2.705,-2.7227,-2.7338,-2.7338,-2.74,0.0,0.0,0.0,0.0,-2.7836,-2.8067,-2.8196,-2.8196,-2.8071,-2.7925,-2.7774,0.0,0.0,-2.6989,0.0,0.0,0.0,0.0,0.0,-2.5694,-2.5635,-2.5597,-2.5578,-2.5208,-2.4997,-2.4819,-2.4594,-2.4369,-2.4266,-2.4859,-2.4888,-2.4585,-2.423,-2.3736,-2.3263,-2.3263,-2.3099,-2.2869,-2.2718,-2.2682,-2.2682,-2.2755,-2.2899,-2.3206,-2.4102,-2.4413,-2.4724,-2.5466,-2.5652,-2.5689,-2.5781,-2.5781,-2.5834,-2.6033,-2.6064,-2.6079,0.0,0.0,0.0,0.0,-2.5556,-2.5275,-2.4684,-2.4246,-2.37,-2.292,-2.2397,-2.1837,-2.1229,-2.0741,-2.0157,-1.9411,-1.9235,-1.8722,-1.7742,-1.7366,-1.6934,-1.6379,-1.5903,-1.5778,-1.5988,-1.5966,-1.6141,-1.65,-1.65,-1.65,-1.65,-1.65,-1.65,-1.65,-1.65,-1.65,-1.6543,-1.701,-1.7659,-1.8403,-1.9026,-1.9302,-1.9395,-2.6046,-2.6046,0.0,-2.6046,-2.6208,-2.6314,-2.6226,-2.6436,-2.6505,-2.6297,-2.6402,-2.6522,-2.6522,-2.6724,-2.6857,-2.6889,-2.7019,0.0,-2.7197,0.0,0.0,-2.7491,-2.7657,-2.7763,-2.7763,-2.763,0.0,-2.7378,0.0,0.0,-2.6758,0.0,0.0,0.0,0.0,-2.5807,-2.5467,-2.5467,-2.5275,-2.495,-2.4918,-2.4739,0.0,-2.4188,-2.4036,-2.3952,-2.4095,-2.3971,-2.3716,-2.3546,-2.2911,-2.2175,-2.2283,-2.2061,-2.1737,-2.1628,-2.159,-2.159,-2.159,-2.1807,-2.2173,-2.2786,-2.3358,-2.3986,-2.4654,-2.5029,-2.5294,-2.5465,-2.5503,-2.5521,-2.5577,-2.5813,-2.6118,0.0,0.0,0.0,0.0,0.0,-2.5294,-2.5024,-2.4583,-2.4105,-2.3625,-2.2875,-2.2305,-2.1921,-2.1277,-2.0777,-2.0492,-2.0214,-1.971,-1.8915,-1.8385,-1.7849,-1.7318,-1.6654,-1.6358,-1.6392,-1.6328,-1.6371,-1.65,-1.65,-1.65,-1.65,-1.65,-1.65,-1.65,-1.65,-1.65,-1.6565,-1.7269,-1.7848,-1.8364,-1.9139,-1.9413,-1.9413,-2.5597,0.0,0.0,0.0,0.0,-2.5675,-2.5917,-2.6045,-2.6026,-2.5735,-2.5791,-2.5862,-2.5862,-2.6154,-2.6349,-2.642,-2.6707,-2.6921,-2.7037,-2.7101,-2.7133,-2.7133,-2.7181,-2.7197,-2.7197,-2.707,-2.6988,0.0,0.0,0.0,0.0,0.0,0.0,0.0,0.0,0.0,0.0,-2.5217,-2.4791,-2.423,-2.4583,-2.4517,-2.4198,-2.3994,-2.3894,-2.3831,-2.3275,-2.3033,-2.296,-2.3064,-2.2206,-2.1112,-2.1252,-2.0784,-2.0183,-2.0183,-2.0218,-2.022,-2.022,-2.0685,-2.118,-2.1273,-2.2182,-2.3138,-2.3585,-2.415,-2.4669,-2.5115,-2.5207,-2.5144,-2.4946,-2.5503,-2.6086,-2.6399,-2.6208,-2.6104,-2.6417,0.0,0.0,0.0,-2.4614,0.0,-2.4085,-2.3391,-2.283,-2.2603,-2.1945,-2.1554,-2.1616,-2.1106,-2.055,-1.993,-1.9342,-1.8767,-1.8205,-1.7488,-1.708,-1.6897,-1.6782,-1.6663,-1.6522,-1.65,-1.65,-1.65,-1.65,-1.65,-1.65,-1.65,-1.65,-1.6595,-1.753,-1.7948,-1.8108,-1.9139,-1.9527,-1.9564,0.0,0.0,0.0,0.0,-2.5597,-2.5616,-2.5656,-2.5675,-2.5675,-2.5635,-2.5696,-2.5738,-2.5738,-2.5883,-2.599,-2.5992,-2.6101,-2.619,-2.6208,-2.6573,0.0,-2.6791,-2.7053,-2.7197,-2.7197,-2.707,-2.694,0.0,0.0,0.0,0.0,0.0,0.0,0.0,0.0,0.0,-2.5486,-2.4655,-2.4477,-2.4704,-2.4069,-2.3788,-2.3659,-2.3083,-2.2859,-2.2814,-2.2495,-2.2491,-2.2532,-2.1704,-2.099,-2.0372,-1.9923,-1.9685,-1.956,-1.956,-1.9711,-1.9892,-1.9892,-2.0174,-2.0595,-2.1165,-2.1473,-2.1815,-2.2446,-2.2662,-2.2929,-2.3565,-2.3693,-2.3928,-2.4749,-2.5253,-2.5538,-2.561,-2.5556,-2.5556,-2.5687,-2.5521,0.0,0.0,-2.3938,-2.3702,-2.3471,-2.3266,-2.3128,-2.3084,-2.2589,-2.2095,-2.164,-2.1496,-2.1164,-2.0555,-1.9956,-1.9368,-1.8767,-1.8196,-1.7609,-1.6981,-1.6897,-1.6791,-1.6654,-1.6543,-1.65,-1.65,-1.65,-1.65,-1.65,-1.65,-1.65,-1.6552,-1.718,-1.7652,-1.8088,-1.8774,-1.9577,-2.0332,0.0,0.0,0.0,0.0,-2.5243,-2.532,-2.5562,-2.5394,-2.532,-2.5578,-2.5637,-2.564,-2.564,-2.5712,-2.5768,-2.5791,-2.5899,-2.5954,-2.5954,-2.6259,-2.6417,-2.6331,-2.6555,-2.6691,-2.6691,-2.6555,-2.6435,-2.6331,-2.6208,0.0,0.0,0.0,0.0,0.0,0.0,-2.5201,0.0,-2.4497,-2.4147,-2.3803,-2.3659,-2.3436,-2.3135,-2.2752,-2.2555,-2.2463,-2.2278,-2.2272,-2.2294,-2.1607,-2.0796,-2.0079,-1.9912,-1.9645,-1.9395,-1.9395,-1.949,-1.9621,-1.9752,-1.9927,-2.0159,-2.0652,-2.1042,-2.1381,-2.172,-2.2058,-2.2397,-2.2701,-2.2778,-2.2991,-2.3727,-2.3997,-2.4145,-2.4342,-2.4216,-2.4179,-2.438,-2.4071,-2.3736,0.0,0.0,0.0,-2.2782,-2.3061,-2.3384,-2.3702,-2.2965,-2.2351,-2.1978,-2.1722,-2.1326,-2.0724,-2.01,-1.9669,-1.9368,-1.8532,-1.7891,-1.745,-1.708,-1.6825,-1.6697,-1.6543,-1.65,-1.65,-1.65,-1.65,-1.65,-1.65,-1.6543,-1.6684,-1.7415,-1.7901,-1.8288,-1.9411,-2.0167,-2.0601,0.0,-2.4902,0.0,0.0,-2.5036,-2.513,-2.5413,-2.513,-2.5036,-2.5394,-2.5451,-2.5451,-2.5451,-2.5524,-2.5619,-2.568,-2.5789,-2.5862,-2.5862,-2.6025,-2.6114,-2.5992,-2.6097,-2.6168,-2.6202,-2.6097,-2.6008,-2.5917,-2.5809,-2.5698,-2.5619,0.0,0.0,0.0,-2.5068,-2.4614,-2.4141,-2.4209,-2.3724,-2.3007,-2.3319,-2.3201,-2.2818,-2.2661,-2.2532,-2.2417,-2.2254,-2.2208,-2.2146,-2.1902,-2.1091,-2.0194,-2.0117,-1.9773,-1.9365,-1.9253,-1.9246,-1.9343,-1.9551,-1.9645,-1.9785,-2.01,-2.0584,-2.1001,-2.107,-2.147,-2.1882,-2.204,-2.2212,-2.2399,-2.2721,-2.276,-2.2848,-2.3115,-2.2939,-2.2866,-2.3131,-2.2679,-2.2356,0.0,0.0,0.0,-2.2289,-2.2778,-2.34,-2.4126,-2.3268,-2.2603,-2.2337,-2.1992,-2.1458,-2.0724,-2.0351,-2.0061,-1.9799,-1.878,-1.8161,-1.793,-1.7231,-1.6846,-1.674,-1.6565,-1.65,-1.65,-1.65,-1.65,-1.65,-1.6522,-1.6599,-1.6782,-1.7659,-1.8222,-1.8675,-2.0045,-2.081,-2.1141,0.0,0.0,-2.5036,-2.5467,-2.5524,-2.5413,-2.5017,-2.4922,-2.4922,-2.4962,-2.4977,-2.4977,-2.4977,-2.5355,-2.5597,-2.5616,-2.568,-2.5719,-2.5719,-2.5862,-2.5954,-2.5992,-2.6026,-2.6079,-2.6202,-2.6185,-2.6115,-2.599,-2.5917,-2.5826,-2.5682,-2.5637,-2.5375,-2.4922,-2.3991,-2.3831,-2.4219,-2.3334,-2.3179,-2.3501,-2.312,-2.2947,-2.288,-2.2684,-2.2592,-2.2555,-2.2301,-2.2208,-2.2194,-2.2161,-2.1705,-2.0972,-1.9844,-1.945,-1.9295,-1.8731,-1.8755,-1.8955,-1.8974,-1.9213,-1.949,-1.9785,-1.9887,-2.0018,-2.0312,-2.0356,-2.0502,-2.1239,-2.1889,-2.2305,-2.2343,-2.2362,-2.2381,-2.2399,-2.2381,-2.2381,-2.2399,-2.2343,-2.2093,-2.1512,0.0,0.0,-2.2243,-2.2347,-2.2913,-2.4116,-2.3653,-2.3061,-2.2512,-2.2443,-2.1884,-2.0724,-2.1175,-2.0917,-1.9812,-1.9159,-1.8584,-1.8065,-1.7286,-1.6876,-1.6854,-1.6629,-1.65,-1.65,-1.65,-1.65,-1.65,-1.662,-1.6675,-1.6761,-1.7475,-1.8337,-1.9284,-1.9917,-2.1163,-2.2508,-2.4131,-2.4131,-2.4173,-2.4374,-2.4395,-2.4436,-2.4533,-2.4646,-2.4563,-2.4156,-2.4374,-2.4533,-2.4533,-2.4914,-2.5169,-2.5169,-2.5513,-2.5682,-2.564,-2.5789,-2.5899,-2.5936,-2.5936,-2.5972,-2.6079,-2.5954,-2.5864,-2.5811,-2.5476,-2.5269,-2.5214,-2.5192,-2.5075,-2.4863,-2.423,-2.3931,-2.3846,-2.3451,-2.3231,-2.3164,-2.2978,-2.288,-2.2826,-2.2661,-2.2555,-2.2463,-2.2278,-2.2208,-2.2208,-2.2208,-2.18,-2.1195,-2.0703,-2.0288,-1.9859,-1.9228,-1.9125,-1.9166,-1.8941,-1.9007,-1.9176,-1.9475,-1.9563,-1.9636,-1.9887,-1.9904,-1.9998,-2.0429,-2.076,-2.0998,-2.1088,-2.1103,-2.1103,-2.1103,-2.1103,-2.1103,-2.1103,-2.1103,-2.0996,-2.0718,0.0,-2.0949,-2.1627,-2.2074,-2.2686,-2.358,-2.3844,-2.3638,-2.295,-2.2807,-2.2443,-2.1789,-2.1434,-2.1108,-2.0879,-1.9911,-1.9159,-1.8571,-1.7843,-1.7282,-1.6876,-1.6718,-1.6577,-1.65,-1.65,-1.6556,-1.662,-1.6675,-1.6939,-1.7391,-1.8303,-1.9123,-1.9933,-2.1215,-2.2116,-2.2748,-2.3653,-2.3759,-2.3938,-2.4053,-2.424,-2.442,-2.463,-2.4776,-2.4641,-2.403,-2.4094,-2.4158,-2.4109,-2.4477,-2.4719,-2.4719,-2.5075,-2.5266,-2.522,-2.5339,-2.5454,-2.5457,-2.5586,-2.5698,-2.5756,-2.5772,-2.5772,-2.5772,-2.5346,-2.5153,-2.5118,-2.4843,-2.4643,-2.4502,-2.4078,-2.3696,-2.3392,-2.3392,-2.3209,-2.2888,-2.2888,-2.2872,-2.2787,-2.2638,-2.2509,-2.237,-2.2254,-2.2208,-2.2208,-2.2208,-2.1912,-2.1518,-2.135,-2.1012,-2.0526,-1.9887,-1.9564,-1.9353,-1.912,-1.8922,-1.8836,-1.9101,-1.9157,-1.9213,-1.9369,-1.9387,-1.9439,-1.9654,-1.9854,-2.0048,-2.015,-2.022,-2.0304,-2.0304,-2.0304,-2.0304,-2.0304,-2.0304,-2.0304,-2.0304,-2.0304,-2.0643,-2.1504,-2.2028,-2.2655,-2.3533,-2.3938,-2.3846,-2.3143,-2.2979,-2.2686,-2.2189,-2.1589,-2.135,-2.1423,-2.034,-1.9499,-1.8898,-1.8224,-1.7544,-1.6876,-1.6705,-1.6599,-1.65,-1.65,-1.6543,-1.6667,-1.6896,-1.7375,-1.803,-1.9003,-1.9913,-2.0808,-2.202,-2.2682,-2.3032,-2.3523,-2.4126,-2.4709,-2.5111,-2.5737,-2.6001,-2.5548,-2.5493,-2.5304,-2.4854,-2.4268,-2.3837,-2.3626,-2.4015,-2.4302,-2.4302,-2.4302,-2.4317,-2.4317,-2.4317,-2.4349,-2.441,-2.4859,-2.515,-2.5211,-2.5661,-2.5897,-2.5897,-2.5772,-2.5701,-2.5682,-2.4735,-2.4057,-2.361,-2.312,-2.291,-2.2925,-2.2925,-2.2925,-2.2888,-2.2888,-2.2872,-2.2787,-2.2638,-2.2509,-2.237,-2.2254,-2.2208,-2.2208,-2.2208,-2.2208,-2.2095,-2.1476,-2.1279,-2.1167,-2.0569,-1.9915,-1.939,-1.941,-1.8961,-1.8523,-1.8592,-1.8611,-1.8635,-1.8703,-1.866,-1.8674,-1.8874,-1.9394,-1.9806,-1.9806,-2.0083,-2.0304,-2.0304,-2.0304,-2.0304,-2.0304,-2.0304,-2.0304,-2.0304,-2.0304,-2.0811,-2.2166,-2.2305,-2.284,-2.4194,-2.3994,-2.3545,-2.2934,-2.2889,-2.2434,-2.1434,-2.1793,-2.1688,-2.1021,-2.0208,-1.9499,-1.8898,-1.8224,-1.7544,-1.6876,-1.6629,-1.65,-1.65,-1.65,-1.65,-1.6559,-1.7368,-1.7991,-1.8564,-1.9314,-2.0572,-2.1974,-2.1931,-2.2621,-2.3595,-2.4414,-2.4599,-2.4793,-2.4905,-2.5145,-2.5259,-2.5116,-2.5443,-2.5487,-2.4892,-2.5038,-2.4835,-2.3919,-2.3813,-2.3824,-2.3824,-2.4114,-2.4302,-2.4302,-2.4302,-2.4328,-2.4389,-2.4497,-2.4735,-2.513,-2.4914,-2.4934,-2.5211,-2.4899,-2.4755,-2.4735,-2.3782,-2.3451,-2.3573,-2.3098,-2.2888,-2.2888,-2.2888,-2.2888,-2.2888,-2.2888,-2.2872,-2.2787,-2.2638,-2.2509,-2.237,-2.2254,-2.2208,-2.2208,-2.2208,-2.2208,-2.218,-2.1969,-2.1912,-2.18,-2.1195,-2.0872,-2.0498,-1.9635,-1.9168,-1.8815,-1.8424,-1.8214,-1.8155,-1.8333,-1.8553,-1.8808,-1.9058,-1.9262,-1.9409,-1.9508,-1.9599,-1.9687,-1.9687,-1.9836,-1.9962,-1.9962,-2.0168,-2.0304,-2.0304,-2.0687,-2.1319,-2.2212,-2.2701,-2.3348,-2.4241,-2.4198,-2.4073,-2.3867,-2.3143,-2.2867,-2.3031,-2.2086,-2.1616,-2.1688,-2.0835,-2.0111,-1.9512,-1.9295,-1.8789,-1.8054,-1.787,-1.7756,-1.7664,-1.7756,-1.7847,-1.7986,-1.8535,-1.9145,-1.9829,-2.0933,-2.1829,-2.2545,-2.3025,-2.3366,-2.3595,-2.481,-2.4998,-2.5172,-2.5172,-2.5415,-2.5604,-2.5604,-2.5948,-2.6025,-2.5618,-2.5691,-2.5513,-2.4689,-2.4082,-2.3615,-2.3356,-2.3625,-2.3775,-2.3775,-2.3775,-2.3803,-2.3822,-2.3958,-2.4188,-2.4538,-2.4369,-2.4426,-2.4679,-2.4426,-2.4219,-2.4015,-2.3451,-2.3231,-2.3326,-2.3045,-2.2888,-2.2888,-2.2888,-2.2888,-2.2888,-2.2888,-2.2872,-2.2787,-2.2638,-2.2509,-2.237,-2.2254,-2.2208,-2.2208,-2.2208,-2.2208,-2.2208,-2.2208,-2.2137,-2.1997,-2.1606,-2.1326,-2.0955,-2.0071,-1.9547,-1.9124,-1.844,-1.818,-1.8051,-1.7963,-1.8214,-1.8533,-1.8769,-1.8959,-1.9109,-1.9195,-1.9321,-1.9395,-1.9395,-1.9545,-1.9657,-1.9657,-1.9833,-1.9993,-2.0098,-2.0696,-2.144,-2.2224,-2.2902,-2.3579,-2.4256,-2.4177,-2.4114,-2.4114,-2.3355,-2.3068,-2.3377,-2.2296,-2.1722,-2.1769,-2.1229,-2.0582,-1.9799,-1.9543,-1.9162,-1.8662,-1.8486,-1.838,-1.8356,-1.8333,-1.8427,-1.8639,-1.9341,-2.0021,-2.0709,-2.1808,-2.2591,-2.3155,-2.346,-2.3653,-2.3739,-2.494,-2.5444,-2.5876,-2.5876,-2.6399,-2.6806,-2.6806,-2.6806,-2.6806,-2.6806,-2.6268,-2.5836,-2.5818,-2.4757,-2.3746,-2.3018,-2.2917,-2.2888,-2.2888,-2.2888,-2.2888,-2.2888,-2.3326,-2.3573,-2.3595,-2.3994,-2.4219,-2.424,-2.4219,-2.3994,-2.3595,-2.3573,-2.3326,-2.2888,-2.2888,-2.2888,-2.2888,-2.2888,-2.2888,-2.2888,-2.2888,-2.2872,-2.2787,-2.2638,-2.2509,-2.2394,-2.2254,-2.2208,-2.2208,-2.2208,-2.2208,-2.2208,-2.2208,-2.1996,-2.1769,-2.1817,-2.1407,-2.0882,-2.0588,-2.0089,-1.9454,-1.8657,-1.8419,-1.8267,-1.7723,-1.7774,-1.7983,-1.8183,-1.8567,-1.886,-1.886,-1.912,-1.9339,-1.9339,-1.9358,-1.9376,-1.9376,-1.9395,-1.9505,-1.981,-2.0451,-2.1262,-2.2248,-2.2943,-2.3625,-2.4214,-2.4009,-2.3824,-2.3797,-2.3501,-2.315,-2.2754,-2.2426,-2.1996,-2.1447,-2.1423,-2.0887,-1.9852,-1.9212,-1.8918,-1.8918,-1.8672,-1.8612,-1.8693,-1.8494,-1.8541,-1.8859,-1.993,-2.0703,-2.1319,-2.2124,-2.2987,-2.376,-2.3406,-2.3573,-2.4003,-2.6329,-2.6445,-2.6547,-2.6547,-2.6678,-2.6806,-2.6806,-2.6806,-2.6806,-2.6806,-2.6649,-2.6384,-2.5861,-2.5542,-2.4878,-2.376,-2.32,-2.2888,-2.2888,-2.2888,-2.2888,-2.2888,-2.3,-2.3231,-2.3595,-2.3363,-2.3407,-2.3782,-2.3407,-2.3363,-2.3595,-2.3231,-2.3,-2.2888,-2.2888,-2.2888,-2.2888,-2.2888,-2.2888,-2.2888,-2.2888,-2.2872,-2.2787,-2.2638,-2.2578,-2.2509,-2.2278,-2.2278,-2.2347,-2.2231,-2.2208,-2.2208,-2.2208,-2.1864,-2.1592,-2.1996,-2.172,-2.1206,-2.0882,-2.0433,-1.989,-1.9248,-1.8746,-1.846,-1.8658,-1.8398,-1.8183,-1.84,-1.8517,-1.8581,-1.8581,-1.8673,-1.8697,-1.8697,-1.8874,-1.9026,-1.9026,-1.9246,-1.959,-2.0123,-2.103,-2.1916,-2.2601,-2.3529,-2.403,-2.3931,-2.4094,-2.4073,-2.3803,-2.3717,-2.3523,-2.3172,-2.2777,-2.2342,-2.1864,-2.1544,-2.1088,-2.0478,-2.0224,-2.0084,-2.0084,-2.0035,-1.9948,-1.986,-2.0302,-2.0532,-2.0665,-2.1685,-2.2306,-2.2686,-2.334,-2.3754,-2.3961,-2.3961,-2.3982,-2.4003,-2.6806,-2.6806,-2.6806,-2.6806,-2.6806,-2.6806,-2.6806,-2.6806,-2.6806,-2.6806,-2.6806,-2.6649,-2.6312,-2.5966,-2.5527,-2.4844,-2.3905,-2.3229,-2.2917,-2.2888,-2.2888,-2.2888,-2.2888,-2.3023,-2.326,-2.3045,-2.3023,-2.3282,-2.3023,-2.3045,-2.326,-2.3023,-2.2888,-2.2888,-2.2888,-2.2888,-2.2888,-2.2888,-2.2888,-2.2888,-2.2888,-2.288,-2.2826,-2.2735,-2.2698,-2.2652,-2.2477,-2.2394,-2.2394,-2.2324,-2.2254,-2.2208,-2.2208,-2.1926,-2.1664,-2.2091,-2.165,-2.1051,-2.1111,-2.084,-2.0457,-2.0009,-1.9427,-1.9084,-1.9429,-1.9266,-1.9093,-1.9313,-1.9374,-1.9374,-1.9374,-1.9374,-1.9374,-1.9374,-1.9482,-1.9583,-1.9583,-1.9744,-2.0018,-2.0482,-2.1318,-2.2111,-2.2751,-2.3426,-2.3903,-2.403,-2.4051,-2.3988,-2.3818,-2.3946,-2.3867,-2.3538,-2.3001,-2.248,-2.2006,-2.1399,-2.0947,-2.0699,-2.0637,-2.0587,-2.0587,-2.0537,-2.0486,-2.0435,-2.0635,-2.0957,-2.1348,-2.2105,-2.2694,-2.3172,-2.3818,-2.4103,-2.4103,-2.4208,-2.4193,-2.4151,-2.6806,-2.6806,-2.6806,-2.6806,-2.6806,-2.6806,-2.6806,-2.6806,-2.6806,-2.6806,-2.6806,-2.6806,-2.6806,-2.6297,-2.5919,-2.5818,-2.4805,-2.3862,-2.3113,-2.2968,-2.2888,-2.2888,-2.2888,-2.2888,-2.2888,-2.2888,-2.2888,-2.2888,-2.2888,-2.2888,-2.2888,-2.2888,-2.2888,-2.2888,-2.2888,-2.2888,-2.2888,-2.2888,-2.2888,-2.2888,-2.2888,-2.2888,-2.2888,-2.2841,-2.2809,-2.2795,-2.2638,-2.2546,-2.2454,-2.2417,-2.2324,-2.2231,-2.2208,-2.1996,-2.1793,-2.2114,-2.1468,-2.0784,-2.1313,-2.1253,-2.1024,-2.0822,-2.0343,-1.9937,-2.0158,-2.0132,-2.012,-2.0357,-2.04,-2.04,-2.04,-2.04,-2.04,-2.04,-2.04,-2.04,-2.04,-2.04,-2.0521,-2.084,-2.142,-2.2061,-2.2715,-2.3131,-2.3603,-2.4114,-2.3988,-2.3861,-2.3797,-2.4114,-2.4177,-2.3882,-2.3201,-2.2572,-2.1996,-2.1131,-2.0699,-2.0699,-2.0699,-2.0699,-2.0699,-2.0587,-2.0587,-2.0699,-2.0548,-2.0833,-2.1434,-2.2081,-2.2672,-2.3194,-2.3919,-2.4223,-2.4208,-2.4276,-2.4302,-2.4302,-2.6806,-2.6806,-2.6806,-2.6806,-2.6806,-2.6806,-2.6806,-2.6806,-2.6806,-2.6806,-2.6806,-2.6806,-2.6806,-2.6718,-2.6428,-2.5861,-2.5629,-2.4994,-2.3818,-2.3215,-2.2888,-2.2888,-2.2888,-2.2888,-2.2888,-2.2888,-2.2888,-2.2888,-2.2888,-2.2888,-2.2888,-2.2888,-2.2888,-2.2888,-2.2888,-2.2888,-2.2888,-2.2888,-2.2888,-2.2888,-2.2888,-2.2888,-2.2888,-2.2841,-2.2841,-2.2857,-2.2661,-2.2652,-2.2689,-2.2477,-2.2394,-2.2347,-2.2254,-2.1864,-2.1568,-2.2067,-2.1612,-2.1042,-2.1602,-2.1544,-2.1372,-2.1564,-2.1153,-2.078,-2.1027,-2.0693,-2.0357,-2.04,-2.04,-2.04,-2.04,-2.04,-2.04,-2.04,-2.04,-2.04,-2.04,-2.04,-2.059,-2.1149,-2.1563,-2.204,-2.2664,-2.3333,-2.3646,-2.3473,-2.3946,-2.4094,-2.3818,-2.4114,-2.4281,-2.4219,-2.3724,-2.2957,-2.1841,-2.1082,-2.0699,-2.0699,-2.0699,-2.0699,-2.0699,-2.0687,-2.0687,-2.0749,-2.1479,-2.1647,-2.1506,-2.2942,-2.3399,-2.3253,-2.394,-2.4229,-2.4297,-2.4297,-2.4302,-2.4302,-2.6806,-2.6806,-2.6806,-2.6806,-2.6806,-2.6806,-2.6806,-2.6806,-2.6806,-2.6806,-2.6806,-2.6806,-2.6806,-2.6806,-2.6689,-2.6384,-2.6021,-2.5556,-2.495,-2.3992,-2.3273,-2.2917,-2.2888,-2.2888,-2.2888,-2.2888,-2.2888,-2.2888,-2.2888,-2.2888,-2.2888,-2.2888,-2.2888,-2.2888,-2.2888,-2.2888,-2.2888,-2.2888,-2.2888,-2.2888,-2.2888,-2.2888,-2.2902,-2.2872,-2.288,-2.2888,-2.2797,-2.2766,-2.2772,-2.2666,-2.2583,-2.2486,-2.2347,-2.2137,-2.1973,-2.2161,-2.1935,-2.166,-2.1769,-2.1817,-2.1864,-2.1996,-2.1811,-2.1648,-2.1763,-2.1575,-2.1355,-2.1355,-2.1355,-2.1355,-2.1355,-2.1355,-2.1355,-2.1355,-2.1355,-2.1355,-2.1355,-2.1355,-2.1499,-2.1849,-2.2022,-2.2325,-2.286,-2.3268,-2.3573,-2.3824,-2.4073,-2.4204,-2.4224,-2.4281,-2.4302,-2.4302,-2.3595,-2.2626,-2.1375,-2.1033,-2.0848,-2.0848,-2.0848,-2.1033,-2.1399,-2.1399,-2.1399,-2.1434,-2.2049,-2.2235,-2.218,-2.3165,-2.3653,-2.376,-2.413,-2.4276,-2.4302,-2.4302,-2.4302,-2.4302,-2.6806,-2.6806,-2.6806,-2.6806,-2.6806,-2.6806,-2.6806,-2.6806,-2.6806,-2.6806,-2.6806,-2.6806,-2.6806,-2.6806,-2.6806,-2.6806,-2.6341,-2.5977,-2.5818,-2.4863,-2.3978,-2.3171,-2.2975,-2.2888,-2.2888,-2.2888,-2.2888,-2.2888,-2.2888,-2.2888,-2.2888,-2.2888,-2.2888,-2.2888,-2.2888,-2.2888,-2.2888,-2.2888,-2.2888,-2.2888,-2.2888,-2.2888,-2.2888,-2.2888,-2.2888,-2.2888,-2.2888,-2.2872,-2.2818,-2.2809,-2.2735,-2.2615,-2.25,-2.244,-2.2417,-2.2324,-2.2301,-2.2231,-2.1973,-2.2067,-2.2254,-2.2208,-2.2231,-2.2254,-2.2208,-2.2208,-2.2208,-2.2208,-2.2208,-2.2208,-2.2208,-2.2208,-2.2208,-2.2254,-2.2231,-2.2208,-2.2254,-2.2254,-2.2278,-2.2394,-2.2417,-2.2601,-2.2949,-2.3113,-2.345,-2.4135,-2.4114,-2.4224,-2.4589,-2.4405,-2.4219,-2.4073,-2.3312,-2.2365,-2.1204,-2.1106,-2.1082,-2.1082,-2.118,-2.1496,-2.1996,-2.2077,-2.2123,-2.2147,-2.2512,-2.2672,-2.2694,-2.3334,-2.376,-2.4024,-2.4234,-2.4302,-2.4302,-2.4302,-2.4302,-2.4302,-2.6806,-2.6806,-2.6806,-2.6806,-2.6806,-2.6806,-2.6806,-2.6806,-2.6806,-2.6806,-2.6806,-2.6806,-2.6806,-2.6806,-2.6806,-2.6806,-2.6736,-2.6445,-2.5847,-2.5716,-2.5096,-2.3876,-2.3229,-2.2888,-2.2888,-2.2888,-2.2888,-2.2888,-2.2888,-2.2888,-2.2888,-2.2888,-2.2888,-2.2888,-2.2888,-2.2888,-2.2888,-2.2888,-2.2888,-2.2888,-2.2888,-2.2888,-2.2888,-2.2888,-2.2888,-2.2888,-2.2888,-2.2902,-2.288,-2.2818,-2.2795,-2.2772,-2.2615,-2.2592,-2.2578,-2.2555,-2.2555,-2.2509,-2.2254,-2.2278,-2.237,-2.2231,-2.2301,-2.2347,-2.2231,-2.2208,-2.2208,-2.2208,-2.2208,-2.2208,-2.2208,-2.2208,-2.2254,-2.237,-2.2278,-2.2254,-2.237,-2.2394,-2.2394,-2.2394,-2.2509,-2.2615,-2.2623,-2.2926,-2.3326,-2.3797,-2.3946,-2.4193,-2.4569,-2.4405,-2.403,-2.3385,-2.3083,-2.2526,-2.1746,-2.1496,-2.1375,-2.1375,-2.1746,-2.1949,-2.202,-2.2305,-2.2466,-2.2489,-2.295,-2.2905,-2.2603,-2.3689,-2.3861,-2.3515,-2.4078,-2.4302,-2.4302,-2.4302,-2.4302,-2.4302,-2.6233,-2.6527,-2.6806,-2.6806,-2.6806,-2.6806,-2.6806,-2.6806,-2.6806,-2.6806,-2.6806,-2.6806,-2.6806,-2.6806,-2.6806,-2.6806,-2.6806,-2.6704,-2.6442,-2.6036,-2.5236,-2.3972,-2.3659,-2.3331,-2.2902,-2.2888,-2.2888,-2.2888,-2.2888,-2.2888,-2.2888,-2.2888,-2.2888,-2.2888,-2.2888,-2.2888,-2.2888,-2.2888,-2.2888,-2.2888,-2.2888,-2.2947,-2.3015,-2.3015,-2.3015,-2.3015,-2.3015,-2.297,-2.2902,-2.2857,-2.2872,-2.2849,-2.2758,-2.2712,-2.2712,-2.2615,-2.2615,-2.2578,-2.2486,-2.2486,-2.2509,-2.2463,-2.2486,-2.2509,-2.2463,-2.244,-2.244,-2.244,-2.244,-2.244,-2.244,-2.244,-2.2463,-2.2509,-2.2486,-2.2463,-2.2509,-2.2509,-2.2546,-2.2644,-2.2689,-2.2735,-2.2775,-2.3429,-2.3803,-2.3681,-2.4369,-2.4609,-2.4135,-2.4141,-2.3788,-2.2957,-2.3201,-2.2844,-2.1793,-2.1712,-2.1664,-2.1664,-2.2016,-2.2466,-2.2987,-2.3341,-2.3565,-2.3706,-2.4116,-2.4074,-2.3728,-2.441,-2.4569,-2.4431,-2.465,-2.4731,-2.4731,-2.4731,-2.4731,-2.4731,-2.6147,-2.6496,-2.6806,-2.6806,-2.6806,-2.6806,-2.6806,-2.6806,-2.6806,-2.6806,-2.6806,-2.6806,-2.6806,-2.6806,-2.6806,-2.6806,-2.6806,-2.6806,-2.6806,-2.6384,-2.5556,-2.4239,-2.4181,-2.3954,-2.3496,-2.3482,-2.3395,-2.3215,-2.3215,-2.3113,-2.2888,-2.3128,-2.3238,-2.3275,-2.3418,-2.3543,-2.3589,-2.3557,-2.3543,-2.3589,-2.3589,-2.3658,-2.3787,-2.3787,-2.3787,-2.3787,-2.3787,-2.3704,-2.3589,-2.3589,-2.3566,-2.3467,-2.321,-2.3045,-2.2872,-2.2843,-2.2783,-2.2752,-2.2752,-2.2729,-2.2684,-2.2615,-2.2638,-2.2638,-2.2615,-2.2615,-2.2615,-2.2615,-2.2615,-2.2615,-2.2615,-2.2615,-2.2615,-2.2652,-2.2615,-2.2615,-2.2652,-2.2652,-2.2712,-2.2787,-2.2818,-2.2849,-2.2902,-2.3473,-2.3797,-2.3595,-2.4374,-2.4594,-2.3988,-2.4094,-2.3745,-2.2867,-2.3201,-2.2934,-2.1996,-2.1949,-2.1983,-2.21,-2.2512,-2.3076,-2.3767,-2.4204,-2.4456,-2.4603,-2.489,-2.4835,-2.4603,-2.489,-2.5005,-2.5005,-2.5005,-2.5005,-2.5005,-2.5005,-2.5005,-2.5005,-2.6693,-2.6769,-2.682,-2.682,-2.6806,-2.6806,-2.6806,-2.6806,-2.6806,-2.6806,-2.6806,-2.6806,-2.6806,-2.6806,-2.6806,-2.6806,-2.6806,-2.6806,-2.6806,-2.6806,-2.6213,-2.4882,-2.4824,-2.481,-2.481,-2.481,-2.4505,-2.3905,-2.3905,-2.3572,-2.2917,-2.3601,-2.3976,-2.4122,-2.4583,-2.4907,-2.5106,-2.4951,-2.4975,-2.5091,-2.5091,-2.5178,-2.5298,-2.5298,-2.5298,-2.5298,-2.5298,-2.5212,-2.5091,-2.5091,-2.4971,-2.4694,-2.4094,-2.3539,-2.3142,-2.3268,-2.3216,-2.3119,-2.3105,-2.3015,-2.2865,-2.2661,-2.2712,-2.2772,-2.2638,-2.2615,-2.2615,-2.2615,-2.2615,-2.2615,-2.2615,-2.2601,-2.2638,-2.2772,-2.2698,-2.2638,-2.2772,-2.2809,-2.2809,-2.2809,-2.2872,-2.2888,-2.2888,-2.2925,-2.3098,-2.3573,-2.3773,-2.4021,-2.4281,-2.4281,-2.3946,-2.3127,-2.2957,-2.2746,-2.2394,-2.2278,-2.2379,-2.2694,-2.3312,-2.3767,-2.4141,-2.4731,-2.5005,-2.5005,-2.5005,-2.5005,-2.5005,-2.5005,-2.5005,-2.5005,-2.5005,-2.5005,-2.5005,-2.5005,-2.5005,-2.5005,-2.6708,-2.7089,-2.742,-2.742,-2.7084,-2.6806,-2.6806,-2.6806,-2.6806,-2.6806,-2.6806,-2.6806,-2.6806,-2.6806,-2.6806,-2.6806,-2.6806,-2.6806,-2.6806,-2.6806,-2.6605,-2.6228,-2.5749,-2.5299,-2.4878,-2.4824,-2.4723,-2.4534,-2.4534,-2.4447,-2.4312,-2.4447,-2.4573,-2.4674,-2.4762,-2.4849,-2.4951,-2.5009,-2.5043,-2.5116,-2.5202,-2.5283,-2.5364,-2.5364,-2.5364,-2.5364,-2.5364,-2.5307,-2.525,-2.525,-2.5202,-2.511,-2.4943,-2.4776,-2.4564,-2.4115,-2.4179,-2.4259,-2.3794,-2.3638,-2.3465,-2.2941,-2.2834,-2.2857,-2.282,-2.2797,-2.2797,-2.2797,-2.2888,-2.2947,-2.2947,-2.3045,-2.3098,-2.3135,-2.3135,-2.3053,-2.3029,-2.3007,-2.2984,-2.288,-2.2902,-2.2888,-2.2888,-2.3494,-2.3803,-2.3595,-2.3558,-2.373,-2.4141,-2.3852,-2.3377,-2.276,-2.3068,-2.3024,-2.2532,-2.2301,-2.2472,-2.2979,-2.3399,-2.3921,-2.4547,-2.5009,-2.5294,-2.541,-2.541,-2.5451,-2.5495,-2.5495,-2.5549,-2.5621,-2.5621,-2.5621,-2.5621,-2.5621,-2.5621,-2.5621,-2.7399,-2.7811,-2.8115,-2.8115,-2.7578,-2.7157,-2.7157,-2.6939,-2.6806,-2.6806,-2.6806,-2.6806,-2.6806,-2.6806,-2.6806,-2.6806,-2.6806,-2.6806,-2.6806,-2.6806,-2.6806,-2.6806,-2.6428,-2.6036,-2.5647,-2.5618,-2.5448,-2.5187,-2.5187,-2.512,-2.4975,-2.5184,-2.535,-2.5487,-2.5662,-2.5818,-2.5883,-2.5918,-2.5953,-2.6017,-2.6091,-2.6174,-2.6281,-2.6281,-2.6281,-2.6281,-2.6281,-2.6223,-2.614,-2.614,-2.5928,-2.5658,-2.5706,-2.5553,-2.5304,-2.5182,-2.5274,-2.5375,-2.5142,-2.4841,-2.4493,-2.4078,-2.3519,-2.3068,-2.3068,-2.3068,-2.3068,-2.3068,-2.3112,-2.3179,-2.3179,-2.3246,-2.3348,-2.3523,-2.3392,-2.3319,-2.3407,-2.3385,-2.3312,-2.309,-2.3297,-2.3407,-2.3275,-2.3775,-2.4009,-2.3782,-2.39,-2.4069,-2.4209,-2.3943,-2.3537,-2.3016,-2.3135,-2.3038,-2.2675,-2.2477,-2.27,-2.337,-2.3659,-2.4209,-2.4958,-2.5278,-2.5486,-2.5597,-2.5637,-2.5661,-2.5701,-2.5772,-2.5844,-2.5897,-2.5897,-2.5897,-2.5897,-2.5897,-2.5897,-2.5897,-2.8474,-2.8682,-2.8796,-2.8796,-2.8231,-2.7782,-2.7782,-2.7331,-2.698,-2.698,-2.6936,-2.6866,-2.6866,-2.6849,-2.6806,-2.6806,-2.6806,-2.6806,-2.6806,-2.6806,-2.6806,-2.6806,-2.6806,-2.6806,-2.6806,-2.6806,-2.6515,-2.5905,-2.5905,-2.5689,-2.5258,-2.5818,-2.6207,-2.6471,-2.6992,-2.7258,-2.7376,-2.7258,-2.7284,-2.7401,-2.7427,-2.7488,-2.76,-2.76,-2.76,-2.76,-2.76,-2.7539,-2.7427,-2.7427,-2.6925,-2.6347,-2.6485,-2.6128,-2.5773,-2.6328,-2.6456,-2.6514,-2.6859,-2.6377,-2.5785,-2.5785,-2.4655,-2.351,-2.3385,-2.3319,-2.3319,-2.3363,-2.3363,-2.337,-2.3414,-2.3436,-2.3551,-2.3921,-2.3681,-2.3566,-2.3921,-2.3894,-2.3696,-2.3392,-2.3888,-2.4135,-2.3797,-2.3824,-2.3952,-2.4156,-2.4639,-2.4784,-2.4477,-2.4415,-2.4168,-2.3638,-2.3246,-2.2963,-2.2818,-2.2743,-2.3038,-2.376,-2.3994,-2.4513,-2.5275,-2.5505,-2.5616,-2.56,-2.568,-2.5719,-2.5738,-2.5862,-2.5915,-2.5934,-2.5934,-2.5934,-2.5934,-2.5934,-2.5934,-2.5934,-2.8507,-2.8995,-2.9421,-2.9421,-2.8898,-2.8477,-2.8477,-2.8361,-2.8302,-2.8302,-2.7839,-2.7492,-2.7492,-2.7084,-2.6806,-2.6806,-2.6806,-2.6846,-2.6951,-2.6873,-2.6846,-2.6951,-2.6873,-2.6846,-2.6951,-2.6951,-2.6878,-2.6732,-2.6732,-2.6633,-2.645,-2.6659,-2.681,-2.6861,-2.7097,-2.7233,-2.7258,-2.731,-2.7376,-2.7401,-2.7514,-2.7575,-2.76,-2.76,-2.76,-2.76,-2.76,-2.7575,-2.7549,-2.7549,-2.7434,-2.7315,-2.734,-2.7478,-2.7599,-2.7218,-2.7601,-2.8073,-2.7637,-2.74,-2.7251,-2.7251,-2.6333,-2.5129,-2.4022,-2.3523,-2.3392,-2.3702,-2.3852,-2.4021,-2.4343,-2.4486,-2.4583,-2.4684,-2.4623,-2.4547,-2.4532,-2.4235,-2.3973,-2.3788,-2.3894,-2.3831,-2.3451,-2.4042,-2.4719,-2.5419,-2.5227,-2.5033,-2.4954,-2.4603,-2.4199,-2.376,-2.3948,-2.3752,-2.3052,-2.3275,-2.3421,-2.3486,-2.3894,-2.4415,-2.4997,-2.5476,-2.568,-2.568,-2.5791,-2.5899,-2.5937,-2.5972,-2.6043,-2.6132,-2.6132,-2.6132,-2.6132,-2.6132,-2.6132,-2.6132,-2.8967,-2.96,-3.0074,-3.0074,-2.9552,-2.9131,-2.9131,-2.8869,-2.8709,-2.8709,-2.839,-2.8187,-2.8187,-2.7882,-2.7721,-2.7721,-2.7721,-2.7761,-2.7896,-2.755,-2.7401,-2.7589,-2.7138,-2.7003,-2.7185,-2.7119,-2.7093,-2.7093,-2.7093,-2.7093,-2.7093,-2.7144,-2.7222,-2.7284,-2.7361,-2.7397,-2.7412,-2.7463,-2.7488,-2.7514,-2.7575,-2.76,-2.76,-2.76,-2.76,-2.76,-2.76,-2.76,-2.76,-2.76,-2.76,-2.76,-2.76,-2.7904,-2.8275,-2.8179,-2.8662,-2.9205,-2.9062,-2.878,-2.8502,-2.8502,-2.7644,-2.6468,-2.5181,-2.4466,-2.4131,-2.4338,-2.4441,-2.4542,-2.4748,-2.4863,-2.4962,-2.5157,-2.504,-2.4926,-2.5067,-2.4883,-2.4639,-2.44,-2.4664,-2.4704,-2.4354,-2.4859,-2.5269,-2.5419,-2.5473,-2.5416,-2.5262,-2.5017,-2.4664,-2.4188,-2.4425,-2.4116,-2.3201,-2.3566,-2.3709,-2.3644,-2.4048,-2.4608,-2.5291,-2.5645,-2.5791,-2.5791,-2.5899,-2.5972,-2.5992,-2.6063,-2.615,-2.6202,-2.6202,-2.6202,-2.6202,-2.6202,-2.6202,-2.6202,-2.9484,-3.0129,-3.0598,-3.0598,-3.0132,-2.9755,-2.9755,-2.9348,-2.9028,-2.9028,-2.8927,-2.8869,-2.8897,-2.8795,-2.8722,-2.8709,-2.8737,-2.8779,-2.8931,-2.8418,-2.8179,-2.8397,-2.7736,-2.7483,-2.7728,-2.7636,-2.7454,-2.7233,-2.7233,-2.7284,-2.7376,-2.7401,-2.7463,-2.7575,-2.76,-2.76,-2.76,-2.76,-2.76,-2.76,-2.76,-2.76,-2.76,-2.76,-2.76,-2.76,-2.76,-2.76,-2.761,-2.7685,-2.771,-2.7735,-2.7835,-2.8174,-2.8646,-2.9097,-2.955,-3.0006,-3.0384,-3.0042,-2.9579,-2.9579,-2.8775,-2.7749,-2.6787,-2.5914,-2.5306,-2.5366,-2.5274,-2.5215,-2.5309,-2.5213,-2.5214,-2.5575,-2.5329,-2.5234,-2.5575,-2.5497,-2.5323,-2.504,-2.5438,-2.5677,-2.5565,-2.5733,-2.5626,-2.5173,-2.5624,-2.5789,-2.5511,-2.5492,-2.5266,-2.4744,-2.4867,-2.4471,-2.3551,-2.3921,-2.4131,-2.4131,-2.4446,-2.4946,-2.561,-2.5809,-2.5934,-2.5917,-2.6008,-2.6026,-2.6045,-2.615,-2.6202,-2.6202,-2.6202,-2.6202,-2.6202,-2.6202,-2.6203,-2.6221,-2.9591,-3.0129,-3.0598,-3.0598,-3.0539,-3.0467,-3.0467,-3.0409,-3.0351,-3.0351,-2.9842,-2.9551,-2.971,-2.9212,-2.882,-2.8709,-2.8807,-2.8931,-2.907,-2.8996,-2.9034,-2.924,-2.8988,-2.8902,-2.9107,-2.9107,-2.853,-2.7376,-2.7376,-2.731,-2.7233,-2.735,-2.7401,-2.7412,-2.7549,-2.76,-2.76,-2.76,-2.76,-2.76,-2.76,-2.76,-2.76,-2.76,-2.76,-2.76,-2.76,-2.76,-2.766,-2.8076,-2.8207,-2.828,-2.8748,-2.9234,-2.9617,-2.9683,-3.0049,-3.0405,-3.0468,-3.0423,-3.0357,-3.0357,-2.9753,-2.9134,-2.8975,-2.7821,-2.6909,-2.7243,-2.6803,-2.6481,-2.6911,-2.6455,-2.6043,-2.6114,-2.6061,-2.6043,-2.6114,-2.5756,-2.5465,-2.5427,-2.5195,-2.5307,-2.6007,-2.5775,-2.5684,-2.6007,-2.599,-2.5956,-2.5919,-2.5919,-2.5735,-2.5301,-2.5645,-2.5406,-2.4511,-2.4847,-2.502,-2.502,-2.5195,-2.5272,-2.5288,-2.5772,-2.599,-2.599,-2.6132,-2.6168,-2.6168,-2.6185,-2.6202,-2.6202,-2.6202,-2.6202,-2.6202,-2.6202,-2.624,-2.6278,-2.9591,-3.0129,-3.0598,-3.0598,-3.0598,-3.0598,-3.0598,-3.0598,-3.0598,-3.0598,-3.0425,-3.0309,-3.0397,-3.0235,-3.0117,-3.0045,-3.0088,-3.0203,-3.0331,-2.999,-2.9839,-3.0005,-2.9525,-2.9347,-2.9525,-2.9429,-2.9146,-2.8633,-2.8633,-2.8606,-2.8538,-2.8606,-2.8633,-2.8644,-2.899,-2.9154,-2.9164,-2.9493,-2.9602,-2.9602,-2.9602,-2.9602,-2.9577,-2.9266,-2.9342,-2.9506,-2.8853,-2.8347,-2.8027,-2.8231,-2.8512,-2.8826,-2.9073,-2.9518,-2.9968,-2.9968,-3.0284,-3.0609,-3.0609,-3.0609,-3.0609,-3.0609,-3.0421,-3.0249,-3.0249,-2.972,-2.8997,-2.825,-2.7823,-2.7668,-2.7893,-2.7663,-2.7429,-2.7429,-2.7081,-2.68,-2.68,-2.629,-2.5901,-2.5901,-2.5735,-2.5789,-2.615,-2.6008,-2.599,-2.6168,-2.615,-2.6115,-2.6115,-2.6115,-2.5917,-2.5478,-2.5883,-2.5682,-2.4808,-2.5179,-2.5368,-2.5368,-2.5443,-2.5519,-2.5663,-2.5972,-2.6115,-2.6115,-2.6168,-2.6202,-2.6202,-2.6202,-2.6202,-2.6202,-2.6202,-2.6221,-2.6259,-2.6345,-2.6398,-2.6416]},{"header":{"parameterUnit":"m.s-1","parameterCategory":1,"la1":30.6,"la2":28.766,"lo1":-90.7593,"lo2":-88.6598,"dy":0.0162,"dx":0.0183,"nx":116,"ny":114,"refTime":"2024-03-13T06:00:00:Z","depth":0,"parameterNumber":3,"parameterNumberName":"V-component_of_WINDS"},"data":[0.0,0.0,0.0,0.0,0.0,0.0,0.0,0.0,0.0,0.0,0.0,0.0,0.0,0.0,0.0,0.0,0.0,0.0,0.0,0.0,0.0,0.0,0.0,0.0,0.0,0.0,0.0,0.0,0.0,0.0,0.0,0.0,0.0,0.0,0.0,0.0,0.0,0.0,0.0,0.0,0.0,0.0,0.0,0.0,0.0,0.0,0.0,0.0,0.0,0.0,0.0,0.0,0.0,0.0,0.0,0.0,0.0,0.0,0.0,0.0,0.0,0.0,0.0,0.0,0.0,0.0,0.0,0.0,0.0,0.0,0.0,0.0,0.0,0.0,0.0,0.0,0.0,0.0,0.0,0.0,0.0,0.0,0.0,0.0,0.0,0.0,0.0,0.0,0.0,0.0,0.0,0.0,0.0,0.0,0.0,0.0,0.0,0.0,0.0,0.0,0.0,0.0,0.0,0.0,0.0,0.0,0.0,0.0,0.0,0.0,0.0,0.0,0.0,0.0,0.0,0.0,0.0,0.0,0.0,0.0,0.0,0.0,0.0,0.0,0.0,0.0,0.0,0.0,0.0,0.0,0.0,0.0,0.0,0.0,0.0,0.0,0.0,0.0,0.0,0.0,0.0,0.0,0.0,0.0,0.0,0.0,0.0,0.0,0.0,0.0,0.0,0.0,0.0,0.0,0.0,0.0,0.0,0.0,0.0,0.0,0.0,0.0,0.0,0.0,0.0,0.0,0.0,0.0,0.0,0.0,0.0,0.0,0.0,0.0,0.0,0.0,0.0,0.0,0.0,0.0,0.0,0.0,0.0,0.0,0.0,0.0,0.0,0.0,0.0,0.0,0.0,0.0,0.0,0.0,0.0,0.0,0.0,0.0,0.0,0.0,0.0,0.0,0.0,0.0,0.0,0.0,0.0,0.0,0.0,0.0,0.0,0.0,0.0,0.0,0.0,0.0,0.0,0.0,0.0,0.0,0.0,0.0,0.0,0.0,0.0,0.0,0.0,0.0,0.0,0.0,0.0,0.0,0.0,0.0,0.0,0.0,0.0,0.0,0.0,0.0,0.0,0.0,0.0,0.0,0.0,0.0,0.0,0.0,0.0,0.0,0.0,0.0,0.0,0.0,0.0,0.0,0.0,0.0,0.0,0.0,0.0,0.0,0.0,0.0,0.0,0.0,0.0,0.0,0.0,0.0,0.0,0.0,0.0,0.0,0.0,0.0,0.0,0.0,0.0,0.0,0.0,0.0,0.0,0.0,0.0,0.0,0.0,0.0,0.0,0.0,0.0,0.0,0.0,0.0,0.0,0.0,0.0,0.0,0.0,0.0,0.0,0.0,0.0,0.0,0.0,0.0,0.0,0.0,0.0,0.0,0.0,0.0,0.0,0.0,0.0,0.0,0.0,0.0,0.0,0.0,0.0,0.0,0.0,0.0,0.0,0.0,0.0,0.0,0.0,0.0,0.0,0.0,0.0,0.0,0.0,0.0,0.0,0.0,0.0,0.0,0.0,0.0,0.0,0.0,0.0,0.0,0.0,0.0,0.0,0.0,0.0,0.0,0.0,0.0,0.0,0.0,0.0,0.0,0.0,0.0,0.0,0.0,0.0,0.0,0.0,0.0,0.0,0.0,0.0,0.0,0.0,0.0,0.0,0.0,0.0,0.0,0.0,0.0,0.0,0.0,0.0,0.0,0.0,0.0,0.0,0.0,0.0,0.0,0.0,0.0,0.0,0.0,0.0,0.0,0.0,0.0,0.0,0.0,0.0,0.0,0.0,0.0,0.0,0.0,0.0,0.0,0.0,0.0,0.0,0.0,0.0,0.0,0.0,0.0,0.0,0.0,0.0,0.0,0.0,0.0,0.0,0.0,0.0,0.0,0.0,0.0,0.0,0.0,0.0,0.0,0.0,0.0,0.0,0.0,0.0,0.0,0.0,0.0,0.0,0.0,0.0,0.0,0.0,0.0,0.0,0.0,0.0,0.0,0.0,0.0,0.0,0.0,0.0,0.0,0.0,0.0,0.0,0.0,0.0,0.0,0.0,0.0,0.0,0.0,0.0,0.0,0.0,0.0,0.0,0.0,0.0,0.0,0.0,0.0,0.0,0.0,0.0,0.0,0.0,0.0,0.0,0.0,0.0,0.0,0.0,0.0,0.0,0.0,0.0,0.0,0.0,0.0,0.0,0.0,0.0,0.0,0.0,0.0,0.0,0.0,0.0,0.0,0.0,0.0,0.0,0.0,0.0,0.0,0.0,0.0,0.0,0.0,0.0,0.0,0.0,0.0,0.0,0.0,0.0,0.0,0.0,0.0,0.0,0.0,0.0,0.0,0.0,0.0,0.0,0.0,0.0,0.0,0.0,0.0,0.0,0.0,0.0,0.0,0.0,0.0,0.0,0.0,0.0,0.0,0.0,0.0,0.0,0.0,0.0,0.0,0.0,0.0,0.0,0.0,0.0,0.0,0.0,0.0,0.0,0.0,0.0,0.0,0.0,0.0,0.0,0.0,0.0,0.0,0.0,0.0,0.0,0.0,0.0,0.0,0.0,0.0,0.0,0.0,0.0,0.0,0.0,0.0,0.0,0.0,0.0,0.0,0.0,0.0,0.0,0.0,0.0,0.0,0.0,0.0,0.0,0.0,0.0,0.0,0.0,0.0,0.0,0.0,0.0,0.0,0.0,0.0,0.0,0.0,0.0,0.0,0.0,0.0,0.0,0.0,0.0,0.0,0.0,0.0,0.0,0.0,0.0,0.0,0.0,0.0,0.0,0.0,0.0,0.0,0.0,0.0,0.0,0.0,0.0,0.0,0.0,0.0,0.0,0.0,0.0,0.0,0.0,0.0,0.0,0.0,0.0,0.0,0.0,0.0,0.0,0.0,0.0,0.0,0.0,0.0,0.0,0.0,0.0,0.0,0.0,0.0,0.0,0.0,0.0,0.0,0.0,0.0,0.0,0.0,0.0,0.0,0.0,0.0,0.0,0.0,0.0,0.0,0.0,0.0,0.0,0.0,0.0,0.0,0.0,0.0,0.0,0.0,0.0,0.0,0.0,0.0,0.0,0.0,0.0,0.0,0.0,0.0,0.0,0.0,0.0,0.0,0.0,0.0,0.0,0.0,0.0,0.0,0.0,0.0,0.0,0.0,0.0,0.0,0.0,0.0,0.0,0.0,0.0,0.0,0.0,0.0,0.0,0.0,0.0,0.0,0.0,0.0,0.0,0.0,0.0,0.0,0.0,0.0,0.0,0.0,0.0,0.0,0.0,0.0,0.0,0.0,0.0,0.0,0.0,0.0,0.0,0.0,0.0,0.0,0.0,0.0,0.0,0.0,0.0,0.0,0.0,0.0,0.0,0.0,0.0,0.0,0.0,0.0,0.0,0.0,0.0,0.0,0.0,0.0,0.0,0.0,0.0,0.0,0.0,0.0,0.0,0.0,0.0,0.0,0.0,0.0,0.0,0.0,0.0,0.0,0.0,0.0,0.0,0.0,0.0,0.0,0.0,0.0,0.0,0.0,0.0,0.0,0.0,0.0,0.0,0.0,0.0,0.0,0.0,0.0,0.0,0.0,0.0,0.0,0.0,0.0,0.0,0.0,0.0,0.0,0.0,0.0,0.0,0.0,0.0,0.0,0.0,0.0,0.0,0.0,0.0,0.0,0.0,0.0,0.0,0.0,0.0,0.0,0.0,0.0,0.0,0.0,0.0,0.0,0.0,0.0,0.0,0.0,0.0,0.0,0.0,0.0,0.0,0.0,0.0,0.0,0.0,0.0,0.0,0.0,0.0,0.0,0.0,0.0,0.0,0.0,0.0,0.0,0.0,0.0,0.0,0.0,0.0,0.0,0.0,0.0,0.0,0.0,0.0,0.0,0.0,0.0,0.0,0.0,0.0,0.0,0.0,0.0,0.0,0.0,0.0,0.0,0.0,0.0,0.0,0.0,0.0,0.0,0.0,0.0,0.0,0.0,0.0,0.0,0.0,0.0,0.0,0.0,0.0,0.0,0.0,0.0,0.0,0.0,0.0,0.0,0.0,0.0,0.0,0.0,0.0,0.0,0.0,0.0,0.0,0.0,0.0,0.0,0.0,0.0,0.0,0.0,0.0,0.0,0.0,0.0,0.0,0.0,0.0,0.0,0.0,0.0,0.0,0.0,0.0,0.0,0.0,0.0,0.0,0.0,0.0,0.0,0.0,0.0,0.0,0.0,0.0,0.0,0.0,0.0,0.0,0.0,0.0,0.0,0.0,0.0,0.0,0.0,0.0,0.0,0.0,0.0,0.0,0.0,0.0,0.0,0.0,0.0,0.0,0.0,0.0,0.0,0.0,0.0,0.0,0.0,0.0,0.0,0.0,0.0,0.0,0.0,0.0,0.0,0.0,0.0,0.0,0.0,0.0,0.0,0.0,0.0,0.0,0.0,0.0,0.0,0.0,0.0,0.0,0.0,0.0,0.0,0.0,0.0,0.0,0.0,0.0,0.0,0.0,0.0,0.0,0.0,0.0,0.0,0.0,0.0,0.0,0.0,0.0,0.0,0.0,0.0,0.0,0.0,0.0,0.0,0.0,0.0,0.0,0.0,0.0,0.0,0.0,0.0,0.0,0.0,0.0,0.0,0.0,0.0,0.0,0.0,0.0,0.0,0.0,0.0,0.0,0.0,0.0,0.0,0.0,0.0,0.0,0.0,0.0,0.0,0.0,0.0,0.0,0.0,0.0,0.0,0.0,0.0,0.0,0.0,0.0,0.0,0.0,0.0,0.0,0.0,0.0,0.0,0.0,0.0,0.0,0.0,0.0,0.0,0.0,0.0,0.0,0.0,0.0,0.0,0.0,0.0,0.0,0.0,0.0,0.0,0.0,0.0,0.0,0.0,0.0,0.0,0.0,0.0,0.0,0.0,0.0,0.0,0.0,0.0,0.0,0.0,0.0,0.0,0.0,0.0,0.0,0.0,0.0,0.0,0.0,0.0,0.0,0.0,0.0,0.0,0.0,0.0,0.0,0.0,0.0,0.0,0.0,0.0,0.0,0.0,0.0,0.0,0.0,0.0,0.0,0.0,0.0,0.0,0.0,0.0,0.0,0.0,0.0,0.0,0.0,0.0,0.0,0.0,0.0,0.0,0.0,0.0,0.0,0.0,0.0,0.0,0.0,0.0,0.0,0.0,0.0,0.0,0.0,0.0,0.0,0.0,0.0,0.0,0.0,0.0,0.0,0.0,0.0,0.0,0.0,0.0,0.0,0.0,0.0,0.0,0.0,0.0,0.0,0.0,0.0,0.0,0.0,0.0,0.0,0.0,0.0,0.0,0.0,0.0,0.0,0.0,0.0,0.0,0.0,0.0,0.0,0.0,0.0,0.0,0.0,0.0,0.0,0.0,0.0,0.0,0.0,0.0,0.0,0.0,0.0,0.0,0.0,0.0,0.0,0.0,0.0,0.0,0.0,0.0,0.0,0.0,0.0,0.0,0.0,0.0,0.0,0.0,0.0,0.0,0.0,0.0,0.0,0.0,0.0,0.0,0.0,0.0,0.0,0.0,0.0,0.0,0.0,0.0,0.0,0.0,0.0,0.0,0.0,0.0,0.0,0.0,0.0,0.0,0.0,0.0,0.0,0.0,0.0,0.0,0.0,0.0,0.0,0.0,0.0,0.0,0.0,0.0,0.0,0.0,0.0,0.0,0.0,0.0,0.0,0.0,0.0,0.0,0.0,0.0,0.0,0.0,0.0,0.0,0.0,0.0,0.0,0.0,0.0,0.0,0.0,0.0,0.0,0.0,0.0,0.0,0.0,0.0,0.0,0.0,0.0,0.0,0.0,0.0,0.0,0.0,0.0,0.0,0.0,0.0,0.0,0.0,0.0,0.0,0.0,0.0,0.0,0.0,0.0,0.0,0.0,0.0,0.0,0.0,0.0,0.0,0.0,0.0,0.0,0.0,0.0,0.0,0.0,0.0,0.0,0.0,0.0,0.0,0.0,0.0,0.0,0.0,0.0,0.0,0.0,0.0,0.0,0.0,0.0,0.0,0.0,0.0,0.0,0.0,0.0,0.0,0.0,0.0,0.0,0.0,0.0,0.0,0.0,0.0,0.0,0.0,0.0,0.0,0.0,0.0,0.5865,0.4102,0.0,0.0,0.0,0.0,0.0,0.0,0.0,0.0,0.0,0.0,0.0,0.0,0.0,0.0,0.0,0.0,0.0,0.0,0.0,0.0,0.0,0.0,0.0,0.0,0.0,0.0,0.0,0.0,0.0,0.0,0.0,0.0,0.0,0.0,0.9817,0.9817,0.9786,0.9678,1.004,1.0613,1.1265,0.9844,0.8805,0.8066,0.0,0.0,0.0,0.0,0.0,0.0,0.0,0.0,0.0,0.0,0.0,0.0,0.0,0.0,0.0,0.0,0.0,0.0,0.0,0.0,0.0,0.0,0.0,0.0,0.0,0.0,0.0,0.0,0.0,0.0,0.0,0.0,0.0,0.0,0.0,0.0,0.0,0.0,0.0,0.0,0.0,0.0,0.0,0.0,0.0,0.0,0.0,0.0,0.0,0.0,0.0,0.0,0.0,0.0,0.0,0.0,0.0,0.0,0.0,0.0,0.0,0.0,0.0,0.0,0.0,0.0,0.0,0.0,0.0,0.0,0.776,0.6265,0.0,0.0,0.0,0.0,0.0,0.0,0.0,0.0,0.0,0.0,0.0,0.0,0.0,0.0,0.0,0.0,0.0,0.0,0.0,0.0,0.0,0.0,0.0,0.5342,0.6334,0.7386,0.7684,0.8296,0.939,0.9332,0.9428,0.9805,0.9678,0.9518,0.937,0.9402,0.9556,0.9862,1.0801,1.1643,1.2364,1.1774,1.103,1.014,0.7986,0.0,0.0,0.0,0.0,0.0,0.0,0.0,0.0,0.0,0.0,0.0,0.0,0.0,0.0,0.0,0.0,0.0,0.0,0.0,0.0,0.0,0.0,0.0,0.0,0.0,0.0,0.0,0.0,0.0,0.0,0.0,0.0,0.0,0.0,0.0,0.0,0.0,0.0,0.0,0.0,0.0,0.0,0.0,0.0,0.0,0.0,0.0,0.0,0.0,0.0,0.0,0.0,0.0,0.0,0.0,0.0,0.0,0.0,0.0,0.0,0.0,0.0,0.0,1.0426,1.049,1.0458,1.0458,1.0584,1.0804,0.9583,0.8677,0.7948,0.6698,0.0,0.0,0.0,0.0,0.0,0.0,0.0,0.0,0.0,0.0,0.0,0.0,0.0,0.0,0.0,0.0,0.0,0.0,0.0,0.0,0.0,0.6027,0.7237,0.74,0.842,0.9139,0.9306,0.9145,0.9332,0.9958,0.9958,1.0218,1.0807,1.0926,1.1351,1.2074,1.3571,1.4335,1.4332,1.3648,1.2959,1.2212,0.9888,0.8152,0.6865,0.0,0.0,0.0,0.0,0.0,0.0,0.0,0.0,0.0,0.0,0.0,0.0,0.0,0.0,0.0,0.0,0.0,0.0,0.0,0.0,0.0,0.0,0.0,0.0,0.0,0.0,0.0,0.0,0.0,0.0,0.0,0.0,0.0,0.0,0.0,0.0,0.0,0.0,0.0,0.0,0.0,1.1805,1.1836,0.0,0.0,0.0,0.0,0.0,0.0,0.0,0.0,0.0,0.0,0.0,0.0,0.0,1.1388,1.0857,1.1851,1.1927,1.1142,1.2128,1.2482,1.2274,1.2274,1.2274,1.2305,1.1639,0.0,0.9374,0.8784,0.0,0.0,0.0,0.0,0.0,0.0,0.0,0.0,0.0,0.0,0.0,0.0,0.0,0.0,0.0,0.0,0.0,0.0,0.0,0.0,0.0,0.7279,0.8409,0.9082,1.0008,1.0707,1.1058,1.0483,1.0395,1.0986,1.0598,1.0485,1.0807,1.1327,1.2235,1.3567,1.4392,1.4877,1.503,1.4333,1.3773,1.3215,1.1675,0.97,0.74,0.6233,0.0,0.0,0.0,0.0,0.0,0.0,0.0,0.0,0.0,0.0,0.0,0.0,0.0,0.0,0.0,0.0,0.0,0.0,0.0,0.0,0.0,0.0,0.0,0.0,0.0,0.0,0.0,0.0,0.0,0.0,0.0,0.0,0.0,0.0,0.0,0.0,0.0,0.0,0.0,1.2426,1.2769,1.3737,1.3434,1.3127,0.0,0.0,0.0,0.0,0.0,0.0,0.0,0.0,0.0,1.3193,1.3313,1.3253,1.3064,1.3562,1.3661,1.333,1.3846,1.4004,1.3885,1.3885,1.3644,1.3221,1.297,1.2289,1.1236,1.0255,0.9424,0.8773,0.0,0.0,0.0,0.0,0.6474,0.6314,0.0,0.0,0.0,0.0,0.0,0.0,0.0,0.0,0.0,0.0,0.0,0.0,0.7381,0.8623,0.9762,1.085,1.1697,1.2288,1.2602,1.1866,1.1533,1.171,1.1139,1.0839,1.0839,1.2012,1.3391,1.4904,1.511,1.5277,1.5385,1.4583,1.3894,1.3322,1.2501,1.0717,0.8249,0.7224,0.5534,0.3427,0.0,0.0,0.0,0.0,0.0,0.0,0.0,0.0,0.0,0.0,0.0,0.0,0.0,0.0,0.0,0.0,0.0,0.0,0.0,0.0,0.0,0.0,0.0,0.0,0.0,0.0,0.0,0.0,0.0,0.0,0.0,0.0,0.0,0.0,0.0,0.0,0.0,1.3828,1.4136,1.541,1.4855,1.4442,0.0,0.0,0.0,0.0,0.0,0.0,1.468,1.4669,1.4717,1.4855,1.5021,1.505,1.5002,1.5002,1.4963,1.4904,1.4904,1.4904,1.4904,1.4904,1.4551,1.3948,1.3948,1.3524,1.2736,1.1375,1.0609,1.0186,0.9666,0.8847,0.7933,0.7938,0.7621,0.7335,0.0,0.0,0.0,0.0,0.0,0.0,0.0,0.0,0.0,0.0,0.0,0.7084,0.779,0.9775,1.1348,1.2058,1.3245,1.3682,1.3031,1.2738,1.2281,1.1545,1.1483,1.1452,1.1452,1.3742,1.5361,1.6203,1.6465,1.6278,1.5666,1.4478,1.3395,1.2444,1.1748,1.0893,0.9912,0.902,0.708,0.443,0.3241,0.0,0.0,0.0,0.0,0.0,0.0,0.0,0.0,0.0,0.0,0.0,0.0,0.0,0.0,0.0,0.0,0.0,0.0,0.0,0.0,0.0,0.0,0.0,0.0,0.0,0.0,0.0,0.0,0.0,0.0,0.0,0.0,0.0,0.0,0.0,0.0,0.0,0.0,1.6046,1.5642,0.0,0.0,0.0,0.0,1.643,1.5999,1.5963,1.6522,1.6091,1.6075,1.6637,1.6666,1.64,1.5845,1.5845,1.5507,1.4904,1.4904,1.4904,1.4904,1.4904,1.4816,1.4639,1.4639,1.4204,1.3359,1.2197,1.1709,1.1608,1.0616,1.0465,1.0755,1.03,1.0199,1.0224,0.0,0.0,0.0,0.0,0.0,0.0,0.0,0.0,0.512,0.5404,0.6857,0.8334,0.9616,1.1403,1.283,1.3721,1.4344,1.4697,1.4726,1.3867,1.3166,1.281,1.2358,1.2626,1.3682,1.5119,1.6203,1.6873,1.6613,1.6084,1.5236,1.447,1.3417,1.2207,1.1776,1.0973,0.9931,0.9509,0.8175,0.6273,0.4629,0.2837,0.0,0.0,0.0,0.0,0.0,0.0,0.0,0.0,0.0,0.0,0.0,0.0,0.0,0.0,0.0,0.0,0.0,0.0,0.0,0.0,0.0,0.0,0.0,0.0,0.0,0.0,0.0,0.0,0.0,0.0,0.0,0.0,0.0,0.0,0.0,0.0,0.0,1.7268,1.723,0.0,1.7611,1.7434,1.7451,1.7807,1.7654,1.7473,1.7357,1.7146,1.6983,1.6807,1.6818,1.6751,1.6616,1.6616,1.6736,1.6957,1.6595,1.6624,1.6957,1.6595,1.6093,1.5478,1.5478,1.4982,1.4112,1.3713,1.3056,1.2274,1.1926,1.1677,1.149,1.1327,1.1076,1.0787,0.0,0.0,0.0,0.0,0.0,0.0,0.0,0.0,0.5968,0.6702,0.8147,0.98,1.158,1.2929,1.4118,1.5148,1.5555,1.5749,1.5778,1.4923,1.4255,1.3918,1.3733,1.4497,1.6282,1.6931,1.7561,1.8205,1.7459,1.6647,1.5749,1.486,1.3675,1.2323,1.1935,1.1257,1.0359,0.9775,0.8663,0.7168,0.5759,0.4342,0.2839,0.0,0.0,0.0,0.0,0.0,0.0,0.0,0.0,0.0,0.0,0.0,0.0,0.0,0.0,0.0,0.0,0.0,0.0,0.0,0.0,0.0,0.0,0.0,0.0,0.0,0.0,0.0,0.0,0.0,0.0,0.0,0.0,0.0,0.0,1.6448,1.6974,1.7918,1.8066,1.8217,1.8566,1.8593,1.8727,1.9056,1.891,1.8643,1.8294,1.8104,1.7831,1.7496,1.7457,1.7512,1.7611,1.7639,1.7913,1.8336,1.8018,1.8073,1.8402,1.7991,1.7318,1.6492,1.6464,1.5806,1.4795,1.4795,1.4201,1.3216,1.2981,1.2697,1.2351,1.2143,1.1833,1.1553,0.0,0.0,0.0,0.0,0.0,0.0,0.0,0.6601,0.7209,0.8088,0.9553,1.1341,1.3485,1.4325,1.5148,1.6228,1.6825,1.6786,1.596,1.5833,1.5496,1.4816,1.5571,1.6966,1.9036,1.9127,1.949,2.0207,1.9056,1.8081,1.7254,1.5661,1.4157,1.2788,1.2206,1.1755,1.1331,0.998,0.856,0.7125,0.6589,0.5596,0.4281,0.0,0.0,0.0,0.0,0.0,0.0,0.0,0.0,0.0,0.0,0.0,0.0,0.0,0.0,0.0,0.0,0.0,0.0,0.0,0.0,0.0,0.0,0.0,0.0,0.0,0.0,0.0,0.0,0.0,0.0,0.0,0.0,0.0,1.766,1.7797,1.7934,1.7961,1.8054,1.8444,1.916,1.9226,1.95,2.0156,1.972,1.942,1.9394,1.8907,1.8694,1.8777,1.8777,1.8777,1.8777,1.8922,1.8922,1.883,1.8934,1.8987,1.9013,1.8869,1.8402,1.7722,1.7567,1.6729,1.5468,1.5468,1.5089,1.4499,1.3812,1.3532,1.345,1.2858,1.266,1.2629,0.0,0.0,0.0,0.0,0.0,0.0,0.0,0.6412,0.7214,0.8538,1.0185,1.1943,1.3858,1.4737,1.5546,1.6428,1.6361,1.6247,1.62,1.5979,1.6005,1.6288,1.7543,1.8499,1.9101,1.9606,2.0003,2.0207,1.9056,1.8081,1.7279,1.5995,1.4664,1.3287,1.313,1.2554,1.1617,1.0478,0.9453,0.8454,0.667,0.6089,0.6124,0.0,0.0,0.0,0.0,0.0,0.0,0.0,0.0,0.0,0.0,0.0,0.0,0.0,0.0,0.0,0.0,0.0,0.0,0.0,0.0,0.0,0.0,0.0,0.0,0.0,0.0,0.0,0.0,0.0,0.0,0.0,1.8097,1.8352,1.8394,1.8578,1.883,1.924,1.9319,1.9462,1.9746,1.9772,1.9901,2.0182,2.0054,1.9798,1.942,1.9263,1.9013,1.8667,1.8667,1.8667,1.8667,1.8694,1.8934,1.937,1.8922,1.8948,1.9434,1.8895,1.8467,1.8131,1.8088,1.7545,1.6698,1.6698,1.6379,1.5778,1.4647,1.4231,1.4201,1.4052,1.3662,1.3186,0.0,0.0,0.0,0.0,0.0,0.0,0.0,0.6601,0.7757,0.9128,1.0781,1.2633,1.4708,1.5342,1.596,1.6807,1.6627,1.6513,1.6599,1.6747,1.7263,1.8228,1.9153,1.9774,2.0067,2.0238,2.0404,2.0585,1.9438,1.8586,1.7959,1.6792,1.566,1.4573,1.4193,1.3653,1.2963,1.1604,1.0797,1.028,0.8282,0.7334,0.7025,0.6044,0.606,0.6569,0.628,0.6661,0.7264,0.7187,0.0,0.0,0.0,0.0,0.0,0.0,0.0,0.0,0.0,0.0,0.0,0.0,0.0,0.0,0.0,0.0,0.0,0.0,0.0,0.0,0.0,0.0,0.0,0.0,1.8712,1.9004,1.915,1.9253,1.9448,1.9747,1.9798,1.9824,1.9901,1.9926,1.9952,2.0016,2.0016,1.9888,1.9591,1.9565,1.946,1.9198,1.9198,1.9198,1.9198,1.9239,1.9434,1.9746,1.9422,1.9474,1.9849,1.9408,1.9001,1.8682,1.8602,1.8213,1.7562,1.7313,1.7028,1.6599,0.0,0.0,0.0,0.0,1.4261,1.3872,0.0,0.0,0.0,0.0,0.0,0.0,0.0,0.6887,0.8393,0.9611,1.1217,1.3136,1.5459,1.5787,1.6189,1.7127,1.7155,1.7117,1.7067,1.7793,1.8847,2.0244,2.051,2.0881,2.1435,2.094,2.0818,2.1125,2.0048,1.9362,1.8997,1.7923,1.7006,1.621,1.5397,1.4971,1.4809,1.327,1.2506,1.2215,1.0769,0.92,0.7661,0.712,0.7264,0.7704,0.736,0.7629,0.8292,0.8928,0.0,0.0,0.0,0.0,0.0,0.0,0.0,0.0,0.0,0.0,0.0,0.0,0.0,0.0,0.0,0.0,0.0,0.0,0.0,0.0,0.0,0.0,0.0,0.0,1.9174,1.9656,1.9773,1.9798,1.9798,1.9798,1.9798,1.9798,1.9798,1.9798,1.9798,1.9798,1.9798,1.9798,1.9798,1.9798,0.0,0.0,0.0,1.999,1.999,2.0105,2.0105,1.999,2.0105,2.0156,2.0182,2.0029,1.972,1.9265,1.9146,1.8762,1.8147,1.7617,1.728,1.7014,1.593,1.5497,1.5439,1.4824,1.4588,1.4588,0.0,0.0,0.0,0.0,0.0,0.0,0.0,0.6334,0.7887,0.8948,1.0819,1.2679,1.4353,1.5011,1.57,1.6655,1.64,1.6549,1.7424,1.837,1.9517,2.0866,2.1527,2.1839,2.1806,2.1699,2.1528,2.1331,2.0627,2.0128,1.9762,1.9075,1.8179,1.7216,1.7045,1.6498,1.5676,1.5318,1.4368,1.3052,1.2754,1.1643,1.0151,0.9726,0.9958,1.052,1.043,1.0502,1.061,1.055,1.0806,1.1135,1.0984,0.0,0.0,0.0,0.0,0.0,0.0,0.0,0.0,0.0,0.0,0.0,0.0,0.0,0.0,0.0,0.0,0.0,0.0,0.0,0.0,1.9291,1.95,1.9656,1.9773,1.9798,1.9798,1.9798,1.9798,1.9798,1.9798,1.9798,1.9798,1.9798,1.9798,1.9798,1.9798,1.9798,1.9798,1.9837,1.9837,1.9837,1.9837,1.985,1.9914,1.999,1.9914,0.0,2.0029,1.9888,1.9773,1.9669,1.9643,1.9331,1.8827,1.8709,1.7863,1.6607,1.6331,1.6202,1.6134,1.5478,1.5235,1.5147,0.0,0.0,0.0,0.0,0.0,0.0,0.0,0.5536,0.6935,0.8575,1.0008,1.1549,1.3399,1.4046,1.4669,1.5429,1.592,1.6648,1.7736,1.8638,1.9697,2.0892,2.131,2.1665,2.2047,2.1946,2.2045,2.2294,2.1899,2.1621,2.143,2.1146,2.061,1.989,1.951,1.887,1.8004,1.7251,1.6115,1.4778,1.4427,1.3684,1.261,1.1418,1.1147,1.1462,1.1591,1.1671,1.18,1.2356,1.2731,1.3021,1.3434,1.3622,1.3678,0.0,0.0,0.0,0.0,0.0,0.0,0.0,0.0,0.0,0.0,0.0,0.0,0.0,0.0,1.8466,1.9477,0.0,1.9889,2.0346,2.0396,2.0446,2.0584,2.0608,2.0497,2.0232,1.9952,1.9901,2.0182,1.9952,1.9798,1.9798,1.9798,1.9798,1.9798,1.9798,1.9798,1.9798,1.9798,1.9798,1.9798,1.9798,1.9824,1.9901,1.9824,1.9837,1.9901,1.9824,1.9798,1.9798,1.9798,1.9643,1.9345,1.879,1.7713,1.6425,1.6144,1.5899,1.5663,1.5313,1.5192,1.5164,0.0,0.0,0.0,0.0,0.0,0.0,0.0,0.4671,0.5975,0.7862,0.8928,1.0261,1.2189,1.2785,1.327,1.387,1.5264,1.655,1.7489,1.8451,1.9529,2.0807,2.0813,2.122,2.2117,2.1968,2.2235,2.2994,2.3001,2.2986,2.2986,2.2986,2.2756,2.2267,2.1564,2.0853,2.006,1.8748,1.7547,1.6443,1.5821,1.5295,1.4653,1.3026,1.225,1.2095,1.2408,1.2511,1.2678,1.4099,1.4506,1.4585,1.5584,1.5787,1.5604,1.541,1.5303,0.0,0.0,0.0,0.0,0.0,0.0,0.0,0.0,0.0,1.739,1.8852,1.9155,1.9556,2.0733,2.0944,2.0968,2.1126,2.1115,2.1115,2.1224,2.1248,2.1126,2.0883,2.0396,2.027,2.0696,2.0346,2.0118,2.0118,2.0118,2.0067,1.9952,1.9952,1.9901,1.9798,1.9798,1.9798,1.9798,1.9901,1.9952,1.9952,1.9952,1.9952,1.9952,1.985,1.9798,1.9798,1.9798,1.9748,1.9584,1.8545,1.7465,1.638,1.5917,1.5419,1.5031,1.5013,1.4997,1.4997,0.0,0.0,0.0,0.0,0.0,0.0,0.0,0.0,0.5456,0.5888,0.7608,0.9183,1.0229,1.0888,1.1549,1.2212,1.3844,1.5139,1.592,1.7313,1.9012,2.0988,2.0853,2.1087,2.1917,2.1783,2.1883,2.2221,2.2974,2.3346,2.3346,2.3346,2.2962,2.2272,2.1728,2.0897,1.9893,1.9265,1.8288,1.7141,1.6727,1.6191,1.5644,1.5432,1.4641,1.3705,1.4275,1.4148,1.3909,1.5404,1.5567,1.5249,1.5753,1.6197,1.6376,1.5478,0.0,1.6205,1.4894,1.5602,1.6948,1.8035,1.8623,1.9097,0.0,0.0,1.9527,1.9952,2.0156,2.0346,2.0746,2.0734,2.0734,2.0993,2.082,2.0684,2.0684,2.0684,2.0932,2.1602,2.1407,2.1248,2.1296,2.1248,2.1224,2.1224,2.1224,2.1004,2.0535,2.051,2.0283,1.9837,1.9798,1.9798,1.9798,2.0258,2.051,2.051,2.051,2.051,2.0485,2.0029,1.9798,1.9798,1.9798,1.9547,1.9045,1.8445,1.7564,1.6525,1.6013,1.5508,1.5082,1.5018,1.4997,1.4997,0.0,0.0,0.0,0.0,0.0,0.0,0.0,0.0,0.0,0.4737,0.5942,0.7047,0.7916,0.9273,1.0393,1.1058,1.3025,1.4427,1.4926,1.6652,1.8016,1.8856,1.9303,1.9797,2.0362,2.1108,2.1756,2.2332,2.3174,2.3686,2.3918,2.3918,2.3769,2.3417,2.2498,2.161,2.0751,1.9512,1.8495,1.7652,1.7133,1.6811,1.662,1.6694,1.6404,1.5926,1.5822,1.5634,0.0,0.0,1.6855,1.6565,1.7423,1.7809,1.777,1.7017,1.7,0.0,1.6715,1.7335,0.0,0.0,1.9254,1.9514,1.9888,1.9888,2.0003,2.066,2.082,2.1017,2.1516,2.1565,2.1565,0.0,2.1732,2.1756,2.1756,2.1874,2.2077,2.2394,2.2333,2.2156,2.1898,2.1575,2.1393,2.1393,2.1393,2.1296,2.1091,2.1066,2.0955,2.0733,2.0733,2.0733,2.0733,2.0955,2.1066,2.1066,2.1066,2.0894,2.0585,2.0384,2.0105,1.9798,1.9798,1.9321,1.8506,1.8304,1.7526,1.6493,1.5983,1.5678,1.5481,1.5167,1.507,1.5022,0.0,0.0,0.0,0.0,0.0,0.0,0.0,0.0,0.0,0.0,0.4472,0.5427,0.6441,0.7802,0.8901,0.9603,1.1543,1.3008,1.3621,1.5505,1.6812,1.7361,1.795,1.8609,1.9284,2.0231,2.1142,2.1999,2.2825,2.3383,2.367,2.3869,2.372,2.3284,2.242,2.1481,2.0441,1.8988,1.8026,1.7422,1.6982,1.6858,1.6916,1.7144,1.7339,1.7428,1.7241,1.7051,1.7059,1.8055,1.8034,1.7738,1.8602,1.8922,1.8842,1.8197,1.7925,1.7936,1.8267,0.0,0.0,1.9605,1.9799,2.0016,2.0207,2.0232,2.0421,2.1115,2.1261,2.142,2.1983,2.2044,2.2044,2.2184,2.2301,2.2417,2.2486,2.2615,2.2729,2.2797,2.282,2.2706,2.2417,2.2039,2.1813,2.1813,2.1813,2.1766,2.1623,2.1623,2.1551,2.1393,2.1393,2.1393,2.1393,2.1551,2.1623,2.1623,2.1623,2.1407,2.1031,2.0894,2.0622,2.0232,1.994,1.9267,1.8391,1.8111,1.74,1.6466,1.6129,1.5986,1.5954,1.5613,1.5334,1.5062,0.0,0.0,0.0,0.0,0.0,0.0,0.0,0.0,0.0,0.0,0.0,0.0,0.0,0.6449,0.6776,0.7447,0.8939,1.0367,1.1714,1.3493,1.5408,1.749,1.7364,1.7881,1.9274,1.9272,1.9762,2.0745,2.1624,2.2053,2.2091,2.2803,2.2288,2.0808,2.0912,1.9899,1.8067,1.7362,1.6685,1.6055,1.6112,1.6139,1.6174,1.6641,1.7132,1.7692,1.8523,1.8448,1.81,1.903,1.9001,1.856,1.8587,1.896,0.0,1.8494,1.8282,1.8379,1.8842,0.0,2.0042,2.0295,2.087,2.1337,2.1337,2.1337,2.1361,2.1399,2.1385,2.1496,2.1746,2.1616,2.1592,2.2114,2.1996,2.1926,2.2184,2.2231,2.2324,2.2578,2.2615,2.2684,2.2865,2.2865,2.2843,2.2843,2.2843,2.2661,2.2208,2.2184,2.1945,2.1417,2.1393,2.1393,2.1393,2.1921,2.2184,2.2184,2.2184,2.2184,2.2123,2.1599,2.1369,2.1293,2.025,1.9494,1.8904,1.7864,1.7049,1.65,1.6466,1.6479,1.6479,1.6457,1.5879,1.5108,0.0,0.0,0.0,0.0,0.0,0.0,0.0,0.0,0.0,0.0,0.0,0.0,0.0,0.0,0.0,0.0,0.7695,0.8888,1.0266,1.2081,1.3457,1.4317,1.5584,1.6521,1.711,1.8446,1.9479,2.0167,2.109,2.1495,2.147,2.1719,2.1553,2.0958,1.9364,1.8291,1.7519,1.5227,1.4323,1.4395,1.4336,1.4761,1.5468,1.5909,1.6695,1.7632,0.0,1.8034,1.8304,1.9046,1.9133,1.9081,1.9526,1.972,1.9681,1.9081,1.8951,1.9123,1.9566,0.0,2.0723,2.1006,2.124,2.1399,2.1399,2.1399,2.1399,2.1399,2.1399,2.1423,2.152,2.1616,2.1722,2.1926,2.2161,2.2301,2.2208,2.2347,2.2417,2.2347,2.2324,0.0,2.2417,2.2729,2.2888,2.2888,2.2888,2.282,2.2684,2.2661,2.2578,2.2402,2.2402,2.2402,2.2402,2.2578,2.2661,2.2661,2.2347,2.2208,2.2184,2.1647,2.1393,2.1366,2.0533,1.9748,1.895,1.8118,1.7288,1.65,1.65,1.65,1.65,1.65,1.6293,1.5988,0.0,0.0,0.0,0.0,0.0,0.0,0.0,0.0,0.0,0.0,0.0,0.0,0.0,0.0,0.0,0.0,0.0,0.0,0.8484,0.9913,1.1189,1.2284,1.3775,1.4834,1.53,1.7028,1.8179,1.8689,1.9761,2.026,2.0175,2.0482,2.028,1.9592,1.7811,1.6509,1.5539,1.3279,1.2263,1.2132,1.2218,1.284,1.3747,1.4184,1.5121,0.0,1.6105,1.6736,1.772,1.854,1.8936,1.9212,1.9642,1.9875,1.9978,1.9824,1.9901,2.0143,2.0695,2.1126,2.1506,2.1664,2.1664,2.1592,2.1423,2.1399,2.1399,2.1399,2.1399,2.1399,2.1399,2.1544,2.1688,2.1769,2.2091,2.2301,2.2208,2.2347,2.2394,2.2231,2.2208,2.2208,0.0,0.0,2.2661,2.2661,2.2661,2.2661,2.2661,2.2661,2.2661,2.2661,2.2752,2.2797,2.2797,2.2865,2.2888,2.2888,2.2592,2.244,2.244,2.2086,2.182,2.1583,2.0753,1.9849,1.8879,1.8048,1.7226,1.65,1.65,1.65,1.65,1.65,1.65,1.6457,0.0,0.0,0.0,0.0,0.0,0.0,0.0,0.0,0.0,0.0,0.0,0.0,0.0,0.0,0.0,0.0,0.0,0.0,0.6363,0.7076,0.8631,1.133,1.1905,1.2741,1.3886,1.5027,1.5823,1.6291,1.7591,1.815,1.8009,1.8824,1.8265,1.6577,1.593,1.4307,1.2047,1.1205,1.0215,0.9246,0.9708,1.034,1.1049,1.1518,1.25,1.361,1.3618,1.472,1.6373,1.7633,1.8509,1.9066,1.9093,1.9539,2.0156,2.0684,2.1017,2.1393,2.2081,2.2305,2.2305,2.224,2.2123,2.1935,2.1544,2.1447,2.1423,2.1423,2.1399,2.1399,0.0,0.0,2.1496,2.1746,2.1793,2.1902,2.2161,2.2184,2.2184,0.0,0.0,0.0,0.0,0.0,2.2161,2.2161,2.2184,2.2208,2.2208,2.2208,2.2208,2.2208,2.244,2.2578,2.2578,2.2775,2.2865,2.2865,2.2865,2.2865,2.2865,2.2888,2.2577,2.1917,2.0884,1.9831,1.8753,1.7673,1.6968,1.6543,1.6522,1.65,1.65,1.65,1.65,1.65,0.0,0.0,0.0,0.0,0.0,0.0,0.0,0.0,0.0,0.0,0.0,0.0,0.0,0.0,0.0,0.0,0.0,0.0,0.435,0.496,0.6087,0.7819,0.884,0.9935,1.1166,1.2364,1.3109,1.3382,1.4197,1.4389,1.3978,1.3791,1.3396,1.269,1.0207,0.8754,0.8016,0.5917,0.5161,0.5353,0.5723,0.6899,0.8482,0.8897,1.035,1.2157,1.2479,0.0,0.0,0.0,0.0,0.0,0.0,2.0597,2.0795,2.1042,2.1465,2.1846,2.1803,2.2109,2.2466,2.2549,2.2549,2.2434,2.2077,2.1996,2.1864,2.1496,2.1399,2.1399,0.0,0.0,0.0,2.1793,2.1973,0.0,2.1926,2.1902,0.0,2.164,0.0,2.1616,2.1616,2.1616,0.0,2.1616,2.1973,2.2208,2.2208,2.2208,2.2208,2.2208,2.2278,2.2301,2.2301,2.2347,2.237,2.237,2.2578,2.2555,2.2394,2.2752,2.2451,2.1664,2.1104,2.0236,1.9169,1.8092,1.7393,1.6989,1.665,1.65,1.65,1.65,1.65,1.65,0.0,0.0,0.0,0.0,0.0,0.0,0.0,0.0,0.0,0.0,0.0,0.0,0.0,0.0,0.0,0.0,0.0,0.0,0.0,0.3367,0.4185,0.5294,0.6468,0.7433,0.8117,0.9278,0.9938,1.006,1.1071,1.1159,1.0391,1.0157,0.9755,0.9199,0.6789,0.5483,0.4955,0.3183,0.2523,0.0,0.0,0.4303,0.6242,0.678,0.8196,0.0,0.0,0.0,0.0,0.0,0.0,1.9397,2.0283,2.0673,2.0847,2.1115,0.0,2.1803,2.1898,2.2119,2.2351,2.2388,2.2342,2.2226,2.1912,2.1793,2.1688,2.1447,2.135,0.0,2.1399,2.152,0.0,0.0,0.0,0.0,2.1664,2.1616,2.1568,0.0,2.1399,0.0,2.1399,2.1399,2.1399,2.1399,2.1688,2.1841,2.1841,2.1841,2.1841,2.1841,2.1973,2.2091,2.2208,2.2208,2.2208,2.2208,2.2347,2.2347,2.2208,2.2463,2.2024,2.1018,2.0791,1.9997,1.8806,1.7997,1.7475,1.7157,1.668,1.65,1.65,1.65,1.65,1.65,0.0,0.0,0.0,0.0,0.0,0.0,0.0,0.0,0.0,0.0,0.0,0.0,0.0,0.0,0.0,0.0,0.0,0.0,0.0,0.0,0.0,0.3336,0.4383,0.4996,0.5006,0.5993,0.648,0.6449,0.7695,0.7767,0.6731,0.68,0.6341,0.5463,0.4039,0.2911,0.2036,0.1268,0.0789,0.0599,0.0733,0.2096,0.4163,0.0,0.0,0.0,0.0,0.0,0.0,0.0,1.7014,1.8608,1.9669,2.0258,2.0649,2.1066,2.1293,2.1469,2.2021,2.2095,2.2021,2.2049,2.1983,2.1817,2.1544,2.1399,2.1302,2.135,0.0,2.1229,2.135,2.1399,2.1399,2.1399,0.0,2.1399,2.1399,2.1399,2.1423,2.1496,2.152,2.152,2.152,2.152,2.1496,2.1423,2.1399,2.1399,2.1399,2.1399,2.1399,2.1399,2.164,2.1864,2.2091,2.2091,2.2091,2.2091,2.2137,2.2137,2.2114,2.2184,2.1538,2.0385,2.0308,1.9545,1.8273,1.772,1.7372,1.7157,1.6659,1.65,1.65,1.65,1.65,1.65,0.0,0.0,0.0,0.0,0.0,0.0,0.0,0.0,0.0,0.0,-0.0932,-0.0449,0.0,0.0,0.0,0.0,0.0,0.0,0.0,0.0,0.0,0.0,0.1608,0.1907,0.2504,0.273,0.2727,0.2561,0.2979,0.2704,0.1742,0.1314,0.0657,-0.023,-0.1716,-0.2454,-0.2659,-0.3361,-0.3037,-0.2044,-0.2011,-0.0469,0.1945,0.0,0.0,0.0,0.0,0.0,0.0,0.0,1.6504,1.9162,1.9851,2.0458,2.0944,2.1126,2.1195,2.1199,2.1489,2.15,2.1586,2.2246,2.2397,2.2282,2.1959,2.1864,0.0,0.0,2.1131,2.1204,2.1229,2.1326,2.1399,2.1399,2.1399,2.1399,2.1399,2.1399,2.1568,0.0,2.2067,2.2067,2.2067,2.2067,0.0,2.1423,2.1399,2.1399,2.1399,2.1399,2.1399,2.1399,2.1447,2.1496,2.1544,2.1544,2.1544,2.1544,2.1746,2.1746,2.1544,2.1996,2.1676,2.0789,2.0432,1.9782,1.8865,1.7785,1.7276,1.7157,1.6629,1.6457,1.65,1.65,1.65,1.65,0.0,0.0,0.0,0.0,0.0,0.0,0.0,-0.3177,-0.2795,-0.242,-0.2219,-0.1902,-0.1413,-0.0961,-0.0717,0.0,0.0,0.0,0.0,0.0,0.0,0.0,0.0,0.0,0.0,0.0638,0.0,0.0,0.0,0.0168,-0.0769,-0.137,-0.2072,-0.2913,-0.4087,-0.4628,-0.4658,-0.496,-0.4558,-0.3656,-0.3084,-0.1642,0.0,0.0,0.0,0.0,0.0,0.0,0.0,0.0,1.4724,1.7263,1.8711,1.9426,1.9786,2.0244,2.0337,2.0437,2.0904,2.1014,2.1091,2.1558,2.1664,2.164,2.152,0.0,0.0,0.0,2.1033,2.1106,2.118,2.1302,0.0,2.1399,2.1399,2.1399,2.1399,2.1399,0.0,2.1746,2.1769,2.1769,0.0,2.1769,2.1688,2.1423,2.1399,2.1399,2.1399,2.1399,2.1399,2.1399,2.1399,2.1399,2.1399,2.1399,2.1399,2.1399,2.1544,2.152,2.1423,2.1688,2.1382,2.0653,1.9966,1.9453,1.9003,1.7667,1.7284,1.7475,1.701,1.6778,1.6714,1.6714,1.6629,1.65,0.0,0.0,0.0,0.0,0.0,0.0,0.0,-0.5046,-0.4663,-0.3583,-0.3459,-0.3401,-0.3317,-0.2262,-0.1503,0.0,0.0,0.0,0.0,0.0,0.0,0.0,0.0,0.0,0.0,0.0,0.0,0.0,0.0,0.0,0.0,0.0,0.0,0.0,-0.4758,-0.516,-0.516,-0.516,-0.4824,0.0,0.0,-0.1942,0.0,0.0,0.0,0.0,0.0,0.0,0.0,0.0,1.2613,1.4675,1.6609,1.7763,1.8551,1.9176,1.9273,1.9366,2.0118,2.0319,2.0393,2.0636,2.08,2.0888,2.0785,2.0749,0.0,0.0,2.081,2.0896,2.1155,0.0,2.1399,0.0,2.1399,2.1399,0.0,0.0,0.0,0.0,2.165,0.0,2.1592,2.1674,2.1626,2.1423,2.1399,2.1399,2.1399,2.1399,2.1399,2.1399,2.1399,2.1399,2.1399,2.1399,2.1399,2.1399,2.1399,2.1399,2.1399,2.1399,2.1093,2.0513,1.9522,1.903,1.8822,1.7502,1.7214,1.7544,1.7269,1.7052,1.6897,1.6897,1.6727,1.65,0.0,0.0,0.0,0.0,0.0,0.0,0.0,-0.3318,-0.3628,-0.4441,-0.4554,-0.4586,-0.4614,-0.2276,-0.0689,0.0,0.0,0.0,0.0,0.0,0.0,0.0,0.0,0.0,0.0,0.0,0.0,-0.1042,0.0,0.0,0.0,0.0,0.0,0.0,0.0,-0.4386,-0.4386,-0.4386,0.0,0.0,0.0,0.0,0.0,0.0,0.0,0.0,0.0,0.0,0.0,0.0,0.0,1.2448,1.3369,1.5704,1.8201,1.8525,0.0,0.0,1.8933,1.9104,1.9245,1.9915,2.0498,2.075,2.022,0.0,0.0,2.0093,2.0194,2.0472,2.1106,2.1302,2.1399,0.0,0.0,2.1399,0.0,0.0,0.0,0.0,0.0,0.0,2.2184,2.2503,2.2388,2.1471,2.1399,2.1399,2.1399,2.1399,2.1399,2.1399,2.1399,2.1399,2.1399,2.1399,2.1399,2.1399,2.1399,2.1399,2.1399,2.1399,2.1164,2.0713,1.9578,1.8803,1.8213,1.7289,1.6863,1.6816,1.6964,1.6976,1.6897,1.6897,1.6727,1.65,0.0,0.0,0.0,0.0,0.0,0.0,-0.5079,-0.504,-0.5002,-0.4885,-0.4885,-0.4709,-0.4241,-0.2716,-0.1694,-0.157,0.0,0.0,0.0,0.0,0.0,0.0,0.0,0.0,0.0,0.0,-0.1009,-0.1109,-0.1109,0.0,0.0,0.0,0.0,0.0,0.0,-0.412,-0.3854,0.0,0.0,0.0,0.0,0.0,0.0,0.0,0.0,0.0,0.0,0.0,0.0,0.0,0.0,0.0,1.2212,1.3915,0.0,0.0,1.746,1.7733,1.8741,1.8885,1.8882,1.9308,1.9591,1.9694,1.9448,0.0,1.9488,1.9824,2.0042,2.0371,2.0911,2.1144,2.1253,0.0,0.0,0.0,2.1277,0.0,0.0,2.1688,2.1874,0.0,0.0,0.0,2.1827,2.1423,2.1399,2.1399,2.1399,2.1399,2.1399,2.1399,2.1399,2.1399,2.1399,2.1399,2.1399,2.1399,2.1399,2.1399,2.1399,2.1399,2.1191,2.0743,1.9605,1.8943,1.86,1.7605,1.7165,1.7123,1.7214,1.6997,1.6671,1.6757,1.665,1.6457,0.0,0.0,0.0,0.0,0.0,-0.6347,-0.6306,-0.63,-0.6064,-0.5473,-0.5395,-0.5082,-0.4261,-0.36,-0.309,-0.2722,-0.1776,0.0,0.0,0.0,0.0,0.0,0.0,0.0,0.0,0.0,-0.1109,-0.1109,-0.1109,-0.1109,0.0,0.0,-0.1812,-0.1846,0.0,0.0,0.0,0.0,0.0,0.0,0.0,0.0,0.0,0.0,0.0,0.0,0.0,0.0,0.0,0.0,0.0,0.0,0.0,0.0,0.0,0.0,1.6553,1.7034,1.8077,1.8402,1.8498,1.8629,1.8827,1.896,0.0,0.0,1.8895,1.9488,1.976,2.0105,2.0787,2.1059,2.1106,2.1008,0.0,2.1033,2.1131,2.118,0.0,0.0,0.0,2.1636,2.1654,2.1656,2.1589,2.1399,2.1399,2.1399,2.1399,2.1399,2.1399,2.1399,2.1399,2.1399,2.1399,2.1399,2.1399,2.1399,2.1399,2.1399,2.1399,2.1399,2.1191,2.0743,1.9605,1.9012,1.8761,1.7678,1.7261,1.7261,1.7261,1.6947,1.6543,1.6774,1.668,1.6436,0.0,0.0,0.0,0.0,0.0,0.0,-0.632,-0.63,-0.63,-0.63,-0.63,-0.5948,-0.5082,-0.4963,-0.4649,-0.3867,-0.2183,0.0,0.0,0.0,0.0,0.0,0.0,0.0,0.0,0.0,-0.1109,-0.1109,-0.1109,-0.1109,-0.1109,-0.1109,-0.1109,-0.1143,0.0,0.0,0.0,0.0,0.0,0.0,0.0,0.0,0.0,0.0,0.0,0.0,0.0,0.0,0.0,0.0,0.0,0.0,0.0,1.1298,1.3334,0.0,1.5429,1.5632,1.657,1.7357,1.7897,1.7897,1.8467,1.8842,0.0,0.0,1.8309,1.9042,1.9212,1.9578,2.0785,2.0997,2.0997,2.0997,2.0997,0.0,2.0997,2.1106,0.0,0.0,0.0,2.2233,2.2287,2.2291,2.2047,2.144,2.1399,2.1399,2.1399,2.1399,2.1399,2.1399,2.1399,2.1399,2.1399,2.1399,2.1399,2.1399,2.1399,2.1399,2.1399,2.1399,2.1191,2.0743,1.9605,1.8862,1.8426,1.7359,1.6897,1.6897,1.6897,1.6748,1.6552,1.7097,1.6909,1.6479,0.0,0.0,0.0,0.0,0.0,0.0,0.0,-0.4572,-0.4606,-0.4606,-0.4582,-0.4494,-0.4222,-0.364,-0.3173,-0.2938,-0.2414,0.0,0.0,0.0,0.0,0.0,0.0,0.0,0.0,0.0,-0.1163,-0.1107,-0.1107,-0.1096,-0.1109,-0.1109,-0.1109,-0.1143,-0.1812,0.0,0.0,0.0,0.0,0.0,0.0,0.0,0.0,0.0,0.0,0.0,0.0,0.0,0.0,0.0,0.0,0.0,0.0,0.0,0.0,1.3317,1.4165,1.4825,1.5892,1.6255,1.6472,1.7022,1.7329,1.7457,1.7363,0.0,1.7667,1.8842,1.9133,1.9514,2.0599,2.0861,2.0899,2.0799,2.0799,0.0,0.0,0.0,0.0,2.1302,2.1899,2.2112,2.1722,2.2074,2.2061,2.144,2.1399,2.1399,2.1399,2.1399,2.1399,2.1399,2.1399,2.1399,2.1399,2.1399,2.1399,2.1399,2.1399,2.1264,2.0981,2.0981,2.0635,1.9927,1.9074,1.8446,1.8031,1.7228,1.6735,1.6497,1.6497,1.6293,1.6044,1.6315,1.6358,1.6297,0.0,0.0,0.0,0.0,0.0,0.0,0.0,-0.381,-0.3816,-0.3816,-0.3821,-0.3803,-0.3803,-0.3304,-0.2976,-0.2976,-0.2705,0.0,0.0,0.0,0.0,0.0,0.0,0.0,-0.1183,-0.1209,-0.1193,-0.1138,-0.1138,-0.1128,-0.1144,-0.1144,-0.1144,-0.1144,-0.1559,-0.1525,0.0,0.0,0.0,0.0,0.0,0.0,0.0806,0.0,0.0,0.0,0.0,0.0,0.0,0.0,0.0,0.0,0.0,0.0,0.0,0.0,1.2848,1.3765,0.0,1.5478,1.5728,1.6208,1.6616,1.6909,0.0,0.0,1.7412,1.8441,1.8922,1.937,2.0207,2.0612,2.08,2.0699,2.0699,0.0,0.0,0.0,0.0,2.1672,0.0,2.2483,2.2117,2.2415,2.2388,2.1778,2.1521,2.1399,2.1399,2.1399,2.1399,2.1399,2.1399,2.1399,2.1399,2.1399,2.1399,2.1399,2.1399,2.1191,2.0795,2.0795,2.0434,1.9786,1.8883,1.8353,0.0,1.7084,1.6531,1.629,1.6151,1.5979,1.5836,1.6141,1.6241,1.6231,0.0,0.0,0.0,0.0,0.0,0.0,0.0,-0.3617,-0.3613,-0.3613,-0.3626,-0.3614,-0.3614,-0.3623,-0.3612,-0.3606,0.0,0.0,0.0,0.0,0.0,0.0,0.0,0.0,-0.1215,-0.1224,-0.1208,-0.1206,-0.1206,-0.1205,-0.1203,-0.1203,-0.1203,-0.1203,-0.1203,-0.1166,-0.1093,-0.0474,-0.0216,-0.0176,0.0386,0.0898,0.0,0.0,0.0,0.0,0.0,0.0,0.0,0.0,0.0,0.0,0.0,0.0,0.0,0.0,0.0,0.0,0.0,1.4923,1.5516,1.5584,1.6273,1.6983,1.6983,0.0,0.0,1.7995,1.8575,1.9172,1.9708,2.0283,2.0699,2.0699,2.0712,0.0,0.0,2.0985,0.0,0.0,2.2861,2.3215,2.3254,2.3241,2.2957,2.2359,2.1724,2.1399,2.1399,2.1399,2.1399,2.1399,2.1399,2.1399,2.1399,2.1399,2.1399,2.1399,2.1399,2.1166,2.0746,2.0746,2.0497,2.0003,1.8894,1.8397,1.8246,1.6835,1.6247,1.6238,1.5913,1.5792,1.5881,1.6423,1.6457,1.6275,0.0,0.0,0.0,0.0,0.0,0.0,0.0,0.0,0.0,0.0,-0.1902,-0.1877,-0.1877,-0.1869,-0.1891,0.0,0.0,0.0,0.0,0.0,0.0,0.0,0.0,0.0,-0.1285,-0.1278,-0.1262,-0.1201,-0.1201,-0.1189,-0.1203,-0.1203,-0.1203,-0.1203,-0.1203,-0.0911,-0.0437,-0.0255,0.0073,0.0469,0.0614,0.0959,0.0,0.0,0.0,0.0,0.2857,0.3553,0.0,0.0,0.0,0.0,0.0,0.0,0.0,0.0,1.1624,1.2398,1.292,0.0,1.4874,1.5342,1.6075,1.6712,0.0,0.0,0.0,0.0,0.0,1.9172,1.9708,2.0283,2.0699,2.0699,0.0,2.0875,2.0947,0.0,0.0,2.2843,2.3104,2.3385,2.3847,2.3475,2.2957,2.2359,2.1724,2.1399,2.1399,2.1399,2.1399,2.1399,2.1399,2.1399,2.1399,2.1399,2.1399,2.1399,2.1399,2.1019,2.0346,2.0346,1.9737,1.8618,1.7946,1.7434,1.7006,1.6223,1.5913,1.5913,1.5836,1.5792,1.5814,1.5957,1.61,1.6188,0.0,0.0,0.0,0.0,0.0,0.0,0.0,0.0,0.0,0.0,0.0,-0.1367,-0.1367,-0.1313,0.0,0.0,0.0,0.0,0.0,0.0,0.0,0.0,0.0,-0.1296,-0.1296,-0.1296,-0.1288,-0.1232,-0.1232,-0.1262,-0.1246,-0.1246,-0.1246,-0.1246,-0.1246,-0.0868,-0.0226,0.0038,0.0525,0.1076,0.1371,0.0,0.0,0.0,0.0,0.0,0.304,0.3656,0.0,0.5524,0.6251,0.6872,0.0,0.0,0.0,0.0,1.1437,1.2467,1.256,1.3307,1.4201,1.4824,1.5575,1.6236,1.6637,0.0,0.0,0.0,0.0,0.0,1.937,2.0131,0.0,0.0,2.0863,0.0,0.0,0.0,2.2147,2.3089,2.3452,2.3741,2.4071,2.3535,2.2957,2.2359,2.1724,2.1399,2.1399,2.1399,2.1399,2.1399,2.1399,2.1399,2.1399,2.1399,2.1399,2.1399,2.1215,2.0797,2.0195,1.9762,1.9045,1.8157,1.7363,1.6871,1.6559,1.6008,1.5792,1.5792,1.5792,1.5792,1.5814,1.5869,1.5979,1.6122,0.0,0.0,0.0,0.0,0.0,0.0,0.0,0.0,0.0,0.0,0.0,0.0,0.0,0.0,0.0,0.0,0.0,0.0,0.0,0.0,0.0,0.0,-0.1299,-0.1296,-0.1296,-0.1296,-0.1296,-0.1296,-0.1296,-0.1296,-0.1296,-0.1296,-0.1257,-0.1139,-0.1139,-0.0707,0.0039,0.0549,0.1087,0.1714,0.2205,0.0,0.0,0.0,0.0,0.0,0.0,0.0,0.0,0.5591,0.6251,0.6806,0.7326,0.0,0.0,0.0,0.0,0.0,1.2713,1.3125,1.3683,1.435,1.5157,1.594,1.6513,0.0,0.0,0.0,0.0,0.0,0.0,1.9952,0.0,0.0,0.0,0.0,2.1204,2.1851,2.2561,2.3251,2.3702,2.4015,2.4218,2.3512,2.2849,2.2346,2.1724,2.1399,2.1399,2.1399,2.1399,2.1399,2.1399,2.1399,2.1399,2.1399,2.1375,2.1288,2.0888,2.0429,1.9953,1.9071,1.84,1.7917,1.6991,1.6559,1.6451,1.5994,1.5792,1.5792,1.5814,1.5836,1.5859,1.5979,1.6044,1.6022,0.0,0.0,0.0,0.0,0.0,0.0,0.0,0.0,0.0,0.0,0.0,0.0,0.0,0.0,0.0,0.0,0.0,0.0,0.0,0.0,0.0,-0.1297,-0.131,-0.1296,-0.1296,-0.1296,-0.1296,-0.1296,-0.1296,-0.1296,-0.1296,-0.1296,-0.0982,-0.0471,-0.0471,0.0196,0.1333,0.1412,0.18,0.234,0.2457,0.0,0.0,0.0,0.0,0.0,0.0,0.0,0.0,0.5591,0.6251,0.6806,0.7326,0.0,0.0,0.0,0.0,0.0,1.3177,1.3524,1.3807,1.435,1.5584,1.6637,0.0,0.0,0.0,0.0,0.0,0.0,0.0,2.0016,2.0888,0.0,0.0,2.1204,2.135,2.19,2.27,2.3814,2.3583,2.3739,2.475,2.3403,2.2414,2.2319,2.1724,2.1399,2.1399,2.1399,2.1399,2.1399,2.1399,2.1399,2.1399,2.1399,2.124,2.0894,2.038,1.9733,1.8983,1.841,1.7675,1.6835,1.6667,1.6355,1.5912,1.5828,1.5792,1.5814,1.5913,1.5979,1.6001,1.6122,1.6178,1.61,0.0,0.0,0.0,0.0,0.0,0.0,0.0,0.0,0.0,0.0,0.0,0.0,0.0,0.0,0.0,0.0,0.0,0.0,0.0,0.0,-0.1358,-0.1287,-0.1298,-0.1314,-0.1297,-0.1296,-0.1296,-0.1296,-0.1296,-0.1296,-0.1296,-0.0943,-0.0432,0.0196,0.0196,0.0706,0.1607,0.1607,0.2078,0.2826,0.0,0.0,0.0,0.0,0.0,0.0,0.0,0.0,0.0,0.0,0.6383,0.7068,0.7591,0.0,0.0,0.0,0.0,0.0,1.3299,1.3846,1.4364,1.4943,1.5719,1.6485,0.0,0.0,0.0,0.0,0.0,0.0,0.0,0.0,2.0938,2.1035,0.0,2.1326,2.1399,2.2198,2.2857,2.3094,2.3466,2.3659,2.3535,2.2795,2.2169,2.1857,2.1548,2.1399,2.1399,2.1399,2.1399,2.1399,2.1399,2.1236,2.0925,2.0911,2.0816,2.0636,1.9987,1.9304,1.8614,1.7672,1.7023,1.6583,1.6307,1.6042,1.5814,1.5869,1.5913,1.5913,1.6044,1.6122,1.6122,1.61,1.6144,1.6144,0.0,0.0,0.0,0.0,0.0,0.0,0.0,0.0,0.0,0.0,0.0,0.0,0.0,0.0,0.0,0.0,0.0,0.0,0.0,0.0,-0.1388,-0.1317,-0.1335,-0.1306,-0.1308,-0.13,-0.1296,-0.1296,-0.1139,-0.0982,-0.0825,-0.0314,0.0236,0.0825,0.0825,0.1216,0.1803,0.1803,0.2275,0.2943,0.0,0.0,0.0,0.0,0.0,0.0,0.0,0.0,0.0,0.0,0.0,0.0,0.0,0.0,0.0,1.0483,1.1507,1.2775,1.3541,1.4243,1.4933,1.5699,0.0,0.0,0.0,0.0,0.0,0.0,0.0,0.0,0.0,2.0536,0.0,2.1204,2.1326,2.1399,2.1399,2.232,2.2822,2.2359,2.3133,2.3336,2.2386,2.2169,2.1912,2.1426,2.1399,2.1399,2.1399,2.1399,2.1423,2.1496,2.1359,2.1074,2.068,2.0507,2.0324,2.0034,1.9326,1.8676,1.8021,1.6921,1.6415,1.6403,1.6005,1.5859,1.5859,1.5979,1.6044,1.6066,1.6188,1.6253,1.6231,1.6132,1.6144,1.6144,0.0,0.0,0.0,0.0,0.0,0.0,0.0,0.0,0.0,0.0,0.0,0.0,0.0,0.0,0.0,0.0,0.0,0.0,0.0,0.0,-0.1418,-0.1388,-0.1384,-0.1357,-0.1301,-0.1311,-0.1296,-0.1296,-0.0668,-0.0079,0.0471,0.051,0.0903,0.1528,0.1528,0.1882,0.2431,0.2431,0.247,0.255,0.255,0.0,0.0,0.0,0.0,0.0,0.0,0.0,0.0,0.0,0.0,0.0,0.0,0.0,1.0483,1.0483,1.1507,1.2867,1.4112,1.4658,1.5177,1.6428,0.0,0.0,0.0,0.0,0.0,0.0,0.0,0.0,0.0,2.0648,2.1229,2.135,2.1399,2.1399,2.1399,2.1966,2.2359,2.2319,2.2386,2.24,2.2319,2.1778,2.144,2.1399,2.1399,2.1399,2.1399,2.1399,2.152,2.1746,2.1226,2.1001,2.1145,2.0586,1.9739,1.8637,1.8087,1.7436,1.6736,1.6137,1.5852,1.5862,1.5947,1.5988,1.6001,1.6122,1.62,1.6188,1.6328,1.6392,1.6371,1.6371,1.6297,1.6134,0.0,0.0,0.0,0.0,0.0,0.0,0.0,0.0,0.0,0.0,0.0,0.0,0.0,0.0,0.0,0.0,0.0,0.0,0.0,-0.1391,-0.1385,-0.1418,-0.14,-0.138,-0.1357,-0.131,-0.1125,-0.0723,-0.0079,0.0589,0.1216,0.1216,0.1568,0.2156,0.2156,0.2275,0.2511,0.2511,0.2824,0.3294,0.3294,0.3684,0.0,0.0,0.0,0.0,0.0,0.0,0.0,0.0,0.7433,0.8349,0.8571,0.9614,1.0818,1.0818,1.167,1.2889,1.4273,1.4767,1.5235,1.6578,0.0,0.0,0.0,0.0,0.0,0.0,0.0,0.0,0.0,0.0,2.135,2.1399,2.1399,2.1399,2.1399,2.1925,2.2169,2.1765,2.2074,2.2156,2.1765,2.1521,2.1399,2.1399,2.1399,2.1399,2.1399,2.1203,2.1142,2.1222,2.0765,2.0396,2.0091,1.9726,1.8942,1.7674,1.7861,1.7403,1.6414,1.6064,1.5913,1.5935,1.6078,1.6122,1.6144,1.6275,1.6318,1.634,1.6436,1.6272,1.602,1.5923,1.5869,1.5802,0.0,0.0,0.0,0.0,0.0,0.0,0.0,0.0,0.0,0.0,0.0,0.0,0.0,0.0,0.0,0.0,0.0,0.0,-0.1391,-0.1391,-0.1391,-0.1391,-0.1415,-0.1316,-0.1097,-0.1016,-0.0784,-0.0407,0.0477,0.1255,0.1882,0.1882,0.2117,0.2511,0.2511,0.2589,0.2707,0.2707,0.3137,0.3802,0.3802,0.4116,0.0,0.0,0.0,0.0,0.0,0.0,0.0,0.0,0.7857,0.8705,0.8926,0.9907,1.0982,1.0982,1.1911,1.3208,1.4373,1.4992,1.5545,0.0,0.0,0.0,0.0,0.0,0.0,0.0,2.041,0.0,0.0,0.0,0.0,2.1399,2.1399,2.1399,2.1399,2.1751,2.1871,2.144,2.1751,2.1857,2.144,2.1399,2.1399,2.1399,2.1295,2.1247,2.1247,2.0896,2.0737,2.0826,2.0364,1.9936,1.9628,1.9274,1.8589,1.7537,1.7845,1.7338,1.6194,1.6054,1.6022,1.6066,1.621,1.6253,1.6275,1.6392,1.6436,1.6436,1.6479,1.6185,1.5734,1.5668,1.5534,1.539,0.0,0.0,0.0,0.0,0.0,0.0,0.0,0.0,0.0,0.0,0.0,0.0,0.0,0.0,0.0,0.0,0.0,0.0,-0.1436,-0.1391,-0.1391,-0.1391,-0.1391,-0.1076,-0.0403,-0.0307,-0.0298,-0.0366,0.0952,0.1921,0.2511,0.2511,0.2511,0.2511,0.2511,0.2746,0.3102,0.3102,0.3374,0.3802,0.3802,0.3839,0.3869,0.0,0.0,0.0,0.0,0.0,0.0,0.0,0.8009,0.8985,0.9017,0.9907,1.0982,1.0982,1.2289,1.3828,1.4521,1.5371,1.6244,0.0,0.0,0.0,0.0,0.0,0.0,0.0,0.0,2.1229,2.1375,2.1399,2.1399,2.1399,2.1399,2.1399,2.1399,2.1399,2.1399,2.1399,2.1399,2.1399,2.1399,2.1385,2.1385,2.141,2.1082,2.0891,2.0891,2.0506,2.0408,2.0684,2.0043,1.9815,2.0088,1.9435,1.8822,1.8305,1.7888,1.711,1.601,1.5988,1.6066,1.6222,1.634,1.6392,1.6414,1.6479,1.65,1.65,1.65,1.612,1.5613,1.5744,1.5411,1.4903,0.0,0.0,0.0,0.0,0.0,0.0,0.0,0.0,0.0,0.0,0.0,0.0,0.0,0.0,0.0,0.0,0.0,0.0,-0.0673,-0.0718,-0.0718,-0.0718,-0.0718,-0.0359,0.0359,0.0822,0.1046,0.1097,0.1865,0.2314,0.2511,0.2511,0.2668,0.2904,0.2904,0.3178,0.3606,0.4031,0.4457,0.4874,0.5173,0.5481,0.5773,0.0,0.0,0.0,0.0,0.0,0.0,0.0,0.0,0.0,0.928,1.0104,1.0982,1.0982,1.2035,1.345,1.4531,1.5206,0.0,0.0,0.0,0.0,0.0,0.0,0.0,0.0,2.0995,2.135,2.1399,2.1399,2.1399,2.1399,2.1399,2.1399,2.1399,2.1399,2.1399,2.1399,2.1399,2.1471,2.1664,2.1293,2.1107,2.1241,2.0776,2.0486,2.0486,2.0112,1.9918,2.0,1.9545,1.9315,1.9406,1.9056,1.8688,1.8305,1.8028,1.7441,1.6561,1.6358,1.6306,1.6362,1.6436,1.6479,1.6479,1.65,1.65,1.65,1.65,1.5988,1.5244,1.5277,1.4983,1.4558,0.0,0.0,0.0,0.0,0.0,0.0,0.0,0.0,0.0,0.0,0.0718,0.0718,0.0,0.0,0.0,0.0718,0.0718,0.0,0.0045,0.0045,0.0045,0.0045,0.0045,0.0403,0.1121,0.172,0.2046,0.21,0.2353,0.2511,0.2511,0.2511,0.2707,0.3102,0.3372,0.3839,0.4419,0.5038,0.5511,0.5838,0.6091,0.6282,0.6434,0.0,0.0,0.0,0.0,0.0,0.0,0.0,0.0,0.0,0.0,0.0,1.1045,1.1163,1.242,1.3953,1.4864,1.568,0.0,0.0,0.0,0.0,0.0,0.0,0.0,0.0,2.1302,2.1399,2.1399,2.1399,2.1399,2.1399,2.1399,2.1471,2.1688,2.1722,2.1639,2.1405,2.1434,2.1375,2.1116,2.0816,2.0698,2.0826,2.0351,2.0062,2.0062,1.9686,1.9462,1.9462,1.9228,1.9101,1.9101,1.8988,1.8822,1.8611,1.8324,1.7848,1.718,1.6816,1.6573,1.6436,1.6479,1.65,1.65,1.65,1.65,1.65,1.65,1.5923,1.5108,1.5108,1.4674,1.4093,0.0,0.0,-0.0314,-0.0314,0.0,0.0,0.0,0.0,0.0,0.0897,0.0897,0.0897,0.0,0.0,0.0,0.0897,0.0897,0.0852,0.0807,0.0807,0.0807,0.0807,0.0852,0.1211,0.1885,0.241,0.2692,0.2692,0.257,0.2511,0.255,0.255,0.2824,0.3335,0.3954,0.4688,0.55,0.6083,0.6464,0.67,0.6719,0.6572,0.6328,0.6268,0.0,0.0,0.0,0.0,0.0,0.0,0.0,0.0,0.9516,1.0174,1.1014,1.1392,1.3058,1.4884,1.5313,0.0,0.0,0.0,0.0,0.0,2.0244,2.0497,2.0623,2.1131,0.0,2.1399,2.1399,2.1399,2.1399,2.1399,2.1447,2.165,2.2147,2.2198,2.2004,2.1462,2.1481,2.1182,2.0213,2.0245,2.0345,2.0345,1.9945,1.9669,1.9669,1.9306,1.9101,1.9101,1.9101,1.9101,1.9101,1.9101,1.9101,1.9101,1.8726,1.8285,1.7767,1.7276,1.6837,1.65,1.65,1.65,1.65,1.65,1.65,1.65,1.65,1.5923,1.5108,1.5108,1.4455,1.3597,0.0,0.0,0.0448,0.0448,0.0,0.0,0.0,0.0,0.2424,0.2424,0.2424,0.2424,0.2424,0.2424,0.0,0.2424,0.2424,0.2199,0.1615,0.157,0.157,0.157,0.2109,0.2513,0.2649,0.2668,0.2692,0.2692,0.257,0.2668,0.2982,0.2982,0.3643,0.4841,0.4996,0.5619,0.6591,0.7207,0.7412,0.7315,0.7636,0.7636,0.7443,0.727,0.7259,0.0,0.0,0.0,0.0,0.0,0.0,0.0,0.9516,0.9926,1.0579,1.1305,1.258,1.4088,0.0,1.6415,0.0,0.0,0.0,0.0,2.0932,2.1191,2.1215,2.1313,2.1375,2.1399,2.1399,2.1399,2.1399,2.1399,2.1803,2.2142,2.2258,2.224,2.2149,2.2017,2.153,2.1201,2.1173,2.0749,2.0538,2.0746,2.0,1.9534,1.9534,1.9268,1.9101,1.9101,1.9101,1.9101,1.9101,1.9101,1.9101,1.9101,1.9007,1.8572,1.7787,1.7352,1.6913,1.65,1.65,1.65,1.65,1.65,1.65,1.65,1.65,1.5923,1.5108,1.5108,1.4455,1.3597,0.0,0.0,0.0,0.0,0.0,0.0,0.0,0.0,0.292,0.292,0.292,0.292,0.292,0.292,0.0,0.0,0.292,0.2739,0.2334,0.2334,0.2334,0.2334,0.2694,0.2904,0.2831,0.274,0.2761,0.2936,0.2835,0.2904,0.3102,0.3643,0.438,0.5345,0.5925,0.6623,0.7357,0.7879,0.7958,0.7794,0.7913,0.7918,0.7883,0.7766,0.7944,0.8269,0.8603,0.0,0.0,0.0,0.0,0.0,0.0,0.0,1.0485,1.1461,1.2588,1.3879,0.0,0.0,0.0,0.0,0.0,0.0,2.0932,2.1264,2.1399,2.1399,2.1399,2.1482,2.1779,2.1827,2.1945,2.2198,2.2521,2.27,2.2593,2.2571,2.2312,2.1685,2.137,2.1055,2.0665,2.0397,2.0312,2.0455,2.0029,1.9672,1.9512,1.9365,1.9236,1.9101,1.9101,1.9101,1.9101,1.9101,1.9101,1.9101,1.9101,1.8649,1.7767,1.7144,1.6723,1.65,1.65,1.65,1.65,1.65,1.65,1.65,1.65,1.6064,1.5445,1.5445,1.4812,1.3975,0.0,0.0,0.0,0.0,0.0,0.0,0.0,0.0,0.0,0.292,0.292,0.292,0.292,0.292,0.292,0.0,0.0,0.0,0.292,0.292,0.292,0.292,0.2908,0.2835,0.2785,0.2797,0.2939,0.3206,0.3293,0.3374,0.3489,0.438,0.5074,0.5616,0.6777,0.7532,0.7918,0.8249,0.8259,0.8049,0.7912,0.7917,0.8019,0.8052,0.8441,0.892,0.8985,0.9183,0.942,0.9484,0.0,0.0,0.0,0.0,1.039,1.1461,1.2557,1.373,0.0,0.0,0.0,0.0,0.0,0.0,2.0709,2.1104,2.1423,2.1471,2.1471,2.1626,2.2165,2.2328,2.2543,2.3084,2.326,2.3255,2.295,2.2909,2.2469,2.1283,2.118,2.087,1.9985,2.0028,2.0131,2.0131,2.0096,1.994,1.9675,1.9621,1.9457,1.9195,1.9195,1.9176,1.9139,1.9139,1.9139,1.9139,1.9082,1.8669,1.7908,1.7026,1.6595,1.65,1.65,1.65,1.65,1.65,1.65,1.65,1.65,1.6216,1.581,1.581,1.522,1.4419,0.0,0.0,0.0,0.0,0.0,0.0,0.0,0.0,0.0,0.0,0.292,0.292,0.292,0.292,0.292,0.292,0.292,0.292,0.292,0.0,0.0,0.292,0.2824,0.2792,0.2783,0.3002,0.3175,0.3206,0.3882,0.0,0.0,0.0,0.0,0.6707,0.7399,0.7963,0.8328,0.8374,0.8174,0.7849,0.8122,0.8146,0.8019,0.8317,0.8484,0.8608,0.8894,0.9017,0.9119,0.9414,0.9516,0.0,0.0,0.0,0.9798,1.0685,1.1842,1.3072,0.0,0.0,0.0,0.0,0.0,2.0296,0.0,0.0,2.1471,2.1712,2.1746,2.1841,2.2147,2.2457,2.274,2.2995,2.3565,2.3756,2.3077,2.294,2.2613,2.1859,2.1231,2.0806,2.0662,2.0678,2.0695,2.0695,2.0494,2.0325,2.0275,2.0063,1.978,1.9457,1.9566,1.9508,1.9284,1.9339,1.9358,1.9358,1.9007,1.8726,1.8461,1.7578,1.693,1.65,1.65,1.65,1.65,1.65,1.65,1.65,1.65,1.6216,1.581,1.581,1.5231,1.4478,0.0,0.0,0.0,0.0,0.0,0.0,0.0,0.0,0.0,0.0,0.0,0.292,0.292,0.292,0.292,0.292,0.292,0.292,0.292,0.2886,0.2823,0.2823,0.2978,0.3053,0.3014,0.3405,0.367,0.3857,0.0,0.0,0.0,0.6009,0.6626,0.0,0.0,0.8327,0.8428,0.8666,0.8674,0.8503,0.8964,0.9259,0.9378,0.9268,0.9338,0.9472,0.9344,0.928,0.9318,0.9452,0.9516,0.9516,0.9516,0.0,0.0,0.0,1.1564,0.0,1.4886,0.0,0.0,0.0,1.963,2.0258,2.0422,0.0,2.1496,2.1722,2.1926,2.2217,2.2867,2.3113,2.3406,2.4012,2.4395,2.422,2.311,2.2925,2.2503,2.141,2.0984,2.0794,2.0794,2.0794,2.0794,2.0794,2.0695,2.0562,2.041,2.0289,2.0045,1.9621,1.9672,1.9581,1.9358,1.9395,1.9395,1.9395,1.9213,1.8936,1.8592,1.8193,1.7612,1.6884,1.6595,1.65,1.65,1.65,1.65,1.65,1.65,1.6414,1.6293,1.6293,1.5932,1.5354,0.0,0.0,0.0,0.0,0.0,0.0,0.0,0.0,0.0,0.0,0.0,0.292,0.292,0.0,0.0,0.0,0.292,0.2913,0.2896,0.2794,0.276,0.276,0.3078,0.3263,0.3206,0.3752,0.4148,0.4384,0.0,0.0,0.617,0.6822,0.7413,0.0,0.8434,0.8543,0.0,0.0,0.0,0.9058,0.9717,1.0174,0.0,1.0218,1.0199,1.0244,0.9862,0.9612,0.9516,0.9516,0.9516,0.9516,0.9516,0.9516,0.0,0.0,0.0,0.0,0.0,0.0,1.7639,1.8278,1.9265,2.0131,0.0,0.0,2.1592,2.1841,2.217,2.27,2.3545,2.3696,2.3973,2.4806,2.4966,2.4495,2.3104,2.2898,2.2376,2.0968,2.0794,2.0794,2.0794,2.0794,2.0794,2.0794,2.0794,2.0712,2.0512,2.0545,2.0393,1.9942,1.9907,1.9797,1.9578,1.9505,1.9487,1.9487,1.9487,1.925,1.8803,1.8712,1.8212,1.7372,1.6892,1.6607,1.65,1.65,1.6522,1.6543,1.6543,1.6641,1.674,1.674,1.6488,1.6092,0.0,0.0,0.0,0.0,0.0,0.0,0.0,0.0,0.0,0.0,0.0,0.292,0.292,0.292,0.292,0.292,0.292,0.2895,0.2792,0.273,0.2698,0.2698,0.3006,0.0,0.3206,0.3968,0.4389,0.0,0.0,0.0,0.6865,0.7476,0.7954,0.8378,0.842,0.8411,0.8414,0.0,0.0,0.0,0.0,0.0,0.0,0.0,1.0674,0.0,0.0,0.9926,0.9516,0.9516,0.9516,0.9516,0.9516,0.9516,0.9516,0.0,0.0,0.0,0.0,1.5535,0.0,1.7678,0.0,0.0,0.0,0.0,2.1864,2.2114,2.2655,2.3238,2.3861,2.3982,2.4172,2.4722,2.4922,2.4495,2.3104,2.2898,2.2376,2.0968,2.0794,2.0794,2.0794,2.0794,2.0794,2.0794,2.0794,2.0794,2.0778,2.0958,2.0909,2.0563,2.0495,2.0325,2.0065,1.98,1.969,1.969,1.969,1.9563,1.9358,1.902,1.8549,1.7928,1.7393,1.6905,1.65,1.65,1.6565,1.6675,1.6675,1.6761,1.6876,1.6876,1.6616,1.629,0.0,0.0,0.0,0.0,0.0,0.0,0.0,0.0,0.0,0.0,0.0,0.0,0.0,0.3236,0.2816,0.2816,0.2779,0.2748,0.2726,0.2668,0.2757,0.3,0.3097,0.3414,0.3963,0.4245,0.0,0.0,0.0,0.6247,0.6899,0.74,0.7873,0.8401,0.8401,0.8538,0.8816,0.9451,0.0,0.0,0.0,0.0,0.0,0.0,0.0,0.0,0.0,0.0,0.0,1.0021,0.9798,0.9516,0.9516,0.0,0.0,0.0,0.0,0.0,0.0,0.0,0.0,1.7296,1.8298,1.9242,2.0232,2.0944,2.1599,2.2324,2.2791,2.3282,2.3897,2.4187,2.4441,2.4862,2.4982,2.4495,2.3104,2.2898,2.2376,2.0968,2.0794,2.0794,2.0794,2.0794,2.0844,2.0974,2.099,2.1023,2.1119,2.1183,2.1103,2.0861,2.0629,2.0291,1.9851,1.9762,1.9672,1.9647,1.9672,1.9581,1.9395,1.9362,1.9049,1.8481,1.7981,1.7387,1.6769,1.6769,1.6791,1.6825,1.6825,1.6876,1.696,1.696,1.6926,1.6829,0.0,0.0,0.0,0.0,0.0,0.0,0.0,0.0,0.0,0.0,0.0,0.0,0.0,0.0,0.3817,0.3817,0.3575,0.3404,0.3404,0.3172,0.313,0.3411,0.3478,0.3802,0.4384,0.4543,0.0,0.0,0.0,0.0,0.0,0.7497,0.7993,0.8367,0.8546,0.8804,0.0,0.0,0.0,1.1463,0.0,0.0,1.2575,0.0,0.0,0.0,0.0,0.0,0.0,1.0523,0.0,0.0,0.0,0.0,0.0,0.0,0.0,0.0,1.4183,0.0,0.0,0.0,0.0,1.8679,1.9953,2.0794,2.1589,2.2417,2.2926,2.3312,2.3717,2.4193,2.462,2.4962,2.5005,2.4495,2.3104,2.2898,2.2376,2.0968,2.0794,2.0794,2.0794,2.0794,2.0876,2.1071,2.1103,2.1167,2.1293,2.1356,2.1262,2.0926,2.0712,2.0308,1.9708,1.9708,1.9672,1.9632,1.9672,1.9632,1.9483,1.9578,1.9343,1.8827,1.8549,1.7935,1.7094,1.696,1.6897,1.6918,1.6918,1.6981,1.7086,1.7086,1.7115,1.7157,0.0,0.0,0.0,0.0,0.0,0.0,0.0,0.0,0.0,0.6454,0.0,0.0,0.0,0.0,0.0,0.5797,0.5197,0.4811,0.4811,0.4202,0.3841,0.3841,0.419,0.4423,0.4423,0.4818,0.0,0.0,0.0,0.0,0.0,0.0,0.8374,0.8339,0.8918,0.9276,0.9534,0.0,1.1739,1.1707,0.0,1.2901,1.263,0.0,0.0,0.0,1.1833,1.149,0.0,1.1014,0.0,0.0,0.0,0.0,0.0,0.0,0.0,0.0,0.0,0.0,0.0,0.0,0.0,1.8216,1.9235,2.0569,2.1746,2.244,2.3001,2.3384,2.3406,2.3994,2.462,2.4926,2.4985,2.4495,2.3104,2.2898,2.2376,2.0968,2.0794,2.0794,2.0811,2.0811,2.0893,2.1103,2.1103,2.1167,2.1325,2.1496,2.1372,2.0827,2.0811,2.0461,1.9711,1.9711,1.9708,1.9708,1.9708,1.9654,1.9593,1.9672,1.9424,1.893,1.9049,1.85,1.7496,1.7094,1.696,1.7002,1.7002,1.7094,1.7199,1.7199,1.7199,1.7199,0.0,0.0,0.0,0.0,0.0,0.0,0.7302,0.7292,0.7214,0.0,0.0,0.0,0.6906,0.6194,0.5706,0.5647,0.549,0.5391,0.5391,0.5204,0.5032,0.4882,0.4727,0.4693,0.4818,0.5082,0.5307,0.5444,0.6723,0.7233,0.7053,0.7939,0.8324,0.0,0.9871,1.043,1.0238,1.109,0.0,1.2352,1.264,1.2678,0.0,0.0,0.0,0.0,0.0,1.2027,1.1584,0.0,1.1392,1.1069,0.0,0.0,0.0,0.0,0.0,0.0,1.398,0.0,0.0,0.0,0.0,0.0,1.8776,1.9787,2.0771,2.1935,2.2489,2.2891,2.3319,2.3994,2.4518,2.462,2.4826,2.4495,2.3104,2.2898,2.2376,2.0968,2.0794,2.086,2.099,2.1022,2.1151,2.1434,2.145,2.1527,2.1646,2.1708,2.1572,2.1167,2.1167,2.0811,2.0085,2.0052,1.9925,1.9629,1.9687,1.9654,1.9593,1.9672,1.9621,1.946,1.9199,1.8765,1.8187,1.774,1.7393,1.7136,1.7136,1.7178,1.7199,1.7199,1.7199,1.7199,0.0,0.0,0.8074,0.8836,0.0,0.7876,0.8367,0.8307,0.8234,0.0,0.0,0.0,0.7829,0.7284,0.6947,0.6892,0.665,0.6535,0.6535,0.6269,0.6079,0.5967,0.5682,0.5542,0.5666,0.5673,0.5746,0.5852,0.7025,0.7476,0.7316,0.8127,0.8657,0.8992,1.0257,1.0912,0.0,0.0,0.0,0.0,1.3021,0.0,0.0,1.3029,1.2935,0.0,0.0,0.0,1.212,1.212,1.1864,0.0,0.0,0.0,0.0,0.0,0.0,0.0,0.0,0.0,0.0,0.0,0.0,0.0,1.822,1.9323,2.0459,2.1817,2.2249,2.2543,2.3091,2.3653,2.4036,2.4036,2.4343,2.4201,2.3051,2.2898,2.2376,2.0968,2.0876,2.0974,2.1087,2.1151,2.1294,2.1589,2.1604,2.1664,2.1781,2.1812,2.1648,2.1309,2.1293,2.0958,2.0208,2.0191,2.0015,1.9632,1.9672,1.9672,1.9632,1.9672,1.9708,1.969,1.9453,1.9124,1.8726,1.8266,1.774,1.7199,1.7199,1.7199,1.7199,1.7199,1.7199,1.7199,0.0,0.0,0.9082,0.9512,0.9611,0.9586,0.9396,0.9385,0.9406,0.0,0.9234,0.9033,0.8837,0.8818,0.8808,0.8784,0.8286,0.7969,0.7947,0.7453,0.711,0.7034,0.6824,0.6707,0.667,0.6483,0.6362,0.6375,0.7336,0.7725,0.7556,0.8472,0.9222,0.9837,1.0395,1.1062,1.1833,0.0,0.0,1.2855,1.3616,1.3447,0.0,0.0,1.3501,1.2713,1.2713,1.2652,1.259,1.259,1.2428,0.0,0.0,0.0,0.0,0.0,1.3359,0.0,0.0,0.0,0.0,0.0,1.5575,0.0,1.7614,1.8933,2.0345,2.1684,2.1959,2.21,2.2623,2.3024,2.3297,2.3319,2.3696,2.3718,2.2904,2.2825,2.2323,2.0919,2.0958,2.1119,2.1119,2.1262,2.1419,2.162,2.162,2.1679,2.1781,2.1812,2.1646,2.1356,2.1356,2.1007,2.0328,2.0292,2.0102,1.9747,1.9726,1.9708,1.9708,1.9708,1.9708,1.9708,1.9708,1.9472,1.9064,1.8707,1.8048,1.7261,1.722,1.7199,1.7199,1.7199,1.7199,1.7199,0.9068,0.9239,0.9266,0.9352,0.964,0.9835,0.979,0.9902,1.0016,1.0016,0.9862,0.9705,0.9657,0.9652,0.9579,0.9359,0.9233,0.9077,0.8847,0.8725,0.8439,0.7969,0.7655,0.7387,0.7159,0.7313,0.7469,0.758,0.8235,0.8467,0.8315,0.9182,0.9663,0.9837,1.1007,1.1646,1.1864,0.0,0.0,1.3854,1.3686,1.3488,1.3398,1.4141,1.3934,1.3329,1.3329,1.3003,1.259,1.259,1.2282,1.1972,0.0,0.0,0.0,1.329,0.0,0.0,0.0,0.0,0.0,0.0,1.5352,0.0,1.6996,1.7879,1.8874,2.0156,2.0434,2.0658,2.1393,2.2161,2.2711,2.283,2.3501,2.3574,2.2351,2.2362,2.1996,2.0649,2.0844,2.1151,2.1246,2.1434,2.1603,2.1753,2.1753,2.1768,2.1812,2.1812,2.1783,2.1691,2.1708,2.1494,2.1087,2.0811,2.0495,2.0087,1.9836,1.9708,1.9708,1.9708,1.9708,1.9708,1.9708,1.9472,1.9082,1.9026,1.8461,1.7659,1.7344,1.7199,1.7199,1.7199,1.7199,1.7199,0.9852,0.9892,0.9857,0.9782,0.9927,1.0015,0.9901,0.9981,1.0165,1.0472,1.0657,1.0642,1.0183,1.0134,0.9929,0.9333,0.9312,0.9223,0.9101,0.909,0.895,0.8664,0.8394,0.8196,0.8053,0.8098,0.8125,0.8215,0.8678,0.8973,0.9145,0.9779,0.0,0.0,1.1556,1.2024,0.0,0.0,1.3652,1.3899,1.4303,0.0,1.4341,1.4781,1.4558,1.3953,1.3631,1.3094,1.2621,1.2744,1.2728,0.0,1.3125,1.3428,1.37,0.0,1.4228,1.4515,0.0,0.0,0.0,1.4656,1.5294,0.0,0.0,1.7462,1.8471,1.9464,1.994,2.0396,2.1091,2.1619,2.1974,2.2035,2.2626,2.2754,2.1731,2.2214,2.2175,2.0901,2.1305,2.1696,2.1648,2.1827,2.1903,2.1799,2.1812,2.1812,2.1812,2.1812,2.1812,2.1812,2.1812,2.1648,2.1293,2.1135,2.0763,2.0191,2.0032,1.9856,1.9708,1.9708,1.9708,1.9708,1.9708,1.9599,1.938,1.9195,1.8726,1.8108,1.7679,1.7372,1.7199,1.7199,1.7199,1.7199,1.0447,1.0373,1.0309,1.0151,1.0313,1.0396,1.0208,1.0368,1.0645,1.1039,1.1537,1.1533,1.0748,0.0,0.0,0.0,0.0,0.9609,0.9473,0.9553,0.9524,0.9341,0.9119,0.8986,0.8925,0.8706,0.8673,0.8835,0.9119,0.9524,1.0028,1.0421,0.0,0.0,0.0,0.0,0.0,0.0,0.0,1.4171,0.0,1.5487,1.5235,1.5488,1.5235,1.4638,1.3983,1.342,1.3064,1.3186,1.342,1.3692,1.3911,1.4198,0.0,0.0,0.0,0.0,0.0,0.0,0.0,0.0,0.0,1.5845,0.0,0.0,0.0,1.8773,1.9452,2.0118,2.0595,2.0942,2.1199,2.1248,2.1708,2.1806,2.1141,2.2026,2.2369,2.1292,2.1842,2.2229,2.2058,2.2208,2.2151,2.1832,2.1812,2.1812,2.1812,2.1812,2.1812,2.1812,2.1812,2.1678,2.1402,2.1324,2.0974,2.0311,2.0225,2.0015,1.9708,1.9708,1.9708,1.9708,1.9708,1.9708,1.9672,1.9362,1.8974,1.8572,1.8008,1.7557,1.7199,1.7199,1.7199,1.7199,1.0339,0.9959,0.9954,0.9927,1.0666,1.1254,1.1229,1.2003,1.2467,1.223,1.2267,1.2143,0.0,0.0,0.0,0.0,0.0,0.0,1.0835,0.0,0.0,1.0213,0.9841,0.9604,0.9429,0.9104,0.9312,1.011,1.0142,1.039,1.0856,1.1397,0.0,0.0,1.2858,0.0,0.0,0.0,1.5655,0.0,1.6498,1.6192,0.0,1.6087,1.5941,1.541,1.4787,1.459,1.459,1.4174,1.4094,1.4094,0.0,1.404,1.413,1.4417,0.0,0.0,0.0,0.0,0.0,0.0,1.5029,1.5313,1.6112,0.0,1.6698,1.7302,0.0,1.8459,1.8753,0.0,0.0,2.066,2.114,2.1261,2.0592,2.1523,2.2081,2.151,2.1961,2.2284,2.2263,2.2291,2.2151,2.1832,2.1812,2.1812,2.1812,2.1812,2.1812,2.1812,2.1812,2.1766,2.1736,2.1449,2.1119,2.0745,2.0378,2.0015,1.9708,1.9708,1.9708,1.9708,1.9708,1.9708,1.9708,1.9654,1.9384,1.8936,1.8108,1.7557,1.7199,1.7199,1.7199,1.7199,1.1717,1.1632,1.1632,1.1632,1.2003,1.2268,1.2268,1.2746,1.2941,1.2622,1.288,0.0,0.0,0.0,0.0,0.0,0.0,1.1561,0.0,0.0,0.0,0.0,1.0573,1.0446,1.0358,1.0225,1.0351,1.0706,1.0706,1.1083,1.1771,0.0,0.0,0.0,1.3657,0.0,1.4346,0.0,1.5906,0.0,0.0,1.6645,1.6425,1.6581,1.6257,1.5738,1.5478,1.5177,1.4914,1.4894,1.4726,1.4519,1.4647,1.4517,0.0,1.4455,0.0,0.0,0.0,0.0,1.4565,1.4921,1.5,1.5137,1.5661,1.6054,1.6358,1.6641,0.0,0.0,0.0,0.0,0.0,0.0,2.0597,2.0839,2.0563,2.122,2.1657,2.1485,2.2214,2.2761,2.2714,2.2579,2.2262,2.1778,2.1876,2.1841,2.1527,2.1676,2.1812,2.1812,2.1812,2.1812,2.1812,2.1646,2.1308,2.0794,2.0629,2.0241,1.9708,1.9708,1.9708,1.9708,1.9708,1.9708,1.9708,1.9708,1.9328,1.8726,1.8344,1.7928,1.7516,1.7303,1.7199,1.7199,1.3154,0.0,0.0,0.0,0.0,0.0,1.3071,0.0,0.0,0.0,0.0,0.0,1.2462,1.2392,0.0,0.0,1.1789,1.184,0.0,0.0,1.1768,0.0,0.0,0.0,0.0,1.0982,1.1108,1.1358,1.1358,1.1794,0.0,0.0,0.0,0.0,0.0,1.4616,1.4964,0.0,1.6218,1.6314,1.6751,1.7004,1.7078,1.6909,1.657,1.6218,1.6218,1.5911,1.5594,1.57,1.5497,1.5235,1.5352,1.5157,1.4882,0.0,0.0,0.0,1.4734,1.4704,1.4793,1.497,1.5039,1.5117,1.5362,1.5748,1.6054,1.6054,1.6765,0.0,0.0,0.0,1.8895,0.0,0.0,2.0207,2.0359,2.0845,2.123,2.1373,2.2277,2.2856,2.2755,2.2696,2.2468,2.1982,2.1954,2.1855,2.1585,2.1624,2.1708,2.1812,2.1812,2.1812,2.1812,2.1812,2.1463,2.0794,2.0794,2.041,1.9708,1.9708,1.9708,1.9708,1.9708,1.9708,1.9708,1.9708,1.9365,1.8808,1.8592,1.8285,1.7928,1.7393,1.7199,1.7199,1.4123,1.2871,0.0,0.0,0.0,0.0,0.0,0.0,0.0,0.0,0.0,0.0,0.0,0.0,0.0,0.0,0.0,1.2909,1.2583,0.0,1.2671,0.0,0.0,1.1522,0.0,0.0,0.0,1.2274,0.0,0.0,0.0,0.0,0.0,0.0,1.4667,1.5235,1.5459,1.6503,1.7078,1.725,1.7278,1.7278,1.7278,1.7078,1.6983,1.6944,1.6944,1.7088,1.7155,1.6722,1.6542,1.6457,1.6017,1.5874,1.5845,1.5845,1.5845,1.5758,1.5294,1.5264,1.5303,1.5059,1.5098,1.5235,1.5362,1.541,1.5439,1.5439,1.6075,1.6684,1.6832,1.7446,0.0,0.0,0.0,0.0,0.0,2.0283,2.082,2.1342,2.195,2.2263,2.2131,2.2527,2.272,2.2574,2.199,2.1807,2.2246,2.1649,2.1464,2.1797,2.1812,2.1812,2.1812,2.1812,2.1463,2.0794,2.0794,2.041,1.9708,1.9708,1.9708,1.9708,1.9708,1.9708,1.9708,1.9708,1.969,1.9584,1.8808,1.8481,1.8364,1.7516,1.7199,1.7199,0.0,0.0,0.0,0.0,0.0,0.0,0.0,1.3542,0.0,0.0,1.2898,0.0,0.0,1.259,1.259,0.0,0.0,1.2973,1.2614,1.2925,0.0,0.0,0.0,1.2243,0.0,0.0,0.0,0.0,0.0,0.0,0.0,0.0,0.0,0.0,0.0,1.5874,0.0,0.0,0.0,0.0,0.0,1.7418,1.7545,1.7284,1.72,1.72,1.72,1.7239,1.7278,1.7127,1.6864,1.657,1.64,1.6132,1.5921,1.6112,1.6169,1.614,1.5968,1.5968,1.5921,1.5546,1.5508,1.5498,1.542,1.541,1.541,1.541,1.571,1.6124,1.6521,0.0,0.0,0.0,0.0,0.0,0.0,1.9162,1.9747,2.0295,2.1224,2.1937,2.2206,2.2371,2.2439,2.2404,2.2393,2.211,2.1455,2.1483,2.1437,2.1276,2.1229,2.1355,2.1664,2.1664,2.1371,2.0794,2.0794,2.041,1.9708,1.9708,1.9708,1.9708,1.9708,1.9708,1.9708,1.9708,1.953,1.925,1.8712,1.8305,1.7968,1.7413,1.7199,1.7178,1.4192,0.0,0.0,0.0,0.0,0.0,0.0,0.0,0.0,0.0,1.342,0.0,1.3277,0.0,1.292,0.0,1.2922,1.2837,1.2606,1.2805,0.0,1.2606,1.259,0.0,0.0,0.0,0.0,0.0,0.0,1.3588,0.0,0.0,0.0,0.0,0.0,1.6161,1.6627,1.7099,1.7306,0.0,0.0,1.7407,1.7545,1.7362,1.7362,1.7434,1.7334,1.7306,1.7306,1.7306,1.7047,1.6701,1.6701,1.6424,1.6155,1.6319,1.6363,1.6336,1.621,1.6327,1.6409,1.5971,1.6048,1.6132,1.5806,1.5719,1.5661,1.5439,1.5546,1.5875,1.6446,1.6588,0.0,0.0,0.0,0.0,0.0,1.8456,1.8936,1.9293,2.0484,2.1441,2.1941,2.1988,2.2158,2.2556,2.242,2.2116,2.166,2.1664,2.1506,2.1159,2.1093,2.1131,2.1198,2.123,2.1007,2.0545,2.0579,2.0291,1.9708,1.9708,1.9708,1.9708,1.9708,1.9708,1.9708,1.9708,1.9545,1.9273,1.8879,1.8442,1.7968,1.7413,1.7178,1.7115,1.5497,1.541,0.0,0.0,1.3593,0.0,1.4213,1.4142,1.4201,0.0,1.4599,1.4499,1.4499,1.3932,1.3541,1.3541,1.3042,1.2683,1.2683,1.2652,0.0,0.0,1.2621,1.259,1.259,0.0,0.0,0.0,0.0,0.0,0.0,0.0,0.0,0.0,1.5729,0.0,1.6655,1.7099,1.7306,1.7306,1.7334,1.7362,1.7362,1.739,1.7573,1.7767,1.7434,1.7312,1.7262,1.7318,1.7136,1.6886,1.6886,1.6694,1.6489,1.6514,1.6514,1.6439,1.6061,1.6421,1.6788,1.6337,1.671,1.703,1.6472,1.633,1.6169,1.5604,1.5623,1.5951,1.6485,1.622,1.6306,0.0,0.0,0.0,0.0,1.8054,1.8444,1.8498,1.9696,2.0721,2.1296,2.1369,2.186,2.2955,2.2079,2.1867,2.2716,2.2154,2.1698,2.1414,2.137,2.1095,2.0543,2.0563,2.0412,2.01,2.0172,2.0015,1.9708,1.9708,1.9708,1.9708,1.9708,1.9708,1.9708,1.9708,1.9708,1.9672,1.9269,1.8841,1.8364,1.7516,1.7115,1.6981,1.5787,1.5758,1.5671,0.0,1.4855,1.4737,1.5362,1.5011,1.4805,0.0,1.4894,1.4649,1.4649,1.4401,1.4231,1.4231,1.4112,0.0,0.0,0.0,0.0,1.3277,1.2828,1.259,1.259,1.2867,1.3133,1.3359,0.0,0.0,1.4883,0.0,0.0,0.0,0.0,0.0,1.7127,1.725,1.7306,1.7334,1.7733,1.7995,1.824,1.8575,1.8869,1.9001,1.8186,1.7508,1.7055,1.7523,1.7206,1.6593,1.6593,1.6553,1.6539,1.6811,1.686,1.686,1.6761,1.6829,1.6938,1.6759,1.6857,1.6992,1.6976,1.6978,1.6922,1.6782,1.6782,1.6736,1.6425,1.6485,1.6534,0.0,0.0,0.0,0.0,1.7157,1.7534,1.839,1.89,1.958,2.0547,2.1115,2.1694,2.237,2.2585,2.2535,2.2281,2.2176,2.1921,2.1571,2.102,2.0818,2.1011,2.0539,2.0241,2.01,2.0118,1.9977,1.9708,1.9708,1.9708,1.9708,1.9708,1.9708,1.9708,1.9708,1.9708,1.9672,1.9269,1.8649,1.7888,1.7282,1.7002,1.6897,1.6513,1.6513,0.0,1.6513,1.6218,1.6007,1.6189,1.5806,1.5652,1.6036,1.5825,1.5623,1.5623,1.5313,1.5079,1.4982,1.4746,0.0,1.4499,0.0,0.0,1.3932,1.3601,1.3428,1.3428,1.37,0.0,1.4025,0.0,0.0,1.5294,0.0,0.0,0.0,0.0,1.692,1.7462,1.7462,1.7739,1.8127,1.8104,1.8348,0.0,1.9069,1.9291,1.9396,1.9123,1.8394,1.7629,1.7824,1.7304,1.6559,1.6414,1.6287,1.6232,1.6409,1.6492,1.6492,1.6492,1.6658,1.6822,1.6784,1.7127,1.7427,1.7263,1.7444,1.7506,1.7257,1.7202,1.7174,1.709,1.6803,1.64,0.0,0.0,0.0,0.0,0.0,1.7506,1.7891,1.8525,1.9174,1.9823,2.0597,2.1213,2.1636,2.2324,2.2526,2.2071,2.2352,2.2278,2.1807,2.1103,2.0715,2.073,2.0113,1.98,1.9797,1.9851,1.9815,1.9708,1.9708,1.9708,1.9708,1.9708,1.9708,1.9708,1.9708,1.9708,1.9654,1.9011,1.8442,1.7928,1.7157,1.6876,1.6876,1.7306,0.0,0.0,0.0,0.0,1.7155,1.6751,1.6552,1.6581,1.6994,1.6909,1.6835,1.6835,1.6343,1.595,1.5757,1.5264,1.4884,1.4795,1.4677,1.4617,1.4617,1.4529,1.4499,1.4499,1.4775,1.4844,0.0,0.0,0.0,0.0,0.0,0.0,0.0,0.0,0.0,0.0,1.7822,1.8344,1.9016,1.8525,1.8643,1.9119,1.9344,1.9436,1.9514,2.0144,1.9585,1.851,1.8223,1.7545,1.6756,1.6418,1.6129,1.5947,1.5947,1.5903,1.5869,1.5869,1.6161,1.6511,1.6583,1.7291,1.7875,1.7412,1.7667,1.7882,1.7423,1.7324,1.7484,1.8,1.7202,1.634,1.598,1.6218,1.6312,1.5951,0.0,0.0,0.0,1.8255,0.0,1.9073,1.9978,2.0646,2.0894,2.1612,2.203,2.1996,2.2486,2.2574,2.2135,2.1481,2.0843,2.0219,1.968,1.939,1.9395,1.952,1.9596,1.969,1.9708,1.9708,1.9708,1.9708,1.9708,1.9708,1.9708,1.9708,1.9603,1.8717,1.8344,1.8187,1.7157,1.6863,1.697,0.0,0.0,0.0,0.0,1.7306,1.7278,1.7183,1.7155,1.7155,1.725,1.7088,1.6955,1.6955,1.6768,1.6637,1.6599,1.6389,1.6247,1.6218,1.5613,0.0,1.5235,1.4765,1.4499,1.4499,1.4775,1.4971,0.0,0.0,0.0,0.0,0.0,0.0,0.0,0.0,0.0,1.7434,1.8494,1.8697,1.8363,1.9188,1.9566,1.9721,2.0422,2.0673,2.0723,2.1068,2.0206,1.8907,1.8825,1.8247,1.7438,1.6941,1.6739,1.6705,1.6705,1.6466,1.6216,1.6216,1.6083,1.6054,1.6499,1.6739,1.6967,1.7301,1.7468,1.7634,1.796,1.8017,1.8031,1.8105,1.76,1.7185,1.7112,1.7157,1.7157,1.6961,1.7174,0.0,0.0,1.7592,1.7942,1.8338,1.9522,2.0283,2.0333,2.0881,2.1431,2.1973,2.2114,2.2351,2.2728,2.2164,2.1511,2.0843,2.0253,1.973,1.9321,1.9395,1.9487,1.9629,1.9672,1.9708,1.9708,1.9708,1.9708,1.9708,1.9708,1.9708,1.9639,1.9039,1.8602,1.8206,1.7469,1.7282,1.7365,0.0,0.0,0.0,0.0,1.7717,1.7606,1.7323,1.7534,1.7606,1.7334,1.7211,1.7172,1.7172,1.7099,1.7015,1.6909,1.6779,1.6694,1.6694,1.621,1.5951,1.6017,1.5681,1.5488,1.5488,1.5681,1.5845,1.6017,1.6218,0.0,0.0,0.0,0.0,0.0,0.0,1.781,0.0,1.867,1.9121,1.9578,1.9721,2.0016,2.0423,2.0848,2.1033,2.1131,2.1326,2.0906,2.0162,1.9669,1.8848,1.7922,1.7462,1.7115,1.6897,1.6897,1.6757,1.6573,1.6355,1.6173,1.6071,1.6172,1.6403,1.6667,1.6931,1.7195,1.7459,1.7736,1.7796,1.7682,1.7318,1.7077,1.6867,1.6651,1.6799,1.6852,1.6561,1.6972,1.7206,0.0,0.0,0.0,1.776,1.8633,1.9319,1.9669,2.0497,2.1164,2.1551,2.1864,2.2278,2.2865,2.2323,2.1844,2.1511,2.0582,2.0002,1.9767,1.9519,1.9483,1.9593,1.9672,1.9708,1.9708,1.9708,1.9708,1.9708,1.9708,1.9672,1.9578,1.8798,1.8336,1.8089,1.7555,1.7377,1.744,0.0,1.8093,0.0,0.0,1.7941,1.7843,1.7507,1.7843,1.7941,1.7534,1.7451,1.7451,1.7451,1.7379,1.7239,1.7078,1.6948,1.6835,1.6835,1.662,1.6516,1.6599,1.6506,1.6431,1.6413,1.6506,1.6609,1.6751,1.6881,1.705,1.7239,0.0,0.0,0.0,1.7963,1.8548,1.916,1.9042,1.9643,2.0625,2.0182,2.0347,2.0863,2.0947,2.1057,2.118,2.135,2.1399,2.1293,2.0558,1.9624,1.8667,1.8114,1.7648,1.7284,1.7146,1.7065,1.6926,1.6625,1.6484,1.6346,1.5988,1.6227,1.6518,1.6462,1.6774,1.7135,1.7219,1.7315,1.7265,1.6774,1.6688,1.66,1.6261,1.6475,1.6575,1.6272,1.6897,1.7193,0.0,0.0,0.0,1.7375,1.7796,1.8365,1.9148,2.0182,2.0894,2.1151,2.1565,2.2123,2.2865,2.2307,2.1989,2.1989,2.0857,2.0258,2.0177,1.9648,1.9465,1.9556,1.9654,1.9708,1.9708,1.9708,1.9708,1.9708,1.969,1.965,1.952,1.8568,1.8183,1.8113,1.7695,1.7617,1.7739,0.0,0.0,1.7941,1.7462,1.7379,1.7507,1.7968,1.8066,1.8066,1.8011,1.8023,1.8023,1.8023,1.759,1.7306,1.7278,1.7078,1.6983,1.6983,1.6835,1.6694,1.6599,1.6581,1.6534,1.6413,1.6402,1.6477,1.6637,1.6751,1.6892,1.7039,1.7211,1.7562,1.8066,1.9254,1.9514,1.9093,2.0195,2.0372,1.9939,2.041,2.0662,2.0737,2.0923,2.1021,2.1033,2.1302,2.1399,2.1385,2.1307,2.0823,2.012,1.9038,1.866,1.8511,1.797,1.7604,1.7331,1.731,1.7073,1.6757,1.6346,1.6284,1.6246,1.5941,1.6011,1.6235,1.6594,1.7063,1.7387,1.7339,1.7314,1.729,1.7265,1.729,1.729,1.7265,1.7339,1.7183,1.6657,0.0,0.0,1.7339,1.746,1.7942,1.9097,1.9759,2.0358,2.0993,2.1066,2.1647,2.2865,2.2314,2.1993,2.2004,2.1278,2.064,2.0108,1.9625,1.9413,1.9431,1.9599,1.9708,1.9708,1.9708,1.9708,1.9708,1.9632,1.9611,1.9538,1.8822,1.8619,1.8663,1.8131,1.8316,1.8845,1.9109,1.9109,1.9056,1.883,1.8804,1.875,1.8655,1.9213,1.9539,1.9172,1.883,1.8655,1.8655,1.8143,1.7788,1.7788,1.729,1.7039,1.7172,1.6948,1.6779,1.6722,1.6722,1.6666,1.6534,1.6694,1.6797,1.6842,1.7346,1.7611,1.7655,1.7722,1.7886,1.8147,1.9016,1.9422,1.9526,2.0029,2.0283,2.0359,2.0599,2.0737,2.0825,2.0947,2.1033,2.1131,2.1326,2.1399,2.1399,2.1399,2.1006,2.0423,1.9949,1.9591,1.922,1.8608,1.8349,1.8108,1.7547,1.7303,1.7115,1.6744,1.6671,1.6586,1.6284,1.6262,1.6302,1.6359,1.6476,1.6553,1.6439,1.6451,1.6451,1.6451,1.6451,1.6451,1.6451,1.6451,1.6367,1.6151,0.0,1.6331,1.6859,1.7207,1.7724,1.8547,1.9094,1.9747,2.0484,2.0671,2.1066,2.1742,2.2147,2.2243,2.2002,2.1729,2.1278,2.0625,2.0123,1.9706,1.9413,1.9574,1.9669,1.9708,1.9708,1.9687,1.9632,1.9611,1.9358,1.8979,1.8789,1.8548,1.8345,1.8524,1.8764,1.9045,1.9759,1.9936,1.9997,1.9828,1.9938,1.9996,1.9768,2.0424,2.086,2.0614,2.0084,1.9607,1.9263,1.8697,1.8375,1.8375,1.7886,1.765,1.7783,1.7579,1.7412,1.7374,1.7217,1.705,1.6927,1.6937,1.6937,1.6937,1.7501,1.7776,1.7793,1.8174,1.8444,1.8632,1.9239,1.9708,2.0067,2.0067,2.0309,2.0699,2.0699,2.0775,2.0926,2.0972,2.1082,2.1229,2.135,2.1399,2.1399,2.1399,2.1114,2.0735,2.0572,2.0247,1.9822,1.9247,1.8934,1.8648,1.7986,1.7683,1.7488,1.7199,1.7136,1.7073,1.6837,1.6816,1.6786,1.6565,1.6293,1.6054,1.5957,1.5869,1.5792,1.5792,1.5792,1.5792,1.5792,1.5792,1.5792,1.5792,1.5792,1.6056,1.6763,1.7171,1.77,1.8386,1.8913,1.9526,2.0295,2.051,2.0833,2.1334,2.1969,2.2254,2.2184,2.2052,2.1656,2.0988,2.0464,1.9918,1.9413,1.956,1.965,1.9708,1.9708,1.9672,1.9644,1.9782,1.9467,1.8917,1.9169,1.8938,1.8572,1.9057,1.9244,1.9284,1.9914,2.0289,2.0505,1.9885,2.029,2.0868,2.139,2.1486,2.1708,2.2281,2.1851,2.1043,1.9913,1.9317,1.8987,1.8987,1.8987,1.8999,1.8999,1.8999,1.8895,1.8688,1.8186,1.7815,1.7694,1.7106,1.6818,1.6818,1.6937,1.7011,1.7039,1.8387,1.9265,1.9811,2.041,2.0674,2.0687,2.0687,2.0687,2.0699,2.0699,2.0775,2.0926,2.0972,2.1082,2.1229,2.135,2.1399,2.1399,2.1399,2.1399,2.129,2.0694,2.0504,2.0396,1.9863,1.9274,1.8806,1.8785,1.835,1.7848,1.772,1.77,1.7646,1.7517,1.7592,1.7605,1.7333,1.6748,1.629,1.629,1.601,1.5792,1.5792,1.5792,1.5792,1.5792,1.5792,1.5792,1.5792,1.5792,1.6223,1.7279,1.7387,1.7845,1.8903,1.9344,1.9888,2.056,2.061,2.1104,2.2147,2.1793,2.1926,2.2592,2.2199,2.1656,2.0988,2.0464,1.9918,1.9413,1.9599,1.9708,1.9708,1.9708,1.9708,1.9735,2.0201,2.0069,1.9648,2.0175,2.0084,1.9699,1.9747,1.9794,1.9798,2.16,2.1715,2.1791,2.1602,2.1714,2.1909,2.2074,2.2411,2.2598,2.2413,2.2544,2.2214,2.1069,2.0115,1.9552,1.9552,1.9225,1.8987,1.8987,1.8987,1.8922,1.8715,1.867,1.8387,1.7843,1.8143,1.8116,1.7694,1.8131,1.836,1.8387,1.9604,2.0029,1.9824,2.0435,2.0699,2.0699,2.0699,2.0699,2.0699,2.0699,2.0775,2.0926,2.0972,2.1082,2.1229,2.135,2.1399,2.1399,2.1399,2.1399,2.1372,2.1169,2.1114,2.1006,2.0423,2.0111,1.9795,1.9002,1.8754,1.8611,1.8145,1.8135,1.8195,1.8016,1.776,1.7462,1.716,1.693,1.6761,1.6735,1.6629,1.6556,1.6556,1.6315,1.6129,1.6129,1.5935,1.5792,1.5792,1.6126,1.6619,1.7315,1.7736,1.8241,1.8939,1.9119,1.9277,1.95,2.0295,2.0635,2.0421,2.1468,2.1996,2.1926,2.2392,2.2287,2.167,2.1524,2.119,2.0769,2.0877,2.0974,2.1051,2.0974,2.0896,2.0828,2.0631,2.0174,1.9614,1.9735,1.9569,1.9255,1.9535,1.9737,1.9798,2.2388,2.2558,2.2715,2.2715,2.2884,2.3054,2.3054,2.3313,2.3433,2.3067,2.3132,2.2921,2.223,2.112,2.0348,2.0169,1.9823,1.9642,1.9642,1.9642,1.9578,1.9463,1.9357,1.9069,1.8617,1.8869,1.8827,1.8429,1.8827,1.9093,1.9317,2.0029,2.0283,2.0144,2.0524,2.0699,2.0699,2.0699,2.0699,2.0699,2.0699,2.0775,2.0926,2.0972,2.1082,2.1229,2.135,2.1399,2.1399,2.1399,2.1399,2.1399,2.1399,2.1471,2.1476,2.1094,2.0821,2.0502,1.9897,1.9675,1.9461,1.8929,1.8908,1.8897,1.852,1.8135,1.7781,1.7503,1.7297,1.7131,1.7094,1.6981,1.6897,1.6897,1.6693,1.6531,1.6531,1.6349,1.6154,1.6022,1.6463,1.694,1.7364,1.7893,1.8422,1.8951,1.9146,1.9225,1.9225,2.008,2.0409,2.0055,2.1251,2.1864,2.1817,2.237,2.2413,2.1989,2.18,2.1564,2.1327,2.1454,2.152,2.154,2.156,2.148,2.1348,2.106,2.0552,1.9999,2.0115,1.9769,1.9258,1.9685,1.9759,1.9656,2.2506,2.291,2.3248,2.3248,2.3717,2.4083,2.4083,2.4083,2.4083,2.4083,2.36,2.3263,2.3195,2.2242,2.1381,2.0817,2.0725,2.0699,2.0699,2.0699,2.0699,2.0699,2.0144,1.9824,1.9798,1.9344,1.9093,1.9066,1.9093,1.9344,1.9798,1.9824,2.0144,2.0699,2.0699,2.0699,2.0699,2.0699,2.0699,2.0699,2.0699,2.0775,2.0926,2.0972,2.1082,2.1204,2.135,2.1399,2.1399,2.1399,2.1399,2.1399,2.1399,2.1616,2.1817,2.1769,2.1407,2.1019,2.1226,2.0893,2.0366,1.9963,1.9838,1.9632,1.8964,1.8648,1.842,1.8222,1.7774,1.7434,1.7434,1.7178,1.696,1.696,1.6939,1.6918,1.6918,1.6897,1.6769,1.6439,1.6859,1.7256,1.746,1.7966,1.8458,1.9004,1.9356,1.9552,1.9617,1.9939,2.0346,2.0759,2.1142,2.1616,2.2161,2.2184,2.2156,2.2048,2.1572,2.1336,2.1336,2.1527,2.1553,2.1456,2.1654,2.1613,2.1363,2.142,2.1114,2.0632,2.0949,2.0472,1.963,1.9991,1.9824,1.9394,2.3707,2.3812,2.3903,2.3903,2.4021,2.4083,2.4083,2.4083,2.4083,2.4083,2.3995,2.3704,2.3234,2.2947,2.24,2.1394,2.0936,2.0699,2.0699,2.0699,2.0699,2.0699,2.0574,2.0283,1.9798,2.0131,2.008,1.9604,2.008,2.0131,1.9798,2.0283,2.0574,2.0699,2.0699,2.0699,2.0699,2.0699,2.0699,2.0699,2.0699,2.0775,2.0926,2.0972,2.1008,2.1082,2.1326,2.1326,2.1253,2.1375,2.1399,2.1399,2.1399,2.1722,2.202,2.1616,2.1673,2.1769,2.1157,2.1159,2.119,2.0641,2.0147,1.9666,1.9153,1.8641,1.8222,1.8003,1.7882,1.7788,1.7788,1.772,1.7666,1.7666,1.7447,1.7282,1.7282,1.7065,1.7029,1.7339,1.7568,1.7906,1.8425,1.8674,1.8986,1.9422,1.9251,1.9277,1.9578,1.9682,1.9914,2.0321,2.0734,2.1202,2.1722,2.2067,2.2369,2.2693,2.2659,2.2652,2.2652,2.2695,2.2746,2.2796,2.2351,2.2114,2.2016,2.1264,2.0755,2.0427,1.9978,1.9668,1.9447,1.9447,1.942,1.9394,2.4083,2.4083,2.4083,2.4083,2.4083,2.4083,2.4083,2.4083,2.4083,2.4083,2.4083,2.3995,2.3639,2.338,2.2934,2.2321,2.1525,2.0962,2.0725,2.0699,2.0699,2.0699,2.0699,2.0549,2.022,2.0524,2.0549,2.0195,2.0549,2.0524,2.022,2.0549,2.0699,2.0699,2.0699,2.0699,2.0699,2.0699,2.0699,2.0699,2.0699,2.0737,2.0825,2.0924,2.0936,2.0985,2.1144,2.1204,2.1204,2.1277,2.135,2.1399,2.1399,2.1688,2.1949,2.152,2.1935,2.2377,2.1671,2.177,2.189,2.1131,2.0472,1.9936,1.9599,1.9266,1.8969,1.8773,1.871,1.871,1.871,1.871,1.871,1.871,1.8569,1.8462,1.8462,1.8291,1.8223,1.8321,1.8613,1.8801,1.8797,1.9268,1.9486,1.933,1.9303,1.9382,1.9591,1.9434,1.95,1.9926,2.0485,2.1055,2.1578,2.2208,2.2661,2.2888,2.297,2.3015,2.3015,2.306,2.3105,2.3098,2.2867,2.2572,2.2203,2.1393,2.0795,2.0321,1.9591,1.9302,1.9302,1.917,1.9158,1.921,2.4083,2.4083,2.4083,2.4083,2.4083,2.4083,2.4083,2.4083,2.4083,2.4083,2.4083,2.4083,2.4083,2.3626,2.3287,2.3195,2.2335,2.1485,2.0857,2.0726,2.0699,2.0699,2.0699,2.0699,2.0699,2.0699,2.0699,2.0699,2.0699,2.0699,2.0699,2.0699,2.0699,2.0699,2.0699,2.0699,2.0699,2.0699,2.0699,2.0699,2.0699,2.0699,2.0699,2.0838,2.0901,2.0888,2.0972,2.1071,2.1169,2.118,2.1277,2.1375,2.1399,2.1616,2.1793,2.1496,2.2086,2.2731,2.2263,2.2347,2.2349,2.1515,2.0837,2.0333,2.0114,2.0001,1.9902,1.9744,1.97,1.97,1.97,1.97,1.97,1.97,1.97,1.97,1.97,1.97,1.9602,1.9349,1.9671,1.969,1.9145,1.9712,1.9849,1.9225,1.9382,1.9539,1.9617,1.9225,1.9146,1.9512,2.0258,2.0957,2.1616,2.2463,2.2888,2.2888,2.2888,2.2888,2.2888,2.3015,2.3015,2.2888,2.2971,2.2686,2.2147,2.1417,2.082,2.0296,1.9499,1.9182,1.917,1.9052,1.8987,1.8987,2.4083,2.4083,2.4083,2.4083,2.4083,2.4083,2.4083,2.4083,2.4083,2.4083,2.4083,2.4083,2.4083,2.4005,2.3744,2.3234,2.3026,2.2505,2.1446,2.0949,2.0699,2.0699,2.0699,2.0699,2.0699,2.0699,2.0699,2.0699,2.0699,2.0699,2.0699,2.0699,2.0699,2.0699,2.0699,2.0699,2.0699,2.0699,2.0699,2.0699,2.0699,2.0699,2.0699,2.0838,2.0838,2.0762,2.0947,2.0985,2.0974,2.1144,2.1204,2.1253,2.135,2.1722,2.2044,2.1544,2.1945,2.2466,2.1983,2.2067,2.218,2.1801,2.1246,2.0735,2.0484,2.0071,1.9744,1.97,1.97,1.97,1.97,1.97,1.97,1.97,1.97,1.97,1.97,1.97,1.984,2.0246,2.0063,2.0064,2.0451,2.0016,1.9798,2.0003,1.9434,1.9251,1.9591,1.9225,1.9013,1.9093,1.9643,2.0535,2.1746,2.2509,2.2888,2.2888,2.2888,2.2888,2.2888,2.2925,2.2925,2.2843,2.2049,2.1884,2.2077,2.0522,2.0029,2.0169,1.9473,1.9143,1.9025,1.9025,1.8987,1.8987,2.4083,2.4083,2.4083,2.4083,2.4083,2.4083,2.4083,2.4083,2.4083,2.4083,2.4083,2.4083,2.4083,2.4083,2.3979,2.3704,2.3378,2.296,2.2465,2.1603,2.1001,2.0725,2.0699,2.0699,2.0699,2.0699,2.0699,2.0699,2.0699,2.0699,2.0699,2.0699,2.0699,2.0699,2.0699,2.0699,2.0699,2.0699,2.0699,2.0699,2.0699,2.0699,2.0712,2.0775,2.0737,2.0699,2.0799,2.0861,2.0913,2.0999,2.1059,2.1106,2.1253,2.1471,2.164,2.1447,2.165,2.1898,2.1817,2.1769,2.1722,2.1616,2.1387,2.1134,2.1016,2.0789,2.0623,2.0623,2.0623,2.0623,2.0623,2.0623,2.0623,2.0623,2.0623,2.0623,2.0623,2.0623,2.0671,2.087,2.0716,2.0592,2.0584,2.0182,1.9824,1.9552,1.9277,1.9081,1.9054,1.9013,1.8987,1.8987,1.9798,2.087,2.2231,2.2555,2.2752,2.2752,2.2752,2.2555,2.2208,2.2208,2.2208,2.2147,2.1479,2.1286,2.1372,2.027,1.9759,1.963,1.9237,1.9052,1.8987,1.8987,1.8987,1.8987,2.4083,2.4083,2.4083,2.4083,2.4083,2.4083,2.4083,2.4083,2.4083,2.4083,2.4083,2.4083,2.4083,2.4083,2.4083,2.4083,2.3665,2.3339,2.3195,2.2387,2.159,2.0909,2.0777,2.0699,2.0699,2.0699,2.0699,2.0699,2.0699,2.0699,2.0699,2.0699,2.0699,2.0699,2.0699,2.0699,2.0699,2.0699,2.0699,2.0699,2.0699,2.0699,2.0699,2.0699,2.0699,2.0699,2.0699,2.0775,2.0863,2.0901,2.0924,2.0997,2.112,2.1155,2.118,2.1277,2.1302,2.1375,2.164,2.1544,2.135,2.1399,2.1375,2.135,2.1399,2.1399,2.1399,2.1399,2.1399,2.1399,2.1399,2.1399,2.1399,2.135,2.1375,2.1399,2.135,2.135,2.1326,2.1204,2.118,2.0983,2.0573,2.0359,1.994,1.9198,1.9225,1.9054,1.8614,1.8854,1.9093,1.9277,2.0131,2.1177,2.2394,2.2486,2.2509,2.2509,2.2417,2.2114,2.1616,2.1506,2.1458,2.1434,2.0993,2.082,2.0795,2.0105,1.963,1.9368,1.9105,1.8987,1.8987,1.8987,1.8987,1.8987,2.4083,2.4083,2.4083,2.4083,2.4083,2.4083,2.4083,2.4083,2.4083,2.4083,2.4083,2.4083,2.4083,2.4083,2.4083,2.4083,2.4073,2.3812,2.3221,2.3104,2.2596,2.1498,2.0962,2.0699,2.0699,2.0699,2.0699,2.0699,2.0699,2.0699,2.0699,2.0699,2.0699,2.0699,2.0699,2.0699,2.0699,2.0699,2.0699,2.0699,2.0699,2.0699,2.0699,2.0699,2.0699,2.0699,2.0699,2.0712,2.0737,2.0863,2.0888,2.0913,2.0997,2.1021,2.1008,2.1033,2.1033,2.1082,2.135,2.1326,2.1229,2.1375,2.1302,2.1253,2.1375,2.1399,2.1399,2.1399,2.1399,2.1399,2.1399,2.1399,2.135,2.1229,2.1326,2.135,2.1229,2.1204,2.1204,2.1204,2.1082,2.0997,2.0959,2.0598,2.0144,1.9617,1.9434,1.9158,1.864,1.8854,1.933,2.0105,2.0422,2.1006,2.1841,2.2114,2.2231,2.2231,2.1841,2.1664,2.1592,2.1213,2.1042,2.1017,2.0484,2.0534,2.0894,1.9746,1.9539,1.9863,1.9239,1.8987,1.8987,1.8987,1.8987,1.8987,2.4677,2.4361,2.4083,2.4083,2.4083,2.4083,2.4083,2.4083,2.4083,2.4083,2.4083,2.4083,2.4083,2.4083,2.4083,2.4083,2.4083,2.3992,2.3757,2.3391,2.2673,2.1538,2.1302,2.1053,2.0712,2.0699,2.0699,2.0699,2.0699,2.0699,2.0699,2.0699,2.0699,2.0699,2.0699,2.0699,2.0699,2.0699,2.0699,2.0699,2.0699,2.0662,2.0587,2.0587,2.0587,2.0587,2.0587,2.0637,2.0712,2.0762,2.0775,2.08,2.0899,2.0949,2.0949,2.0997,2.0997,2.1008,2.1106,2.1106,2.1082,2.1131,2.1106,2.1082,2.1131,2.1155,2.1155,2.1155,2.1155,2.1155,2.1155,2.1155,2.1131,2.1082,2.1106,2.1131,2.1082,2.1082,2.1071,2.1023,2.0974,2.0924,2.0823,2.0054,1.9578,1.9695,1.8869,1.8587,1.9198,1.916,1.9566,2.0535,2.0258,2.066,2.1793,2.1902,2.1949,2.1949,2.1541,2.1042,2.0472,2.0067,1.9773,1.9542,1.9097,1.915,1.9516,1.8815,1.864,1.8789,1.8533,1.8425,1.8425,1.8425,1.8425,1.8425,2.5305,2.4654,2.4083,2.4083,2.4083,2.4083,2.4083,2.4083,2.4083,2.4083,2.4083,2.4083,2.4083,2.4083,2.4083,2.4083,2.4083,2.4083,2.4083,2.3704,2.296,2.1825,2.1773,2.1616,2.1249,2.1236,2.1157,2.0949,2.0949,2.0857,2.0699,2.087,2.0923,2.0911,2.1132,2.1198,2.1146,2.1211,2.1198,2.1146,2.1146,2.1069,2.0953,2.0953,2.0953,2.0953,2.0953,2.1017,2.1146,2.1146,2.1172,2.1223,2.1129,2.0933,2.0775,2.0749,2.0785,2.0848,2.0848,2.0873,2.0923,2.0997,2.0972,2.0972,2.0997,2.0997,2.0997,2.0997,2.0997,2.0997,2.0997,2.0997,2.0997,2.0985,2.0997,2.0997,2.0985,2.0985,2.0949,2.0926,2.0863,2.08,2.0712,2.0003,1.9617,1.9798,1.883,1.8575,1.9382,1.9251,1.9618,2.0635,2.0258,2.056,2.1616,2.1664,2.1602,2.1482,2.0993,2.0371,1.9592,1.9081,1.8724,1.8498,1.8209,1.8251,1.8498,1.8209,1.8084,1.8084,1.8084,1.8084,1.8084,1.8084,1.8084,1.8084,2.6004,2.4962,2.4096,2.4096,2.4083,2.4083,2.4083,2.4083,2.4083,2.4083,2.4083,2.4083,2.4083,2.4083,2.4083,2.4083,2.4083,2.4083,2.4083,2.4083,2.3602,2.2453,2.2401,2.2388,2.2388,2.2388,2.2113,2.1525,2.1525,2.1224,2.0725,2.125,2.1446,2.1341,2.2086,2.228,2.2115,2.2319,2.2291,2.2102,2.2102,2.2032,2.1895,2.1895,2.1895,2.1895,2.1895,2.1964,2.2102,2.2102,2.2238,2.2283,2.1694,2.1056,2.0474,2.0271,2.036,2.0499,2.0486,2.0587,2.0724,2.0947,2.0949,2.0913,2.0972,2.0997,2.0997,2.0997,2.0997,2.0997,2.0997,2.0983,2.0972,2.0913,2.0936,2.0972,2.0913,2.0901,2.0901,2.0901,2.0775,2.0699,2.0699,2.0687,2.0435,1.9824,1.9553,1.9279,1.9013,1.9013,1.9434,2.0372,2.0535,2.0797,2.1204,2.1326,2.1191,2.0795,2.0131,1.9592,1.916,1.8425,1.8084,1.8084,1.8084,1.8084,1.8084,1.8084,1.8084,1.8084,1.8084,1.8084,1.8084,1.8084,1.8084,1.8084,2.7179,2.5875,2.4743,2.4743,2.4387,2.4083,2.4083,2.4083,2.4083,2.4083,2.4083,2.4083,2.4083,2.4083,2.4083,2.4083,2.4083,2.4083,2.4083,2.4083,2.3955,2.3616,2.3184,2.2779,2.24,2.2401,2.231,2.2139,2.2139,2.2061,2.189,2.2061,2.2126,2.2071,2.2296,2.2374,2.2319,2.2224,2.2156,2.2074,2.2005,2.1882,2.1759,2.1759,2.1759,2.1759,2.1759,2.1854,2.195,2.195,2.2005,2.2021,2.1826,2.1632,2.14,2.0963,2.056,2.0221,1.9834,1.9747,1.9952,2.0611,2.0787,2.0762,2.0774,2.0799,2.0799,2.0799,2.0699,2.0662,2.0662,2.0524,2.0435,2.0423,2.0423,2.0485,2.06,2.0625,2.065,2.0737,2.0712,2.0699,2.0699,1.9978,1.9578,1.9798,1.9811,1.9605,1.916,1.9488,2.0055,2.081,2.0409,2.0459,2.1057,2.1302,2.1093,2.051,2.0029,1.9371,1.854,1.8045,1.7711,1.7545,1.7545,1.7451,1.7318,1.7318,1.7273,1.72,1.72,1.72,1.72,1.72,1.72,1.72,2.776,2.6391,2.5315,2.5315,2.4831,2.4452,2.4452,2.4256,2.4083,2.4083,2.4083,2.4083,2.4083,2.4083,2.4083,2.4083,2.4083,2.4083,2.4083,2.4083,2.4083,2.4083,2.3744,2.3391,2.3093,2.3067,2.2964,2.2728,2.2728,2.2569,2.2291,2.2527,2.2576,2.245,2.2754,2.2842,2.2799,2.2729,2.266,2.2616,2.2531,2.2404,2.2248,2.2248,2.2248,2.2248,2.2248,2.2347,2.2474,2.2474,2.239,2.2255,2.2199,2.2018,2.1708,2.1037,2.0649,2.0275,1.9688,1.9408,1.9439,1.9981,2.031,2.0498,2.0498,2.0498,2.0498,2.0498,2.0448,2.0372,2.0372,2.0296,2.0118,1.9914,2.0067,2.0182,2.008,2.0105,2.022,2.0473,2.0207,2.008,2.0233,1.9642,1.9356,1.9604,1.9397,1.9188,1.9042,1.9345,1.9837,2.0498,2.0334,2.0472,2.0961,2.1144,2.0847,2.0093,1.9721,1.9042,1.805,1.77,1.7434,1.7306,1.7211,1.7106,1.7011,1.6937,1.6864,1.6818,1.6818,1.6818,1.6818,1.6818,1.6818,1.6818,2.7982,2.6805,2.5871,2.5871,2.5419,2.507,2.507,2.4609,2.424,2.424,2.42,2.4191,2.4191,2.4122,2.4083,2.4083,2.4083,2.4083,2.4083,2.4083,2.4083,2.4083,2.4083,2.4083,2.4083,2.4083,2.3822,2.3274,2.3274,2.2929,2.2297,2.2842,2.2933,2.2658,2.3309,2.3539,2.3433,2.3539,2.3509,2.3403,2.3373,2.3271,2.3108,2.3108,2.3108,2.3108,2.3108,2.321,2.3373,2.3373,2.3149,2.2802,2.2671,2.2217,2.1578,2.0802,2.0577,2.0437,1.9784,1.9385,1.9167,1.9167,1.9612,2.008,2.0105,2.0182,2.0182,2.0131,2.0131,2.0093,2.0042,2.0016,1.985,1.9371,1.9695,1.9862,1.9371,1.9436,1.9708,2.0067,1.9474,1.9198,1.9617,1.9552,1.9396,1.9172,1.8483,1.8255,1.8697,1.8777,1.9095,1.9747,2.0207,2.0586,2.0863,2.0886,2.0472,1.963,1.9344,1.8682,1.7739,1.7407,1.7278,1.7267,1.7078,1.6983,1.6955,1.6835,1.679,1.6761,1.6761,1.6761,1.6761,1.6761,1.6761,1.6761,2.9136,2.7696,2.6491,2.6491,2.602,2.5641,2.5641,2.5537,2.5427,2.5427,2.5066,2.4809,2.4809,2.4387,2.4083,2.4083,2.4083,2.4067,2.3949,2.4037,2.4067,2.3949,2.4037,2.4067,2.3949,2.3949,2.3884,2.3755,2.3755,2.3719,2.366,2.369,2.3667,2.3609,2.3607,2.3569,2.3539,2.348,2.3433,2.3403,2.3241,2.3138,2.3108,2.3108,2.3108,2.3108,2.3108,2.3138,2.3168,2.3168,2.3122,2.3022,2.2992,2.2551,2.1904,2.1313,2.0424,1.9566,1.8994,1.8788,1.8729,1.8729,1.8914,1.9195,1.9496,1.9914,2.0067,1.9669,1.9488,1.9279,1.8806,1.862,1.8525,1.839,1.8471,1.854,1.8528,1.8977,1.937,1.9566,1.9436,1.9514,2.0029,1.9253,1.8375,1.7429,1.7705,1.7979,1.8088,1.8498,1.8992,1.963,1.9307,1.9579,2.0575,2.0233,2.0003,1.9927,1.9436,1.8777,1.7995,1.7346,1.7078,1.7078,1.6909,1.6779,1.6684,1.6666,1.6591,1.6488,1.6488,1.6488,1.6488,1.6488,1.6488,1.6488,2.9093,2.7967,2.7079,2.7079,2.6608,2.6229,2.6229,2.5994,2.5793,2.5793,2.5563,2.538,2.538,2.5105,2.4905,2.4905,2.4905,2.4832,2.468,2.4481,2.4296,2.4142,2.4062,2.3891,2.3684,2.373,2.376,2.376,2.376,2.376,2.376,2.37,2.3611,2.3509,2.342,2.3348,2.336,2.33,2.3271,2.3241,2.3138,2.3108,2.3108,2.3108,2.3108,2.3108,2.3108,2.3108,2.3108,2.3108,2.3108,2.3108,2.3108,2.2647,2.1992,2.1379,2.0492,1.9606,1.9009,1.869,1.8509,1.8509,1.8602,1.8792,1.9061,1.9158,1.9109,1.8845,1.8712,1.8578,1.8271,1.8147,1.8011,1.7738,1.7902,1.8027,1.7797,1.812,1.8483,1.8765,1.8417,1.8363,1.8857,1.8186,1.7611,1.7429,1.7385,1.7468,1.7689,1.7968,1.8417,1.9069,1.87,1.9097,2.0347,1.9862,1.9631,1.9708,1.9214,1.8459,1.7545,1.7095,1.6909,1.6909,1.6779,1.6666,1.6599,1.6524,1.6459,1.6413,1.6413,1.6413,1.6413,1.6413,1.6413,1.6413,2.8597,2.7973,2.749,2.749,2.7131,2.685,2.685,2.6425,2.608,2.608,2.5989,2.5936,2.5905,2.5814,2.5749,2.5793,2.5762,2.5686,2.5484,2.5032,2.4713,2.4522,2.427,2.3996,2.3682,2.376,2.3761,2.3569,2.3569,2.3509,2.3433,2.3403,2.33,2.3138,2.3108,2.3108,2.3108,2.3108,2.3108,2.3108,2.3108,2.3108,2.3108,2.3108,2.3108,2.3108,2.3108,2.3108,2.3065,2.2975,2.2944,2.2914,2.2793,2.231,2.1635,2.1092,2.0452,1.9813,1.9264,1.8818,1.8528,1.8528,1.8553,1.8585,1.8713,1.8527,1.8302,1.8219,1.8111,1.8027,1.7928,1.786,1.7655,1.7129,1.749,1.7628,1.7129,1.7279,1.7567,1.7902,1.7401,1.7117,1.7284,1.7032,1.7123,1.7749,1.7162,1.6948,1.7329,1.7357,1.765,1.8309,1.8108,1.8608,1.985,1.9371,1.9109,1.9109,1.8673,1.8,1.7112,1.6881,1.6761,1.6751,1.6609,1.6581,1.6552,1.6459,1.6413,1.6413,1.6413,1.6413,1.6413,1.6413,1.6374,1.6345,2.8514,2.7973,2.749,2.749,2.7438,2.7372,2.7372,2.732,2.7268,2.7268,2.687,2.6492,2.6343,2.5845,2.561,2.5793,2.5654,2.5484,2.5326,2.5262,2.5128,2.4919,2.5033,2.5013,2.4805,2.4805,2.4367,2.3433,2.3433,2.348,2.3569,2.3463,2.3403,2.336,2.3168,2.3108,2.3108,2.3108,2.3108,2.3108,2.3108,2.3108,2.3108,2.3108,2.3108,2.3108,2.3108,2.3108,2.3005,2.2433,2.2237,2.2144,2.1565,2.0901,2.0355,2.0258,1.9748,1.9231,1.9131,1.9056,1.9015,1.9015,1.8727,1.8427,1.8459,1.8898,1.915,1.8636,1.8207,1.7777,1.7227,1.6854,1.6591,1.6516,1.6563,1.6591,1.6516,1.6927,1.7257,1.7313,1.7683,1.7556,1.6648,1.6899,1.7,1.6648,1.6637,1.6655,1.6712,1.6712,1.6994,1.7634,1.7095,1.7379,1.8555,1.8135,1.7929,1.7929,1.7683,1.7573,1.7584,1.6937,1.6637,1.6637,1.6488,1.6431,1.6431,1.6402,1.6413,1.6413,1.6413,1.6413,1.6413,1.6413,1.6278,1.6142,2.8514,2.7973,2.749,2.749,2.749,2.749,2.749,2.749,2.749,2.749,2.7215,2.6992,2.6893,2.6574,2.6354,2.6465,2.6387,2.6255,2.6077,2.5784,2.5541,2.5345,2.5217,2.5065,2.4885,2.4968,2.4728,2.4186,2.4186,2.4217,2.4267,2.4217,2.4186,2.4142,2.3633,2.3399,2.3355,2.2939,2.2766,2.2766,2.2766,2.2766,2.2798,2.3227,2.3131,2.2794,2.2899,2.2751,2.2494,2.2206,2.1779,2.133,2.1026,2.043,1.9835,1.9835,1.9386,1.8942,1.8942,1.8942,1.8942,1.8942,1.8688,1.8446,1.8446,1.8707,1.8786,1.8215,1.794,1.7711,1.7429,1.7244,1.714,1.714,1.6922,1.6746,1.6746,1.6749,1.674,1.674,1.6994,1.6948,1.6459,1.6609,1.6637,1.6431,1.6459,1.6477,1.6477,1.6477,1.6751,1.7307,1.6768,1.7039,1.819,1.7672,1.7435,1.7435,1.7324,1.7213,1.7067,1.6666,1.6477,1.6477,1.6431,1.6413,1.6413,1.6413,1.6413,1.6413,1.6413,1.6345,1.621,1.6144,1.6058,1.599]}]]